<?xml version="1.0" encoding="UTF-8" standalone="no" ?>
<gpx xmlns="http://www.topografix.com/GPX/1/1" xmlns:xsi="http://www.w3.org/2001/XMLSchema-instance" xsi:schemaLocation="http://www.topografix.com/GPX/1/1 http://www.topografix.com/GPX/1/1/gpx.xsd" version="1.1" creator="VisuGPX - https://www.visugpx.com">
  <metadata>
    <name>VTT - Courmettes / Tourrettes</name>
    <desc><![CDATA[Relevé terrain:   1 275 m / 30 km
Descente du pic des Courmettes et exploration sous Tourrettes (grâce aux bonnes infos de Phil88)
CR ASCVTT ici: <http://www.ascvtt.com/2013/12/01/courmettes-avant-la-tempete/>]]></desc>
  </metadata>
  <trk>
    <name><![CDATA[2013-11-30T07:35:35Z]]></name>
    <trkseg>
      <trkpt lat="43.70334" lon="7.01748">
        <ele>307.103</ele>
        <time>2013-11-30T07:35:35Z</time>
      </trkpt>
      <trkpt lat="43.70335" lon="7.01746">
        <ele>306.49</ele>
        <time>2013-11-30T07:35:58Z</time>
      </trkpt>
      <trkpt lat="43.70336" lon="7.01732">
        <ele>307.164</ele>
        <time>2013-11-30T07:36:03Z</time>
      </trkpt>
      <trkpt lat="43.70342" lon="7.01729">
        <ele>307.605</ele>
        <time>2013-11-30T07:36:06Z</time>
      </trkpt>
      <trkpt lat="43.70348" lon="7.01732">
        <ele>308.046</ele>
        <time>2013-11-30T07:36:10Z</time>
      </trkpt>
      <trkpt lat="43.70348" lon="7.01734">
        <ele>308.487</ele>
        <time>2013-11-30T07:36:11Z</time>
      </trkpt>
      <trkpt lat="43.70351" lon="7.01743">
        <ele>313.468</ele>
        <time>2013-11-30T07:36:18Z</time>
      </trkpt>
      <trkpt lat="43.70355" lon="7.0176">
        <ele>310.825</ele>
        <time>2013-11-30T07:36:26Z</time>
      </trkpt>
      <trkpt lat="43.70358" lon="7.01763">
        <ele>310.503</ele>
        <time>2013-11-30T07:36:28Z</time>
      </trkpt>
      <trkpt lat="43.7036" lon="7.01775">
        <ele>309.455</ele>
        <time>2013-11-30T07:36:34Z</time>
      </trkpt>
      <trkpt lat="43.7036" lon="7.01777">
        <ele>309.908</ele>
        <time>2013-11-30T07:36:35Z</time>
      </trkpt>
      <trkpt lat="43.70362" lon="7.01782">
        <ele>310.846</ele>
        <time>2013-11-30T07:36:38Z</time>
      </trkpt>
      <trkpt lat="43.70367" lon="7.01781">
        <ele>313.271</ele>
        <time>2013-11-30T07:36:44Z</time>
      </trkpt>
      <trkpt lat="43.70368" lon="7.01779">
        <ele>313.118</ele>
        <time>2013-11-30T07:36:45Z</time>
      </trkpt>
      <trkpt lat="43.70373" lon="7.01769">
        <ele>315.826</ele>
        <time>2013-11-30T07:36:52Z</time>
      </trkpt>
      <trkpt lat="43.70378" lon="7.0176">
        <ele>320.241</ele>
        <time>2013-11-30T07:36:59Z</time>
      </trkpt>
      <trkpt lat="43.70385" lon="7.01749">
        <ele>324.15</ele>
        <time>2013-11-30T07:37:07Z</time>
      </trkpt>
      <trkpt lat="43.70391" lon="7.01733">
        <ele>326.974</ele>
        <time>2013-11-30T07:37:16Z</time>
      </trkpt>
      <trkpt lat="43.70396" lon="7.01726">
        <ele>330.232</ele>
        <time>2013-11-30T07:37:22Z</time>
      </trkpt>
      <trkpt lat="43.704" lon="7.01717">
        <ele>335.783</ele>
        <time>2013-11-30T07:37:30Z</time>
      </trkpt>
      <trkpt lat="43.7041" lon="7.01712">
        <ele>339.396</ele>
        <time>2013-11-30T07:37:38Z</time>
      </trkpt>
      <trkpt lat="43.70422" lon="7.01711">
        <ele>337.363</ele>
        <time>2013-11-30T07:37:45Z</time>
      </trkpt>
      <trkpt lat="43.70432" lon="7.01713">
        <ele>335.816</ele>
        <time>2013-11-30T07:37:52Z</time>
      </trkpt>
      <trkpt lat="43.70433" lon="7.01715">
        <ele>333.73</ele>
        <time>2013-11-30T07:37:58Z</time>
      </trkpt>
      <trkpt lat="43.70433" lon="7.01713">
        <ele>332.858</ele>
        <time>2013-11-30T07:38:15Z</time>
      </trkpt>
      <trkpt lat="43.70436" lon="7.0171">
        <ele>333.531</ele>
        <time>2013-11-30T07:38:19Z</time>
      </trkpt>
      <trkpt lat="43.70448" lon="7.017">
        <ele>335.827</ele>
        <time>2013-11-30T07:38:27Z</time>
      </trkpt>
      <trkpt lat="43.70455" lon="7.01682">
        <ele>343.675</ele>
        <time>2013-11-30T07:38:35Z</time>
      </trkpt>
      <trkpt lat="43.70462" lon="7.01675">
        <ele>344.561</ele>
        <time>2013-11-30T07:38:40Z</time>
      </trkpt>
      <trkpt lat="43.70469" lon="7.01684">
        <ele>343.949</ele>
        <time>2013-11-30T07:38:46Z</time>
      </trkpt>
      <trkpt lat="43.70477" lon="7.01695">
        <ele>342.197</ele>
        <time>2013-11-30T07:38:54Z</time>
      </trkpt>
      <trkpt lat="43.70483" lon="7.01703">
        <ele>341.48</ele>
        <time>2013-11-30T07:39:00Z</time>
      </trkpt>
      <trkpt lat="43.70491" lon="7.01712">
        <ele>340.698</ele>
        <time>2013-11-30T07:39:07Z</time>
      </trkpt>
      <trkpt lat="43.70501" lon="7.01723">
        <ele>341.81</ele>
        <time>2013-11-30T07:39:16Z</time>
      </trkpt>
      <trkpt lat="43.70511" lon="7.01734">
        <ele>339.15</ele>
        <time>2013-11-30T07:39:24Z</time>
      </trkpt>
      <trkpt lat="43.7052" lon="7.01746">
        <ele>339.351</ele>
        <time>2013-11-30T07:39:32Z</time>
      </trkpt>
      <trkpt lat="43.7052" lon="7.01747">
        <ele>340.432</ele>
        <time>2013-11-30T07:39:33Z</time>
      </trkpt>
      <trkpt lat="43.70525" lon="7.01751">
        <ele>341.902</ele>
        <time>2013-11-30T07:39:37Z</time>
      </trkpt>
      <trkpt lat="43.70527" lon="7.01758">
        <ele>344.879</ele>
        <time>2013-11-30T07:39:41Z</time>
      </trkpt>
      <trkpt lat="43.70534" lon="7.01764">
        <ele>345.019</ele>
        <time>2013-11-30T07:39:47Z</time>
      </trkpt>
      <trkpt lat="43.70541" lon="7.01773">
        <ele>347.233</ele>
        <time>2013-11-30T07:39:55Z</time>
      </trkpt>
      <trkpt lat="43.70545" lon="7.01779">
        <ele>348.846</ele>
        <time>2013-11-30T07:39:59Z</time>
      </trkpt>
      <trkpt lat="43.70551" lon="7.01784">
        <ele>351.984</ele>
        <time>2013-11-30T07:40:05Z</time>
      </trkpt>
      <trkpt lat="43.70557" lon="7.01792">
        <ele>354.563</ele>
        <time>2013-11-30T07:40:12Z</time>
      </trkpt>
      <trkpt lat="43.70559" lon="7.01796">
        <ele>354.412</ele>
        <time>2013-11-30T07:40:14Z</time>
      </trkpt>
      <trkpt lat="43.70562" lon="7.01801">
        <ele>355.733</ele>
        <time>2013-11-30T07:40:18Z</time>
      </trkpt>
      <trkpt lat="43.70565" lon="7.01804">
        <ele>356.372</ele>
        <time>2013-11-30T07:40:21Z</time>
      </trkpt>
      <trkpt lat="43.70567" lon="7.01815">
        <ele>358.871</ele>
        <time>2013-11-30T07:40:29Z</time>
      </trkpt>
      <trkpt lat="43.70573" lon="7.01822">
        <ele>358.978</ele>
        <time>2013-11-30T07:40:35Z</time>
      </trkpt>
      <trkpt lat="43.70573" lon="7.01823">
        <ele>358.998</ele>
        <time>2013-11-30T07:40:36Z</time>
      </trkpt>
      <trkpt lat="43.70576" lon="7.01839">
        <ele>360.819</ele>
        <time>2013-11-30T07:40:45Z</time>
      </trkpt>
      <trkpt lat="43.70578" lon="7.01852">
        <ele>363.22</ele>
        <time>2013-11-30T07:40:52Z</time>
      </trkpt>
      <trkpt lat="43.70581" lon="7.01861">
        <ele>364.6</ele>
        <time>2013-11-30T07:40:58Z</time>
      </trkpt>
      <trkpt lat="43.70582" lon="7.01875">
        <ele>364.636</ele>
        <time>2013-11-30T07:41:06Z</time>
      </trkpt>
      <trkpt lat="43.7058" lon="7.01882">
        <ele>366.28</ele>
        <time>2013-11-30T07:41:11Z</time>
      </trkpt>
      <trkpt lat="43.70583" lon="7.01892">
        <ele>367.195</ele>
        <time>2013-11-30T07:41:17Z</time>
      </trkpt>
      <trkpt lat="43.70587" lon="7.01894">
        <ele>369.395</ele>
        <time>2013-11-30T07:41:24Z</time>
      </trkpt>
      <trkpt lat="43.70596" lon="7.01888">
        <ele>374.743</ele>
        <time>2013-11-30T07:41:32Z</time>
      </trkpt>
      <trkpt lat="43.70603" lon="7.01877">
        <ele>376.81</ele>
        <time>2013-11-30T07:41:40Z</time>
      </trkpt>
      <trkpt lat="43.70609" lon="7.01865">
        <ele>379.238</ele>
        <time>2013-11-30T07:41:47Z</time>
      </trkpt>
      <trkpt lat="43.70613" lon="7.01858">
        <ele>379.087</ele>
        <time>2013-11-30T07:41:52Z</time>
      </trkpt>
      <trkpt lat="43.70615" lon="7.01852">
        <ele>379.519</ele>
        <time>2013-11-30T07:41:56Z</time>
      </trkpt>
      <trkpt lat="43.70621" lon="7.01845">
        <ele>379.398</ele>
        <time>2013-11-30T07:42:02Z</time>
      </trkpt>
      <trkpt lat="43.70629" lon="7.01831">
        <ele>380.869</ele>
        <time>2013-11-30T07:42:12Z</time>
      </trkpt>
      <trkpt lat="43.70636" lon="7.01816">
        <ele>384.128</ele>
        <time>2013-11-30T07:42:21Z</time>
      </trkpt>
      <trkpt lat="43.70641" lon="7.01804">
        <ele>384.126</ele>
        <time>2013-11-30T07:42:28Z</time>
      </trkpt>
      <trkpt lat="43.70647" lon="7.01789">
        <ele>389.731</ele>
        <time>2013-11-30T07:42:37Z</time>
      </trkpt>
      <trkpt lat="43.70653" lon="7.01777">
        <ele>389.383</ele>
        <time>2013-11-30T07:42:45Z</time>
      </trkpt>
      <trkpt lat="43.7066" lon="7.01764">
        <ele>389.19</ele>
        <time>2013-11-30T07:42:54Z</time>
      </trkpt>
      <trkpt lat="43.70666" lon="7.01753">
        <ele>393.94</ele>
        <time>2013-11-30T07:43:02Z</time>
      </trkpt>
      <trkpt lat="43.70677" lon="7.0174">
        <ele>391.41</ele>
        <time>2013-11-30T07:43:09Z</time>
      </trkpt>
      <trkpt lat="43.70681" lon="7.01727">
        <ele>393.764</ele>
        <time>2013-11-30T07:43:15Z</time>
      </trkpt>
      <trkpt lat="43.70686" lon="7.01707">
        <ele>399.319</ele>
        <time>2013-11-30T07:43:25Z</time>
      </trkpt>
      <trkpt lat="43.70691" lon="7.01688">
        <ele>402.297</ele>
        <time>2013-11-30T07:43:34Z</time>
      </trkpt>
      <trkpt lat="43.70694" lon="7.01672">
        <ele>403.881</ele>
        <time>2013-11-30T07:43:42Z</time>
      </trkpt>
      <trkpt lat="43.70698" lon="7.01658">
        <ele>406.262</ele>
        <time>2013-11-30T07:43:50Z</time>
      </trkpt>
      <trkpt lat="43.70701" lon="7.01645">
        <ele>409.715</ele>
        <time>2013-11-30T07:43:58Z</time>
      </trkpt>
      <trkpt lat="43.70703" lon="7.01638">
        <ele>411.016</ele>
        <time>2013-11-30T07:44:03Z</time>
      </trkpt>
      <trkpt lat="43.70705" lon="7.01632">
        <ele>407.698</ele>
        <time>2013-11-30T07:44:07Z</time>
      </trkpt>
      <trkpt lat="43.70708" lon="7.01619">
        <ele>407.158</ele>
        <time>2013-11-30T07:44:14Z</time>
      </trkpt>
      <trkpt lat="43.70712" lon="7.01602">
        <ele>406.439</ele>
        <time>2013-11-30T07:44:24Z</time>
      </trkpt>
      <trkpt lat="43.70713" lon="7.01601">
        <ele>406.389</ele>
        <time>2013-11-30T07:44:25Z</time>
      </trkpt>
      <trkpt lat="43.70714" lon="7.01595">
        <ele>406.466</ele>
        <time>2013-11-30T07:44:30Z</time>
      </trkpt>
      <trkpt lat="43.70718" lon="7.01581">
        <ele>406.638</ele>
        <time>2013-11-30T07:44:39Z</time>
      </trkpt>
      <trkpt lat="43.7072" lon="7.01577">
        <ele>407.262</ele>
        <time>2013-11-30T07:44:42Z</time>
      </trkpt>
      <trkpt lat="43.70722" lon="7.01561">
        <ele>410.119</ele>
        <time>2013-11-30T07:44:51Z</time>
      </trkpt>
      <trkpt lat="43.70726" lon="7.01554">
        <ele>413.794</ele>
        <time>2013-11-30T07:44:57Z</time>
      </trkpt>
      <trkpt lat="43.70729" lon="7.01543">
        <ele>416.295</ele>
        <time>2013-11-30T07:45:04Z</time>
      </trkpt>
      <trkpt lat="43.7073" lon="7.0154">
        <ele>416.802</ele>
        <time>2013-11-30T07:45:06Z</time>
      </trkpt>
      <trkpt lat="43.70733" lon="7.01528">
        <ele>419.542</ele>
        <time>2013-11-30T07:45:15Z</time>
      </trkpt>
      <trkpt lat="43.70735" lon="7.01519">
        <ele>418.814</ele>
        <time>2013-11-30T07:45:21Z</time>
      </trkpt>
      <trkpt lat="43.70736" lon="7.01515">
        <ele>418.773</ele>
        <time>2013-11-30T07:45:24Z</time>
      </trkpt>
      <trkpt lat="43.70739" lon="7.01499">
        <ele>420.367</ele>
        <time>2013-11-30T07:45:34Z</time>
      </trkpt>
      <trkpt lat="43.7074" lon="7.01496">
        <ele>421.421</ele>
        <time>2013-11-30T07:45:36Z</time>
      </trkpt>
      <trkpt lat="43.70743" lon="7.01492">
        <ele>422.704</ele>
        <time>2013-11-30T07:45:40Z</time>
      </trkpt>
      <trkpt lat="43.70744" lon="7.01482">
        <ele>424.375</ele>
        <time>2013-11-30T07:45:46Z</time>
      </trkpt>
      <trkpt lat="43.70751" lon="7.01465">
        <ele>428.749</ele>
        <time>2013-11-30T07:45:58Z</time>
      </trkpt>
      <trkpt lat="43.70754" lon="7.01451">
        <ele>433.118</ele>
        <time>2013-11-30T07:46:07Z</time>
      </trkpt>
      <trkpt lat="43.7076" lon="7.0144">
        <ele>434.773</ele>
        <time>2013-11-30T07:46:15Z</time>
      </trkpt>
      <trkpt lat="43.70765" lon="7.01434">
        <ele>434.367</ele>
        <time>2013-11-30T07:46:20Z</time>
      </trkpt>
      <trkpt lat="43.70772" lon="7.01423">
        <ele>434.019</ele>
        <time>2013-11-30T07:46:28Z</time>
      </trkpt>
      <trkpt lat="43.70778" lon="7.01416">
        <ele>434.622</ele>
        <time>2013-11-30T07:46:34Z</time>
      </trkpt>
      <trkpt lat="43.70785" lon="7.01405">
        <ele>437.267</ele>
        <time>2013-11-30T07:46:42Z</time>
      </trkpt>
      <trkpt lat="43.70786" lon="7.014">
        <ele>439.261</ele>
        <time>2013-11-30T07:46:45Z</time>
      </trkpt>
      <trkpt lat="43.70793" lon="7.01397">
        <ele>440.462</ele>
        <time>2013-11-30T07:46:51Z</time>
      </trkpt>
      <trkpt lat="43.70796" lon="7.01405">
        <ele>438.538</ele>
        <time>2013-11-30T07:46:55Z</time>
      </trkpt>
      <trkpt lat="43.70796" lon="7.01419">
        <ele>441.947</ele>
        <time>2013-11-30T07:47:03Z</time>
      </trkpt>
      <trkpt lat="43.708" lon="7.01435">
        <ele>439.685</ele>
        <time>2013-11-30T07:47:11Z</time>
      </trkpt>
      <trkpt lat="43.70801" lon="7.01447">
        <ele>438.412</ele>
        <time>2013-11-30T07:47:17Z</time>
      </trkpt>
      <trkpt lat="43.70801" lon="7.01465">
        <ele>440.739</ele>
        <time>2013-11-30T07:47:26Z</time>
      </trkpt>
      <trkpt lat="43.70803" lon="7.01482">
        <ele>443.294</ele>
        <time>2013-11-30T07:47:35Z</time>
      </trkpt>
      <trkpt lat="43.70805" lon="7.01493">
        <ele>444.013</ele>
        <time>2013-11-30T07:47:42Z</time>
      </trkpt>
      <trkpt lat="43.70809" lon="7.01506">
        <ele>442.87</ele>
        <time>2013-11-30T07:47:49Z</time>
      </trkpt>
      <trkpt lat="43.70812" lon="7.01519">
        <ele>444.145</ele>
        <time>2013-11-30T07:47:57Z</time>
      </trkpt>
      <trkpt lat="43.70816" lon="7.01536">
        <ele>446.104</ele>
        <time>2013-11-30T07:48:06Z</time>
      </trkpt>
      <trkpt lat="43.70818" lon="7.0155">
        <ele>448.117</ele>
        <time>2013-11-30T07:48:13Z</time>
      </trkpt>
      <trkpt lat="43.7082" lon="7.01562">
        <ele>451.436</ele>
        <time>2013-11-30T07:48:19Z</time>
      </trkpt>
      <trkpt lat="43.70822" lon="7.01578">
        <ele>451.238</ele>
        <time>2013-11-30T07:48:27Z</time>
      </trkpt>
      <trkpt lat="43.70826" lon="7.0159">
        <ele>451.866</ele>
        <time>2013-11-30T07:48:34Z</time>
      </trkpt>
      <trkpt lat="43.7083" lon="7.01604">
        <ele>452.898</ele>
        <time>2013-11-30T07:48:41Z</time>
      </trkpt>
      <trkpt lat="43.70836" lon="7.01615">
        <ele>454.039</ele>
        <time>2013-11-30T07:48:48Z</time>
      </trkpt>
      <trkpt lat="43.70845" lon="7.01625">
        <ele>452.444</ele>
        <time>2013-11-30T07:48:56Z</time>
      </trkpt>
      <trkpt lat="43.70856" lon="7.01637">
        <ele>453</ele>
        <time>2013-11-30T07:49:05Z</time>
      </trkpt>
      <trkpt lat="43.70865" lon="7.01649">
        <ele>452.167</ele>
        <time>2013-11-30T07:49:12Z</time>
      </trkpt>
      <trkpt lat="43.7087" lon="7.01656">
        <ele>451.596</ele>
        <time>2013-11-30T07:49:16Z</time>
      </trkpt>
      <trkpt lat="43.70878" lon="7.01668">
        <ele>451.527</ele>
        <time>2013-11-30T07:49:23Z</time>
      </trkpt>
      <trkpt lat="43.70887" lon="7.01682">
        <ele>453.921</ele>
        <time>2013-11-30T07:49:32Z</time>
      </trkpt>
      <trkpt lat="43.70893" lon="7.01695">
        <ele>456.104</ele>
        <time>2013-11-30T07:49:40Z</time>
      </trkpt>
      <trkpt lat="43.70899" lon="7.01708">
        <ele>457.522</ele>
        <time>2013-11-30T07:49:48Z</time>
      </trkpt>
      <trkpt lat="43.70902" lon="7.01723">
        <ele>464.389</ele>
        <time>2013-11-30T07:49:57Z</time>
      </trkpt>
      <trkpt lat="43.70909" lon="7.01735">
        <ele>467.15</ele>
        <time>2013-11-30T07:50:04Z</time>
      </trkpt>
      <trkpt lat="43.70914" lon="7.01729">
        <ele>468.45</ele>
        <time>2013-11-30T07:50:09Z</time>
      </trkpt>
      <trkpt lat="43.70914" lon="7.01725">
        <ele>469.723</ele>
        <time>2013-11-30T07:50:11Z</time>
      </trkpt>
      <trkpt lat="43.70912" lon="7.01707">
        <ele>470.319</ele>
        <time>2013-11-30T07:50:20Z</time>
      </trkpt>
      <trkpt lat="43.70912" lon="7.01693">
        <ele>471.997</ele>
        <time>2013-11-30T07:50:28Z</time>
      </trkpt>
      <trkpt lat="43.70912" lon="7.01678">
        <ele>473.498</ele>
        <time>2013-11-30T07:50:36Z</time>
      </trkpt>
      <trkpt lat="43.70911" lon="7.01664">
        <ele>479.309</ele>
        <time>2013-11-30T07:50:44Z</time>
      </trkpt>
      <trkpt lat="43.7091" lon="7.01644">
        <ele>490.111</ele>
        <time>2013-11-30T07:50:55Z</time>
      </trkpt>
      <trkpt lat="43.7091" lon="7.01629">
        <ele>492.845</ele>
        <time>2013-11-30T07:51:03Z</time>
      </trkpt>
      <trkpt lat="43.70909" lon="7.01617">
        <ele>490.812</ele>
        <time>2013-11-30T07:51:10Z</time>
      </trkpt>
      <trkpt lat="43.70903" lon="7.01604">
        <ele>494.232</ele>
        <time>2013-11-30T07:51:17Z</time>
      </trkpt>
      <trkpt lat="43.70901" lon="7.01601">
        <ele>494.341</ele>
        <time>2013-11-30T07:51:19Z</time>
      </trkpt>
      <trkpt lat="43.70901" lon="7.01586">
        <ele>495.682</ele>
        <time>2013-11-30T07:51:28Z</time>
      </trkpt>
      <trkpt lat="43.70909" lon="7.01587">
        <ele>496.8</ele>
        <time>2013-11-30T07:51:33Z</time>
      </trkpt>
      <trkpt lat="43.70918" lon="7.016">
        <ele>492.234</ele>
        <time>2013-11-30T07:51:41Z</time>
      </trkpt>
      <trkpt lat="43.70924" lon="7.01613">
        <ele>490.554</ele>
        <time>2013-11-30T07:51:48Z</time>
      </trkpt>
      <trkpt lat="43.7093" lon="7.01629">
        <ele>491.032</ele>
        <time>2013-11-30T07:51:58Z</time>
      </trkpt>
      <trkpt lat="43.70937" lon="7.01644">
        <ele>493.126</ele>
        <time>2013-11-30T07:52:08Z</time>
      </trkpt>
      <trkpt lat="43.70938" lon="7.01648">
        <ele>493.746</ele>
        <time>2013-11-30T07:52:11Z</time>
      </trkpt>
      <trkpt lat="43.70943" lon="7.0166">
        <ele>492.562</ele>
        <time>2013-11-30T07:52:19Z</time>
      </trkpt>
      <trkpt lat="43.70947" lon="7.01672">
        <ele>492.364</ele>
        <time>2013-11-30T07:52:27Z</time>
      </trkpt>
      <trkpt lat="43.70953" lon="7.01686">
        <ele>490.424</ele>
        <time>2013-11-30T07:52:36Z</time>
      </trkpt>
      <trkpt lat="43.70958" lon="7.01695">
        <ele>491.374</ele>
        <time>2013-11-30T07:52:43Z</time>
      </trkpt>
      <trkpt lat="43.70963" lon="7.01705">
        <ele>492.684</ele>
        <time>2013-11-30T07:52:51Z</time>
      </trkpt>
      <trkpt lat="43.70968" lon="7.0172">
        <ele>498.104</ele>
        <time>2013-11-30T07:53:01Z</time>
      </trkpt>
      <trkpt lat="43.70969" lon="7.01734">
        <ele>501.83</ele>
        <time>2013-11-30T07:53:09Z</time>
      </trkpt>
      <trkpt lat="43.7097" lon="7.01736">
        <ele>502.28</ele>
        <time>2013-11-30T07:53:10Z</time>
      </trkpt>
      <trkpt lat="43.70977" lon="7.01745">
        <ele>505.849</ele>
        <time>2013-11-30T07:53:19Z</time>
      </trkpt>
      <trkpt lat="43.70979" lon="7.01745">
        <ele>506.51</ele>
        <time>2013-11-30T07:53:20Z</time>
      </trkpt>
      <trkpt lat="43.70982" lon="7.01734">
        <ele>509.955</ele>
        <time>2013-11-30T07:53:26Z</time>
      </trkpt>
      <trkpt lat="43.70978" lon="7.01717">
        <ele>511.896</ele>
        <time>2013-11-30T07:53:34Z</time>
      </trkpt>
      <trkpt lat="43.70975" lon="7.01704">
        <ele>516.058</ele>
        <time>2013-11-30T07:53:41Z</time>
      </trkpt>
      <trkpt lat="43.70971" lon="7.0169">
        <ele>521.582</ele>
        <time>2013-11-30T07:53:49Z</time>
      </trkpt>
      <trkpt lat="43.7097" lon="7.01672">
        <ele>522.586</ele>
        <time>2013-11-30T07:53:57Z</time>
      </trkpt>
      <trkpt lat="43.7097" lon="7.01657">
        <ele>525.997</ele>
        <time>2013-11-30T07:54:05Z</time>
      </trkpt>
      <trkpt lat="43.7097" lon="7.01643">
        <ele>528.757</ele>
        <time>2013-11-30T07:54:13Z</time>
      </trkpt>
      <trkpt lat="43.70971" lon="7.01626">
        <ele>527.049</ele>
        <time>2013-11-30T07:54:22Z</time>
      </trkpt>
      <trkpt lat="43.7097" lon="7.01613">
        <ele>527.109</ele>
        <time>2013-11-30T07:54:28Z</time>
      </trkpt>
      <trkpt lat="43.70967" lon="7.01594">
        <ele>530.425</ele>
        <time>2013-11-30T07:54:38Z</time>
      </trkpt>
      <trkpt lat="43.70966" lon="7.01581">
        <ele>531.776</ele>
        <time>2013-11-30T07:54:45Z</time>
      </trkpt>
      <trkpt lat="43.70964" lon="7.01569">
        <ele>536.068</ele>
        <time>2013-11-30T07:54:52Z</time>
      </trkpt>
      <trkpt lat="43.70961" lon="7.01553">
        <ele>539.58</ele>
        <time>2013-11-30T07:55:01Z</time>
      </trkpt>
      <trkpt lat="43.70959" lon="7.01539">
        <ele>545.322</ele>
        <time>2013-11-30T07:55:09Z</time>
      </trkpt>
      <trkpt lat="43.70959" lon="7.01527">
        <ele>545.669</ele>
        <time>2013-11-30T07:55:16Z</time>
      </trkpt>
      <trkpt lat="43.70959" lon="7.01526">
        <ele>546.309</ele>
        <time>2013-11-30T07:55:17Z</time>
      </trkpt>
      <trkpt lat="43.70958" lon="7.01517">
        <ele>545.302</ele>
        <time>2013-11-30T07:55:22Z</time>
      </trkpt>
      <trkpt lat="43.70958" lon="7.01501">
        <ele>542.243</ele>
        <time>2013-11-30T07:55:31Z</time>
      </trkpt>
      <trkpt lat="43.70961" lon="7.01491">
        <ele>541.103</ele>
        <time>2013-11-30T07:55:38Z</time>
      </trkpt>
      <trkpt lat="43.70966" lon="7.01484">
        <ele>541.135</ele>
        <time>2013-11-30T07:55:44Z</time>
      </trkpt>
      <trkpt lat="43.70973" lon="7.01489">
        <ele>541.082</ele>
        <time>2013-11-30T07:55:50Z</time>
      </trkpt>
      <trkpt lat="43.7098" lon="7.01506">
        <ele>540.946</ele>
        <time>2013-11-30T07:56:01Z</time>
      </trkpt>
      <trkpt lat="43.70981" lon="7.01516">
        <ele>541.985</ele>
        <time>2013-11-30T07:56:07Z</time>
      </trkpt>
      <trkpt lat="43.70984" lon="7.01525">
        <ele>542.225</ele>
        <time>2013-11-30T07:56:13Z</time>
      </trkpt>
      <trkpt lat="43.70985" lon="7.01531">
        <ele>543.506</ele>
        <time>2013-11-30T07:56:17Z</time>
      </trkpt>
      <trkpt lat="43.70989" lon="7.01543">
        <ele>545.687</ele>
        <time>2013-11-30T07:56:25Z</time>
      </trkpt>
      <trkpt lat="43.70993" lon="7.01558">
        <ele>547.365</ele>
        <time>2013-11-30T07:56:34Z</time>
      </trkpt>
      <trkpt lat="43.70998" lon="7.01571">
        <ele>549.217</ele>
        <time>2013-11-30T07:56:42Z</time>
      </trkpt>
      <trkpt lat="43.71006" lon="7.01585">
        <ele>548.381</ele>
        <time>2013-11-30T07:56:52Z</time>
      </trkpt>
      <trkpt lat="43.71016" lon="7.01599">
        <ele>546.529</ele>
        <time>2013-11-30T07:57:03Z</time>
      </trkpt>
      <trkpt lat="43.71025" lon="7.01612">
        <ele>541.482</ele>
        <time>2013-11-30T07:57:12Z</time>
      </trkpt>
      <trkpt lat="43.71033" lon="7.01625">
        <ele>539.76</ele>
        <time>2013-11-30T07:57:21Z</time>
      </trkpt>
      <trkpt lat="43.71039" lon="7.01639">
        <ele>547.953</ele>
        <time>2013-11-30T07:57:29Z</time>
      </trkpt>
      <trkpt lat="43.71042" lon="7.0165">
        <ele>552.83</ele>
        <time>2013-11-30T07:57:37Z</time>
      </trkpt>
      <trkpt lat="43.71043" lon="7.01657">
        <ele>558.514</ele>
        <time>2013-11-30T07:57:41Z</time>
      </trkpt>
      <trkpt lat="43.71045" lon="7.01666">
        <ele>555.669</ele>
        <time>2013-11-30T07:57:46Z</time>
      </trkpt>
      <trkpt lat="43.71049" lon="7.0168">
        <ele>559.038</ele>
        <time>2013-11-30T07:57:54Z</time>
      </trkpt>
      <trkpt lat="43.7105" lon="7.01692">
        <ele>562.514</ele>
        <time>2013-11-30T07:58:01Z</time>
      </trkpt>
      <trkpt lat="43.71053" lon="7.01708">
        <ele>562.809</ele>
        <time>2013-11-30T07:58:09Z</time>
      </trkpt>
      <trkpt lat="43.71053" lon="7.01715">
        <ele>563.57</ele>
        <time>2013-11-30T07:58:12Z</time>
      </trkpt>
      <trkpt lat="43.71061" lon="7.01719">
        <ele>565.94</ele>
        <time>2013-11-30T07:58:18Z</time>
      </trkpt>
      <trkpt lat="43.71064" lon="7.0171">
        <ele>567.595</ele>
        <time>2013-11-30T07:58:23Z</time>
      </trkpt>
      <trkpt lat="43.71063" lon="7.01701">
        <ele>568.162</ele>
        <time>2013-11-30T07:58:28Z</time>
      </trkpt>
      <trkpt lat="43.71061" lon="7.01695">
        <ele>567.937</ele>
        <time>2013-11-30T07:58:33Z</time>
      </trkpt>
      <trkpt lat="43.71061" lon="7.01687">
        <ele>568.886</ele>
        <time>2013-11-30T07:58:39Z</time>
      </trkpt>
      <trkpt lat="43.71059" lon="7.01679">
        <ele>568.045</ele>
        <time>2013-11-30T07:58:44Z</time>
      </trkpt>
      <trkpt lat="43.71059" lon="7.01668">
        <ele>569.452</ele>
        <time>2013-11-30T07:58:52Z</time>
      </trkpt>
      <trkpt lat="43.7106" lon="7.01652">
        <ele>570.13</ele>
        <time>2013-11-30T07:59:00Z</time>
      </trkpt>
      <trkpt lat="43.7106" lon="7.01634">
        <ele>573.941</ele>
        <time>2013-11-30T07:59:09Z</time>
      </trkpt>
      <trkpt lat="43.7106" lon="7.01618">
        <ele>577.6</ele>
        <time>2013-11-30T07:59:18Z</time>
      </trkpt>
      <trkpt lat="43.71058" lon="7.01603">
        <ele>582.024</ele>
        <time>2013-11-30T07:59:27Z</time>
      </trkpt>
      <trkpt lat="43.71057" lon="7.01587">
        <ele>583.525</ele>
        <time>2013-11-30T07:59:36Z</time>
      </trkpt>
      <trkpt lat="43.71056" lon="7.01579">
        <ele>584.862</ele>
        <time>2013-11-30T07:59:41Z</time>
      </trkpt>
      <trkpt lat="43.71055" lon="7.01572">
        <ele>586.514</ele>
        <time>2013-11-30T07:59:45Z</time>
      </trkpt>
      <trkpt lat="43.7105" lon="7.01555">
        <ele>585.951</ele>
        <time>2013-11-30T07:59:55Z</time>
      </trkpt>
      <trkpt lat="43.71051" lon="7.01538">
        <ele>585.908</ele>
        <time>2013-11-30T08:00:04Z</time>
      </trkpt>
      <trkpt lat="43.71056" lon="7.01526">
        <ele>587.308</ele>
        <time>2013-11-30T08:00:13Z</time>
      </trkpt>
      <trkpt lat="43.71059" lon="7.01519">
        <ele>587.688</ele>
        <time>2013-11-30T08:00:19Z</time>
      </trkpt>
      <trkpt lat="43.71058" lon="7.01507">
        <ele>594.875</ele>
        <time>2013-11-30T08:00:27Z</time>
      </trkpt>
      <trkpt lat="43.71056" lon="7.01494">
        <ele>598.906</ele>
        <time>2013-11-30T08:00:34Z</time>
      </trkpt>
      <trkpt lat="43.71056" lon="7.01479">
        <ele>598.109</ele>
        <time>2013-11-30T08:00:41Z</time>
      </trkpt>
      <trkpt lat="43.71058" lon="7.01464">
        <ele>598.626</ele>
        <time>2013-11-30T08:00:49Z</time>
      </trkpt>
      <trkpt lat="43.71065" lon="7.01447">
        <ele>601.085</ele>
        <time>2013-11-30T08:01:00Z</time>
      </trkpt>
      <trkpt lat="43.71069" lon="7.01441">
        <ele>602.506</ele>
        <time>2013-11-30T08:01:05Z</time>
      </trkpt>
      <trkpt lat="43.71071" lon="7.01433">
        <ele>604.377</ele>
        <time>2013-11-30T08:01:10Z</time>
      </trkpt>
      <trkpt lat="43.71075" lon="7.01416">
        <ele>606.646</ele>
        <time>2013-11-30T08:01:20Z</time>
      </trkpt>
      <trkpt lat="43.71081" lon="7.01404">
        <ele>607.825</ele>
        <time>2013-11-30T08:01:28Z</time>
      </trkpt>
      <trkpt lat="43.71085" lon="7.01394">
        <ele>609.535</ele>
        <time>2013-11-30T08:01:35Z</time>
      </trkpt>
      <trkpt lat="43.71092" lon="7.01377">
        <ele>608.222</ele>
        <time>2013-11-30T08:01:45Z</time>
      </trkpt>
      <trkpt lat="43.71099" lon="7.01362">
        <ele>612.166</ele>
        <time>2013-11-30T08:01:54Z</time>
      </trkpt>
      <trkpt lat="43.711" lon="7.01356">
        <ele>614.687</ele>
        <time>2013-11-30T08:01:57Z</time>
      </trkpt>
      <trkpt lat="43.71104" lon="7.01346">
        <ele>619.529</ele>
        <time>2013-11-30T08:02:04Z</time>
      </trkpt>
      <trkpt lat="43.71107" lon="7.01341">
        <ele>622.51</ele>
        <time>2013-11-30T08:02:09Z</time>
      </trkpt>
      <trkpt lat="43.71111" lon="7.0133">
        <ele>625.678</ele>
        <time>2013-11-30T08:02:18Z</time>
      </trkpt>
      <trkpt lat="43.71115" lon="7.01319">
        <ele>628.259</ele>
        <time>2013-11-30T08:02:25Z</time>
      </trkpt>
      <trkpt lat="43.7112" lon="7.01308">
        <ele>630.628</ele>
        <time>2013-11-30T08:02:33Z</time>
      </trkpt>
      <trkpt lat="43.71125" lon="7.01298">
        <ele>631.605</ele>
        <time>2013-11-30T08:02:41Z</time>
      </trkpt>
      <trkpt lat="43.71131" lon="7.01282">
        <ele>629.772</ele>
        <time>2013-11-30T08:02:51Z</time>
      </trkpt>
      <trkpt lat="43.71134" lon="7.01271">
        <ele>636.171</ele>
        <time>2013-11-30T08:02:58Z</time>
      </trkpt>
      <trkpt lat="43.7114" lon="7.01264">
        <ele>639.03</ele>
        <time>2013-11-30T08:03:05Z</time>
      </trkpt>
      <trkpt lat="43.71146" lon="7.01262">
        <ele>638.797</ele>
        <time>2013-11-30T08:03:10Z</time>
      </trkpt>
      <trkpt lat="43.71153" lon="7.01253">
        <ele>638.235</ele>
        <time>2013-11-30T08:03:18Z</time>
      </trkpt>
      <trkpt lat="43.7116" lon="7.01248">
        <ele>637.327</ele>
        <time>2013-11-30T08:03:25Z</time>
      </trkpt>
      <trkpt lat="43.71165" lon="7.01241">
        <ele>637.263</ele>
        <time>2013-11-30T08:03:31Z</time>
      </trkpt>
      <trkpt lat="43.7117" lon="7.01233">
        <ele>639.226</ele>
        <time>2013-11-30T08:03:37Z</time>
      </trkpt>
      <trkpt lat="43.71171" lon="7.01219">
        <ele>644.342</ele>
        <time>2013-11-30T08:03:45Z</time>
      </trkpt>
      <trkpt lat="43.71171" lon="7.01208">
        <ele>645.73</ele>
        <time>2013-11-30T08:03:50Z</time>
      </trkpt>
      <trkpt lat="43.71165" lon="7.01197">
        <ele>649.791</ele>
        <time>2013-11-30T08:03:57Z</time>
      </trkpt>
      <trkpt lat="43.7116" lon="7.01185">
        <ele>646.607</ele>
        <time>2013-11-30T08:04:03Z</time>
      </trkpt>
      <trkpt lat="43.71154" lon="7.0117">
        <ele>649.668</ele>
        <time>2013-11-30T08:04:11Z</time>
      </trkpt>
      <trkpt lat="43.71157" lon="7.01154">
        <ele>646.039</ele>
        <time>2013-11-30T08:04:19Z</time>
      </trkpt>
      <trkpt lat="43.71159" lon="7.0114">
        <ele>644.34</ele>
        <time>2013-11-30T08:04:25Z</time>
      </trkpt>
      <trkpt lat="43.71163" lon="7.01134">
        <ele>643.911</ele>
        <time>2013-11-30T08:04:30Z</time>
      </trkpt>
      <trkpt lat="43.71171" lon="7.01138">
        <ele>643.072</ele>
        <time>2013-11-30T08:04:37Z</time>
      </trkpt>
      <trkpt lat="43.71173" lon="7.01142">
        <ele>642.882</ele>
        <time>2013-11-30T08:04:39Z</time>
      </trkpt>
      <trkpt lat="43.71173" lon="7.01156">
        <ele>643.313</ele>
        <time>2013-11-30T08:04:47Z</time>
      </trkpt>
      <trkpt lat="43.71174" lon="7.0116">
        <ele>643.874</ele>
        <time>2013-11-30T08:04:50Z</time>
      </trkpt>
      <trkpt lat="43.7118" lon="7.0117">
        <ele>643.252</ele>
        <time>2013-11-30T08:04:57Z</time>
      </trkpt>
      <trkpt lat="43.71188" lon="7.01175">
        <ele>643.983</ele>
        <time>2013-11-30T08:05:04Z</time>
      </trkpt>
      <trkpt lat="43.71189" lon="7.01178">
        <ele>643.542</ele>
        <time>2013-11-30T08:05:06Z</time>
      </trkpt>
      <trkpt lat="43.71199" lon="7.01183">
        <ele>645.805</ele>
        <time>2013-11-30T08:05:15Z</time>
      </trkpt>
      <trkpt lat="43.71207" lon="7.0119">
        <ele>645.513</ele>
        <time>2013-11-30T08:05:22Z</time>
      </trkpt>
      <trkpt lat="43.7121" lon="7.01201">
        <ele>650.007</ele>
        <time>2013-11-30T08:05:29Z</time>
      </trkpt>
      <trkpt lat="43.71207" lon="7.01213">
        <ele>652.074</ele>
        <time>2013-11-30T08:05:37Z</time>
      </trkpt>
      <trkpt lat="43.71205" lon="7.01225">
        <ele>653.185</ele>
        <time>2013-11-30T08:05:44Z</time>
      </trkpt>
      <trkpt lat="43.71204" lon="7.01227">
        <ele>653.875</ele>
        <time>2013-11-30T08:05:45Z</time>
      </trkpt>
      <trkpt lat="43.71199" lon="7.01239">
        <ele>655.675</ele>
        <time>2013-11-30T08:05:53Z</time>
      </trkpt>
      <trkpt lat="43.71197" lon="7.0125">
        <ele>658.117</ele>
        <time>2013-11-30T08:05:59Z</time>
      </trkpt>
      <trkpt lat="43.71194" lon="7.01266">
        <ele>657.624</ele>
        <time>2013-11-30T08:06:08Z</time>
      </trkpt>
      <trkpt lat="43.71195" lon="7.01281">
        <ele>657.803</ele>
        <time>2013-11-30T08:06:15Z</time>
      </trkpt>
      <trkpt lat="43.71195" lon="7.01294">
        <ele>656.612</ele>
        <time>2013-11-30T08:06:21Z</time>
      </trkpt>
      <trkpt lat="43.71195" lon="7.01312">
        <ele>657.602</ele>
        <time>2013-11-30T08:06:29Z</time>
      </trkpt>
      <trkpt lat="43.71196" lon="7.01326">
        <ele>658.784</ele>
        <time>2013-11-30T08:06:36Z</time>
      </trkpt>
      <trkpt lat="43.71194" lon="7.01342">
        <ele>661.156</ele>
        <time>2013-11-30T08:06:44Z</time>
      </trkpt>
      <trkpt lat="43.71193" lon="7.0135">
        <ele>661.594</ele>
        <time>2013-11-30T08:06:49Z</time>
      </trkpt>
      <trkpt lat="43.71191" lon="7.01362">
        <ele>661.423</ele>
        <time>2013-11-30T08:06:56Z</time>
      </trkpt>
      <trkpt lat="43.71191" lon="7.0137">
        <ele>663.055</ele>
        <time>2013-11-30T08:07:00Z</time>
      </trkpt>
      <trkpt lat="43.71197" lon="7.0137">
        <ele>666.798</ele>
        <time>2013-11-30T08:07:06Z</time>
      </trkpt>
      <trkpt lat="43.71203" lon="7.0136">
        <ele>669.778</ele>
        <time>2013-11-30T08:07:14Z</time>
      </trkpt>
      <trkpt lat="43.71204" lon="7.01356">
        <ele>670.898</ele>
        <time>2013-11-30T08:07:17Z</time>
      </trkpt>
      <trkpt lat="43.71206" lon="7.01348">
        <ele>672.229</ele>
        <time>2013-11-30T08:07:24Z</time>
      </trkpt>
      <trkpt lat="43.71207" lon="7.01347">
        <ele>672.439</ele>
        <time>2013-11-30T08:07:25Z</time>
      </trkpt>
      <trkpt lat="43.71212" lon="7.01336">
        <ele>674.008</ele>
        <time>2013-11-30T08:07:33Z</time>
      </trkpt>
      <trkpt lat="43.71218" lon="7.01326">
        <ele>674.626</ele>
        <time>2013-11-30T08:07:41Z</time>
      </trkpt>
      <trkpt lat="43.71223" lon="7.0131">
        <ele>675.568</ele>
        <time>2013-11-30T08:07:49Z</time>
      </trkpt>
      <trkpt lat="43.71226" lon="7.01298">
        <ele>681.643</ele>
        <time>2013-11-30T08:07:57Z</time>
      </trkpt>
      <trkpt lat="43.71232" lon="7.01292">
        <ele>683.173</ele>
        <time>2013-11-30T08:08:03Z</time>
      </trkpt>
      <trkpt lat="43.71238" lon="7.01284">
        <ele>686.973</ele>
        <time>2013-11-30T08:08:10Z</time>
      </trkpt>
      <trkpt lat="43.71245" lon="7.01275">
        <ele>684.647</ele>
        <time>2013-11-30T08:08:18Z</time>
      </trkpt>
      <trkpt lat="43.71252" lon="7.01272">
        <ele>684.206</ele>
        <time>2013-11-30T08:08:24Z</time>
      </trkpt>
      <trkpt lat="43.71261" lon="7.01268">
        <ele>686.049</ele>
        <time>2013-11-30T08:08:31Z</time>
      </trkpt>
      <trkpt lat="43.7127" lon="7.01265">
        <ele>687.952</ele>
        <time>2013-11-30T08:08:37Z</time>
      </trkpt>
      <trkpt lat="43.71276" lon="7.01263">
        <ele>690.715</ele>
        <time>2013-11-30T08:08:41Z</time>
      </trkpt>
      <trkpt lat="43.71281" lon="7.01255">
        <ele>692.915</ele>
        <time>2013-11-30T08:08:48Z</time>
      </trkpt>
      <trkpt lat="43.71285" lon="7.01251">
        <ele>694.765</ele>
        <time>2013-11-30T08:08:52Z</time>
      </trkpt>
      <trkpt lat="43.71292" lon="7.01237">
        <ele>698.485</ele>
        <time>2013-11-30T08:09:01Z</time>
      </trkpt>
      <trkpt lat="43.71292" lon="7.01236">
        <ele>699.227</ele>
        <time>2013-11-30T08:09:02Z</time>
      </trkpt>
      <trkpt lat="43.71296" lon="7.01229">
        <ele>703.398</ele>
        <time>2013-11-30T08:09:08Z</time>
      </trkpt>
      <trkpt lat="43.71298" lon="7.01224">
        <ele>705.348</ele>
        <time>2013-11-30T08:09:12Z</time>
      </trkpt>
      <trkpt lat="43.71299" lon="7.0121">
        <ele>710.098</ele>
        <time>2013-11-30T08:09:21Z</time>
      </trkpt>
      <trkpt lat="43.71296" lon="7.01196">
        <ele>712.336</ele>
        <time>2013-11-30T08:09:29Z</time>
      </trkpt>
      <trkpt lat="43.71293" lon="7.01183">
        <ele>712.223</ele>
        <time>2013-11-30T08:09:37Z</time>
      </trkpt>
      <trkpt lat="43.71291" lon="7.01177">
        <ele>707.708</ele>
        <time>2013-11-30T08:09:40Z</time>
      </trkpt>
      <trkpt lat="43.71298" lon="7.01166">
        <ele>705.979</ele>
        <time>2013-11-30T08:09:49Z</time>
      </trkpt>
      <trkpt lat="43.71299" lon="7.01165">
        <ele>706.149</ele>
        <time>2013-11-30T08:09:50Z</time>
      </trkpt>
      <trkpt lat="43.71305" lon="7.01171">
        <ele>702.992</ele>
        <time>2013-11-30T08:09:57Z</time>
      </trkpt>
      <trkpt lat="43.71309" lon="7.01182">
        <ele>700.819</ele>
        <time>2013-11-30T08:10:04Z</time>
      </trkpt>
      <trkpt lat="43.7131" lon="7.01185">
        <ele>699.897</ele>
        <time>2013-11-30T08:10:06Z</time>
      </trkpt>
      <trkpt lat="43.71317" lon="7.01196">
        <ele>696.065</ele>
        <time>2013-11-30T08:10:15Z</time>
      </trkpt>
      <trkpt lat="43.71317" lon="7.012">
        <ele>694.031</ele>
        <time>2013-11-30T08:10:18Z</time>
      </trkpt>
      <trkpt lat="43.71322" lon="7.01208">
        <ele>693.644</ele>
        <time>2013-11-30T08:10:25Z</time>
      </trkpt>
      <trkpt lat="43.71322" lon="7.01209">
        <ele>693.083</ele>
        <time>2013-11-30T08:10:26Z</time>
      </trkpt>
      <trkpt lat="43.71325" lon="7.01221">
        <ele>691.317</ele>
        <time>2013-11-30T08:10:34Z</time>
      </trkpt>
      <trkpt lat="43.71326" lon="7.01223">
        <ele>690.946</ele>
        <time>2013-11-30T08:10:36Z</time>
      </trkpt>
      <trkpt lat="43.71327" lon="7.0123">
        <ele>693.049</ele>
        <time>2013-11-30T08:10:42Z</time>
      </trkpt>
      <trkpt lat="43.71327" lon="7.01231">
        <ele>693.57</ele>
        <time>2013-11-30T08:10:43Z</time>
      </trkpt>
      <trkpt lat="43.71328" lon="7.01233">
        <ele>693.89</ele>
        <time>2013-11-30T08:10:45Z</time>
      </trkpt>
      <trkpt lat="43.71326" lon="7.01237">
        <ele>694.048</ele>
        <time>2013-11-30T08:10:49Z</time>
      </trkpt>
      <trkpt lat="43.71329" lon="7.01249">
        <ele>697.602</ele>
        <time>2013-11-30T08:10:55Z</time>
      </trkpt>
      <trkpt lat="43.71328" lon="7.01253">
        <ele>700.912</ele>
        <time>2013-11-30T08:10:59Z</time>
      </trkpt>
      <trkpt lat="43.71328" lon="7.01268">
        <ele>702.896</ele>
        <time>2013-11-30T08:11:08Z</time>
      </trkpt>
      <trkpt lat="43.71327" lon="7.0127">
        <ele>701.745</ele>
        <time>2013-11-30T08:11:10Z</time>
      </trkpt>
      <trkpt lat="43.71324" lon="7.01282">
        <ele>699.234</ele>
        <time>2013-11-30T08:11:18Z</time>
      </trkpt>
      <trkpt lat="43.71322" lon="7.01284">
        <ele>700.268</ele>
        <time>2013-11-30T08:11:20Z</time>
      </trkpt>
      <trkpt lat="43.71314" lon="7.01297">
        <ele>703.748</ele>
        <time>2013-11-30T08:11:30Z</time>
      </trkpt>
      <trkpt lat="43.71308" lon="7.01304">
        <ele>705.107</ele>
        <time>2013-11-30T08:11:36Z</time>
      </trkpt>
      <trkpt lat="43.71299" lon="7.01316">
        <ele>704.903</ele>
        <time>2013-11-30T08:11:44Z</time>
      </trkpt>
      <trkpt lat="43.71294" lon="7.01327">
        <ele>704.842</ele>
        <time>2013-11-30T08:11:50Z</time>
      </trkpt>
      <trkpt lat="43.71291" lon="7.01342">
        <ele>705.983</ele>
        <time>2013-11-30T08:11:58Z</time>
      </trkpt>
      <trkpt lat="43.71295" lon="7.01356">
        <ele>709.267</ele>
        <time>2013-11-30T08:12:06Z</time>
      </trkpt>
      <trkpt lat="43.71295" lon="7.0136">
        <ele>709.526</ele>
        <time>2013-11-30T08:12:08Z</time>
      </trkpt>
      <trkpt lat="43.71294" lon="7.01372">
        <ele>710.965</ele>
        <time>2013-11-30T08:12:15Z</time>
      </trkpt>
      <trkpt lat="43.71295" lon="7.01386">
        <ele>712.224</ele>
        <time>2013-11-30T08:12:22Z</time>
      </trkpt>
      <trkpt lat="43.71291" lon="7.01399">
        <ele>713.851</ele>
        <time>2013-11-30T08:12:30Z</time>
      </trkpt>
      <trkpt lat="43.71294" lon="7.01411">
        <ele>714.944</ele>
        <time>2013-11-30T08:12:37Z</time>
      </trkpt>
      <trkpt lat="43.71295" lon="7.01413">
        <ele>715.184</ele>
        <time>2013-11-30T08:12:38Z</time>
      </trkpt>
      <trkpt lat="43.71302" lon="7.0141">
        <ele>715.743</ele>
        <time>2013-11-30T08:12:44Z</time>
      </trkpt>
      <trkpt lat="43.71304" lon="7.01407">
        <ele>716.144</ele>
        <time>2013-11-30T08:12:46Z</time>
      </trkpt>
      <trkpt lat="43.7131" lon="7.0139">
        <ele>720.779</ele>
        <time>2013-11-30T08:12:56Z</time>
      </trkpt>
      <trkpt lat="43.71312" lon="7.01377">
        <ele>724.61</ele>
        <time>2013-11-30T08:13:03Z</time>
      </trkpt>
      <trkpt lat="43.71317" lon="7.01363">
        <ele>732.013</ele>
        <time>2013-11-30T08:13:12Z</time>
      </trkpt>
      <trkpt lat="43.71322" lon="7.01351">
        <ele>737.584</ele>
        <time>2013-11-30T08:13:20Z</time>
      </trkpt>
      <trkpt lat="43.71331" lon="7.01342">
        <ele>743.426</ele>
        <time>2013-11-30T08:13:29Z</time>
      </trkpt>
      <trkpt lat="43.71341" lon="7.01336">
        <ele>746.484</ele>
        <time>2013-11-30T08:13:38Z</time>
      </trkpt>
      <trkpt lat="43.71352" lon="7.01326">
        <ele>748.772</ele>
        <time>2013-11-30T08:13:48Z</time>
      </trkpt>
      <trkpt lat="43.71359" lon="7.01315">
        <ele>750.402</ele>
        <time>2013-11-30T08:13:57Z</time>
      </trkpt>
      <trkpt lat="43.71367" lon="7.01303">
        <ele>751.742</ele>
        <time>2013-11-30T08:14:05Z</time>
      </trkpt>
      <trkpt lat="43.71369" lon="7.0129">
        <ele>753.36</ele>
        <time>2013-11-30T08:14:13Z</time>
      </trkpt>
      <trkpt lat="43.71373" lon="7.01276">
        <ele>754.081</ele>
        <time>2013-11-30T08:14:22Z</time>
      </trkpt>
      <trkpt lat="43.71375" lon="7.01268">
        <ele>753.498</ele>
        <time>2013-11-30T08:14:27Z</time>
      </trkpt>
      <trkpt lat="43.71379" lon="7.01251">
        <ele>754.177</ele>
        <time>2013-11-30T08:14:37Z</time>
      </trkpt>
      <trkpt lat="43.71382" lon="7.01246">
        <ele>755.248</ele>
        <time>2013-11-30T08:14:41Z</time>
      </trkpt>
      <trkpt lat="43.71385" lon="7.01233">
        <ele>757.758</ele>
        <time>2013-11-30T08:14:49Z</time>
      </trkpt>
      <trkpt lat="43.71388" lon="7.01218">
        <ele>760.13</ele>
        <time>2013-11-30T08:14:58Z</time>
      </trkpt>
      <trkpt lat="43.71391" lon="7.01203">
        <ele>762.9</ele>
        <time>2013-11-30T08:15:07Z</time>
      </trkpt>
      <trkpt lat="43.71392" lon="7.01201">
        <ele>763.279</ele>
        <time>2013-11-30T08:15:08Z</time>
      </trkpt>
      <trkpt lat="43.71397" lon="7.01193">
        <ele>762.976</ele>
        <time>2013-11-30T08:15:15Z</time>
      </trkpt>
      <trkpt lat="43.714" lon="7.01192">
        <ele>762.636</ele>
        <time>2013-11-30T08:15:17Z</time>
      </trkpt>
      <trkpt lat="43.71405" lon="7.01183">
        <ele>764.438</ele>
        <time>2013-11-30T08:15:24Z</time>
      </trkpt>
      <trkpt lat="43.71411" lon="7.0118">
        <ele>761.763</ele>
        <time>2013-11-30T08:15:31Z</time>
      </trkpt>
      <trkpt lat="43.71418" lon="7.0118">
        <ele>760.184</ele>
        <time>2013-11-30T08:15:38Z</time>
      </trkpt>
      <trkpt lat="43.71419" lon="7.01181">
        <ele>760.014</ele>
        <time>2013-11-30T08:15:39Z</time>
      </trkpt>
      <trkpt lat="43.71423" lon="7.01185">
        <ele>759.234</ele>
        <time>2013-11-30T08:15:43Z</time>
      </trkpt>
      <trkpt lat="43.71433" lon="7.01191">
        <ele>757.164</ele>
        <time>2013-11-30T08:15:51Z</time>
      </trkpt>
      <trkpt lat="43.71443" lon="7.01191">
        <ele>756.995</ele>
        <time>2013-11-30T08:15:59Z</time>
      </trkpt>
      <trkpt lat="43.71455" lon="7.0119">
        <ele>758.415</ele>
        <time>2013-11-30T08:16:08Z</time>
      </trkpt>
      <trkpt lat="43.71469" lon="7.01184">
        <ele>761.407</ele>
        <time>2013-11-30T08:16:18Z</time>
      </trkpt>
      <trkpt lat="43.71478" lon="7.01183">
        <ele>762.987</ele>
        <time>2013-11-30T08:16:25Z</time>
      </trkpt>
      <trkpt lat="43.71488" lon="7.01179">
        <ele>764.797</ele>
        <time>2013-11-30T08:16:33Z</time>
      </trkpt>
      <trkpt lat="43.71492" lon="7.01179">
        <ele>765.496</ele>
        <time>2013-11-30T08:16:36Z</time>
      </trkpt>
      <trkpt lat="43.715" lon="7.01174">
        <ele>769.141</ele>
        <time>2013-11-30T08:16:43Z</time>
      </trkpt>
      <trkpt lat="43.71502" lon="7.01175">
        <ele>769.439</ele>
        <time>2013-11-30T08:16:45Z</time>
      </trkpt>
      <trkpt lat="43.71508" lon="7.01171">
        <ele>772.979</ele>
        <time>2013-11-30T08:16:51Z</time>
      </trkpt>
      <trkpt lat="43.71515" lon="7.01168">
        <ele>775.451</ele>
        <time>2013-11-30T08:16:57Z</time>
      </trkpt>
      <trkpt lat="43.71525" lon="7.01171">
        <ele>774.976</ele>
        <time>2013-11-30T08:17:05Z</time>
      </trkpt>
      <trkpt lat="43.71528" lon="7.01176">
        <ele>773.704</ele>
        <time>2013-11-30T08:17:09Z</time>
      </trkpt>
      <trkpt lat="43.7153" lon="7.01175">
        <ele>773.865</ele>
        <time>2013-11-30T08:17:11Z</time>
      </trkpt>
      <trkpt lat="43.71535" lon="7.01183">
        <ele>774.014</ele>
        <time>2013-11-30T08:17:17Z</time>
      </trkpt>
      <trkpt lat="43.71542" lon="7.0119">
        <ele>774.194</ele>
        <time>2013-11-30T08:17:24Z</time>
      </trkpt>
      <trkpt lat="43.71545" lon="7.01196">
        <ele>774.284</ele>
        <time>2013-11-30T08:17:29Z</time>
      </trkpt>
      <trkpt lat="43.71555" lon="7.01204">
        <ele>775.085</ele>
        <time>2013-11-30T08:17:38Z</time>
      </trkpt>
      <trkpt lat="43.71564" lon="7.0121">
        <ele>778.281</ele>
        <time>2013-11-30T08:17:46Z</time>
      </trkpt>
      <trkpt lat="43.71571" lon="7.01209">
        <ele>781.623</ele>
        <time>2013-11-30T08:17:52Z</time>
      </trkpt>
      <trkpt lat="43.7158" lon="7.01207">
        <ele>785.232</ele>
        <time>2013-11-30T08:17:59Z</time>
      </trkpt>
      <trkpt lat="43.71587" lon="7.01206">
        <ele>789.624</ele>
        <time>2013-11-30T08:18:05Z</time>
      </trkpt>
      <trkpt lat="43.7159" lon="7.01204">
        <ele>792.036</ele>
        <time>2013-11-30T08:18:08Z</time>
      </trkpt>
      <trkpt lat="43.716" lon="7.012">
        <ele>793.741</ele>
        <time>2013-11-30T08:18:16Z</time>
      </trkpt>
      <trkpt lat="43.71607" lon="7.01206">
        <ele>791.944</ele>
        <time>2013-11-30T08:18:23Z</time>
      </trkpt>
      <trkpt lat="43.71608" lon="7.01208">
        <ele>791.553</ele>
        <time>2013-11-30T08:18:24Z</time>
      </trkpt>
      <trkpt lat="43.7161" lon="7.01221">
        <ele>790.013</ele>
        <time>2013-11-30T08:18:32Z</time>
      </trkpt>
      <trkpt lat="43.71612" lon="7.01224">
        <ele>788.353</ele>
        <time>2013-11-30T08:18:35Z</time>
      </trkpt>
      <trkpt lat="43.71613" lon="7.0123">
        <ele>787.473</ele>
        <time>2013-11-30T08:18:39Z</time>
      </trkpt>
      <trkpt lat="43.71614" lon="7.01246">
        <ele>786.784</ele>
        <time>2013-11-30T08:18:48Z</time>
      </trkpt>
      <trkpt lat="43.71617" lon="7.01256">
        <ele>787.045</ele>
        <time>2013-11-30T08:18:54Z</time>
      </trkpt>
      <trkpt lat="43.71618" lon="7.01273">
        <ele>789.253</ele>
        <time>2013-11-30T08:19:03Z</time>
      </trkpt>
      <trkpt lat="43.7162" lon="7.01292">
        <ele>790.564</ele>
        <time>2013-11-30T08:19:13Z</time>
      </trkpt>
      <trkpt lat="43.71622" lon="7.01296">
        <ele>791.085</ele>
        <time>2013-11-30T08:19:16Z</time>
      </trkpt>
      <trkpt lat="43.71623" lon="7.01313">
        <ele>791.625</ele>
        <time>2013-11-30T08:19:25Z</time>
      </trkpt>
      <trkpt lat="43.71627" lon="7.01325">
        <ele>793.735</ele>
        <time>2013-11-30T08:19:32Z</time>
      </trkpt>
      <trkpt lat="43.71626" lon="7.01336">
        <ele>796.025</ele>
        <time>2013-11-30T08:19:38Z</time>
      </trkpt>
      <trkpt lat="43.71628" lon="7.0135">
        <ele>796.714</ele>
        <time>2013-11-30T08:19:45Z</time>
      </trkpt>
      <trkpt lat="43.71629" lon="7.01359">
        <ele>798.156</ele>
        <time>2013-11-30T08:19:50Z</time>
      </trkpt>
      <trkpt lat="43.71628" lon="7.01371">
        <ele>798.935</ele>
        <time>2013-11-30T08:19:57Z</time>
      </trkpt>
      <trkpt lat="43.71628" lon="7.01375">
        <ele>799.666</ele>
        <time>2013-11-30T08:19:59Z</time>
      </trkpt>
      <trkpt lat="43.7163" lon="7.01391">
        <ele>800.447</ele>
        <time>2013-11-30T08:20:08Z</time>
      </trkpt>
      <trkpt lat="43.7163" lon="7.01393">
        <ele>800.958</ele>
        <time>2013-11-30T08:20:09Z</time>
      </trkpt>
      <trkpt lat="43.71629" lon="7.01403">
        <ele>802.716</ele>
        <time>2013-11-30T08:20:15Z</time>
      </trkpt>
      <trkpt lat="43.71629" lon="7.01406">
        <ele>803.047</ele>
        <time>2013-11-30T08:20:17Z</time>
      </trkpt>
      <trkpt lat="43.71637" lon="7.01421">
        <ele>803.366</ele>
        <time>2013-11-30T08:20:26Z</time>
      </trkpt>
      <trkpt lat="43.71641" lon="7.01432">
        <ele>803.836</ele>
        <time>2013-11-30T08:20:33Z</time>
      </trkpt>
      <trkpt lat="43.71648" lon="7.01445">
        <ele>805.816</ele>
        <time>2013-11-30T08:20:40Z</time>
      </trkpt>
      <trkpt lat="43.71658" lon="7.01464">
        <ele>808.215</ele>
        <time>2013-11-30T08:20:51Z</time>
      </trkpt>
      <trkpt lat="43.71666" lon="7.0148">
        <ele>809.825</ele>
        <time>2013-11-30T08:21:00Z</time>
      </trkpt>
      <trkpt lat="43.71671" lon="7.01496">
        <ele>811.554</ele>
        <time>2013-11-30T08:21:08Z</time>
      </trkpt>
      <trkpt lat="43.71677" lon="7.01509">
        <ele>812.943</ele>
        <time>2013-11-30T08:21:16Z</time>
      </trkpt>
      <trkpt lat="43.7168" lon="7.0152">
        <ele>813.171</ele>
        <time>2013-11-30T08:21:23Z</time>
      </trkpt>
      <trkpt lat="43.71681" lon="7.01526">
        <ele>816.316</ele>
        <time>2013-11-30T08:21:31Z</time>
      </trkpt>
      <trkpt lat="43.71681" lon="7.01528">
        <ele>817.784</ele>
        <time>2013-11-30T08:21:40Z</time>
      </trkpt>
      <trkpt lat="43.71682" lon="7.01527">
        <ele>811.999</ele>
        <time>2013-11-30T08:21:58Z</time>
      </trkpt>
      <trkpt lat="43.71688" lon="7.0153">
        <ele>814.496</ele>
        <time>2013-11-30T08:22:05Z</time>
      </trkpt>
      <trkpt lat="43.71692" lon="7.01539">
        <ele>814.201</ele>
        <time>2013-11-30T08:22:11Z</time>
      </trkpt>
      <trkpt lat="43.71693" lon="7.01542">
        <ele>814.751</ele>
        <time>2013-11-30T08:22:13Z</time>
      </trkpt>
      <trkpt lat="43.71696" lon="7.01545">
        <ele>816.194</ele>
        <time>2013-11-30T08:22:15Z</time>
      </trkpt>
      <trkpt lat="43.71702" lon="7.01548">
        <ele>820.802</ele>
        <time>2013-11-30T08:22:20Z</time>
      </trkpt>
      <trkpt lat="43.7171" lon="7.01553">
        <ele>826.997</ele>
        <time>2013-11-30T08:22:27Z</time>
      </trkpt>
      <trkpt lat="43.71718" lon="7.01564">
        <ele>829.523</ele>
        <time>2013-11-30T08:22:34Z</time>
      </trkpt>
      <trkpt lat="43.71727" lon="7.01567">
        <ele>834.79</ele>
        <time>2013-11-30T08:22:39Z</time>
      </trkpt>
      <trkpt lat="43.71735" lon="7.0157">
        <ele>837.468</ele>
        <time>2013-11-30T08:22:44Z</time>
      </trkpt>
      <trkpt lat="43.71745" lon="7.01575">
        <ele>840.75</ele>
        <time>2013-11-30T08:22:53Z</time>
      </trkpt>
      <trkpt lat="43.71752" lon="7.0158">
        <ele>844.668</ele>
        <time>2013-11-30T08:23:01Z</time>
      </trkpt>
      <trkpt lat="43.71763" lon="7.01584">
        <ele>844.3</ele>
        <time>2013-11-30T08:23:10Z</time>
      </trkpt>
      <trkpt lat="43.7177" lon="7.01588">
        <ele>846.47</ele>
        <time>2013-11-30T08:23:17Z</time>
      </trkpt>
      <trkpt lat="43.71782" lon="7.01589">
        <ele>844.537</ele>
        <time>2013-11-30T08:23:27Z</time>
      </trkpt>
      <trkpt lat="43.71794" lon="7.01593">
        <ele>843.956</ele>
        <time>2013-11-30T08:23:38Z</time>
      </trkpt>
      <trkpt lat="43.71803" lon="7.01597">
        <ele>844.339</ele>
        <time>2013-11-30T08:23:47Z</time>
      </trkpt>
      <trkpt lat="43.71806" lon="7.01599">
        <ele>844.529</ele>
        <time>2013-11-30T08:23:50Z</time>
      </trkpt>
      <trkpt lat="43.71818" lon="7.01605">
        <ele>845.188</ele>
        <time>2013-11-30T08:24:00Z</time>
      </trkpt>
      <trkpt lat="43.71827" lon="7.01609">
        <ele>845.077</ele>
        <time>2013-11-30T08:24:07Z</time>
      </trkpt>
      <trkpt lat="43.71835" lon="7.01615">
        <ele>844.615</ele>
        <time>2013-11-30T08:24:15Z</time>
      </trkpt>
      <trkpt lat="43.71844" lon="7.01621">
        <ele>846.796</ele>
        <time>2013-11-30T08:24:22Z</time>
      </trkpt>
      <trkpt lat="43.71852" lon="7.01627">
        <ele>849.046</ele>
        <time>2013-11-30T08:24:30Z</time>
      </trkpt>
      <trkpt lat="43.71861" lon="7.01633">
        <ele>850.456</ele>
        <time>2013-11-30T08:24:38Z</time>
      </trkpt>
      <trkpt lat="43.71871" lon="7.0164">
        <ele>852.206</ele>
        <time>2013-11-30T08:24:47Z</time>
      </trkpt>
      <trkpt lat="43.71881" lon="7.01648">
        <ele>850.075</ele>
        <time>2013-11-30T08:24:56Z</time>
      </trkpt>
      <trkpt lat="43.71889" lon="7.01654">
        <ele>848.807</ele>
        <time>2013-11-30T08:25:03Z</time>
      </trkpt>
      <trkpt lat="43.71898" lon="7.0166">
        <ele>849.006</ele>
        <time>2013-11-30T08:25:11Z</time>
      </trkpt>
      <trkpt lat="43.71908" lon="7.01667">
        <ele>852.279</ele>
        <time>2013-11-30T08:25:19Z</time>
      </trkpt>
      <trkpt lat="43.71919" lon="7.01678">
        <ele>852.907</ele>
        <time>2013-11-30T08:25:28Z</time>
      </trkpt>
      <trkpt lat="43.71927" lon="7.01675">
        <ele>854.549</ele>
        <time>2013-11-30T08:25:35Z</time>
      </trkpt>
      <trkpt lat="43.71929" lon="7.01674">
        <ele>855.249</ele>
        <time>2013-11-30T08:25:36Z</time>
      </trkpt>
      <trkpt lat="43.7193" lon="7.01661">
        <ele>858.181</ele>
        <time>2013-11-30T08:25:43Z</time>
      </trkpt>
      <trkpt lat="43.71932" lon="7.01647">
        <ele>863.014</ele>
        <time>2013-11-30T08:25:51Z</time>
      </trkpt>
      <trkpt lat="43.71933" lon="7.01633">
        <ele>867.297</ele>
        <time>2013-11-30T08:25:58Z</time>
      </trkpt>
      <trkpt lat="43.71933" lon="7.01615">
        <ele>874.671</ele>
        <time>2013-11-30T08:26:07Z</time>
      </trkpt>
      <trkpt lat="43.71932" lon="7.01601">
        <ele>873.183</ele>
        <time>2013-11-30T08:26:13Z</time>
      </trkpt>
      <trkpt lat="43.71929" lon="7.01584">
        <ele>867.695</ele>
        <time>2013-11-30T08:26:21Z</time>
      </trkpt>
      <trkpt lat="43.71926" lon="7.01569">
        <ele>868.078</ele>
        <time>2013-11-30T08:26:28Z</time>
      </trkpt>
      <trkpt lat="43.71923" lon="7.01558">
        <ele>867.557</ele>
        <time>2013-11-30T08:26:34Z</time>
      </trkpt>
      <trkpt lat="43.7192" lon="7.01544">
        <ele>867.377</ele>
        <time>2013-11-30T08:26:41Z</time>
      </trkpt>
      <trkpt lat="43.71919" lon="7.01532">
        <ele>864.135</ele>
        <time>2013-11-30T08:26:47Z</time>
      </trkpt>
      <trkpt lat="43.71925" lon="7.01522">
        <ele>864.185</ele>
        <time>2013-11-30T08:26:54Z</time>
      </trkpt>
      <trkpt lat="43.71937" lon="7.01519">
        <ele>866.971</ele>
        <time>2013-11-30T08:27:02Z</time>
      </trkpt>
      <trkpt lat="43.71947" lon="7.01523">
        <ele>864.266</ele>
        <time>2013-11-30T08:27:08Z</time>
      </trkpt>
      <trkpt lat="43.71949" lon="7.01523">
        <ele>864.035</ele>
        <time>2013-11-30T08:27:09Z</time>
      </trkpt>
      <trkpt lat="43.71956" lon="7.01522">
        <ele>864.704</ele>
        <time>2013-11-30T08:27:14Z</time>
      </trkpt>
      <trkpt lat="43.7196" lon="7.01517">
        <ele>867.677</ele>
        <time>2013-11-30T08:27:21Z</time>
      </trkpt>
      <trkpt lat="43.71963" lon="7.01516">
        <ele>869.627</ele>
        <time>2013-11-30T08:27:27Z</time>
      </trkpt>
      <trkpt lat="43.71966" lon="7.0151">
        <ele>871.557</ele>
        <time>2013-11-30T08:27:33Z</time>
      </trkpt>
      <trkpt lat="43.71967" lon="7.01507">
        <ele>871.676</ele>
        <time>2013-11-30T08:27:36Z</time>
      </trkpt>
      <trkpt lat="43.71968" lon="7.01504">
        <ele>870.432</ele>
        <time>2013-11-30T08:27:44Z</time>
      </trkpt>
      <trkpt lat="43.71972" lon="7.01497">
        <ele>872.484</ele>
        <time>2013-11-30T08:27:53Z</time>
      </trkpt>
      <trkpt lat="43.71976" lon="7.01483">
        <ele>874.28</ele>
        <time>2013-11-30T08:27:58Z</time>
      </trkpt>
      <trkpt lat="43.71985" lon="7.01459">
        <ele>875.654</ele>
        <time>2013-11-30T08:28:05Z</time>
      </trkpt>
      <trkpt lat="43.71991" lon="7.01437">
        <ele>876.966</ele>
        <time>2013-11-30T08:28:11Z</time>
      </trkpt>
      <trkpt lat="43.71993" lon="7.01406">
        <ele>874.374</ele>
        <time>2013-11-30T08:28:19Z</time>
      </trkpt>
      <trkpt lat="43.71988" lon="7.01361">
        <ele>872.775</ele>
        <time>2013-11-30T08:28:30Z</time>
      </trkpt>
      <trkpt lat="43.71981" lon="7.0132">
        <ele>872.526</ele>
        <time>2013-11-30T08:28:39Z</time>
      </trkpt>
      <trkpt lat="43.71973" lon="7.01303">
        <ele>871.864</ele>
        <time>2013-11-30T08:28:44Z</time>
      </trkpt>
      <trkpt lat="43.71967" lon="7.01282">
        <ele>871.624</ele>
        <time>2013-11-30T08:28:50Z</time>
      </trkpt>
      <trkpt lat="43.71971" lon="7.01262">
        <ele>872.444</ele>
        <time>2013-11-30T08:28:57Z</time>
      </trkpt>
      <trkpt lat="43.71982" lon="7.01241">
        <ele>874.626</ele>
        <time>2013-11-30T08:29:04Z</time>
      </trkpt>
      <trkpt lat="43.71992" lon="7.01221">
        <ele>876.797</ele>
        <time>2013-11-30T08:29:11Z</time>
      </trkpt>
      <trkpt lat="43.72001" lon="7.01192">
        <ele>879.417</ele>
        <time>2013-11-30T08:29:20Z</time>
      </trkpt>
      <trkpt lat="43.72011" lon="7.01156">
        <ele>882.917</ele>
        <time>2013-11-30T08:29:30Z</time>
      </trkpt>
      <trkpt lat="43.72016" lon="7.01131">
        <ele>883.817</ele>
        <time>2013-11-30T08:29:36Z</time>
      </trkpt>
      <trkpt lat="43.72021" lon="7.01108">
        <ele>884.836</ele>
        <time>2013-11-30T08:29:42Z</time>
      </trkpt>
      <trkpt lat="43.72031" lon="7.01082">
        <ele>886.085</ele>
        <time>2013-11-30T08:29:50Z</time>
      </trkpt>
      <trkpt lat="43.72042" lon="7.01079">
        <ele>881.32</ele>
        <time>2013-11-30T08:29:54Z</time>
      </trkpt>
      <trkpt lat="43.72054" lon="7.01092">
        <ele>876.619</ele>
        <time>2013-11-30T08:29:59Z</time>
      </trkpt>
      <trkpt lat="43.72057" lon="7.01117">
        <ele>874.362</ele>
        <time>2013-11-30T08:30:05Z</time>
      </trkpt>
      <trkpt lat="43.7206" lon="7.01134">
        <ele>873.874</ele>
        <time>2013-11-30T08:30:11Z</time>
      </trkpt>
      <trkpt lat="43.72067" lon="7.01152">
        <ele>875.917</ele>
        <time>2013-11-30T08:30:19Z</time>
      </trkpt>
      <trkpt lat="43.72074" lon="7.01162">
        <ele>877.076</ele>
        <time>2013-11-30T08:30:25Z</time>
      </trkpt>
      <trkpt lat="43.72084" lon="7.01176">
        <ele>877.156</ele>
        <time>2013-11-30T08:30:33Z</time>
      </trkpt>
      <trkpt lat="43.72094" lon="7.01191">
        <ele>878.207</ele>
        <time>2013-11-30T08:30:41Z</time>
      </trkpt>
      <trkpt lat="43.72102" lon="7.01201">
        <ele>878.886</ele>
        <time>2013-11-30T08:30:47Z</time>
      </trkpt>
      <trkpt lat="43.72113" lon="7.01212">
        <ele>880.177</ele>
        <time>2013-11-30T08:30:54Z</time>
      </trkpt>
      <trkpt lat="43.72125" lon="7.01223">
        <ele>881.808</ele>
        <time>2013-11-30T08:31:02Z</time>
      </trkpt>
      <trkpt lat="43.72138" lon="7.01228">
        <ele>884.597</ele>
        <time>2013-11-30T08:31:09Z</time>
      </trkpt>
      <trkpt lat="43.72156" lon="7.01225">
        <ele>883.762</ele>
        <time>2013-11-30T08:31:17Z</time>
      </trkpt>
      <trkpt lat="43.72171" lon="7.01219">
        <ele>886.748</ele>
        <time>2013-11-30T08:31:24Z</time>
      </trkpt>
      <trkpt lat="43.72185" lon="7.01215">
        <ele>891.752</ele>
        <time>2013-11-30T08:31:30Z</time>
      </trkpt>
      <trkpt lat="43.72201" lon="7.01218">
        <ele>895.33</ele>
        <time>2013-11-30T08:31:36Z</time>
      </trkpt>
      <trkpt lat="43.72216" lon="7.0122">
        <ele>897.44</ele>
        <time>2013-11-30T08:31:43Z</time>
      </trkpt>
      <trkpt lat="43.72223" lon="7.01233">
        <ele>893.253</ele>
        <time>2013-11-30T08:31:49Z</time>
      </trkpt>
      <trkpt lat="43.72221" lon="7.01253">
        <ele>889.583</ele>
        <time>2013-11-30T08:31:57Z</time>
      </trkpt>
      <trkpt lat="43.72218" lon="7.01276">
        <ele>887.634</ele>
        <time>2013-11-30T08:32:06Z</time>
      </trkpt>
      <trkpt lat="43.72215" lon="7.01301">
        <ele>887.075</ele>
        <time>2013-11-30T08:32:16Z</time>
      </trkpt>
      <trkpt lat="43.72211" lon="7.01318">
        <ele>887.545</ele>
        <time>2013-11-30T08:32:23Z</time>
      </trkpt>
      <trkpt lat="43.72208" lon="7.0134">
        <ele>889.195</ele>
        <time>2013-11-30T08:32:32Z</time>
      </trkpt>
      <trkpt lat="43.72209" lon="7.01358">
        <ele>889.185</ele>
        <time>2013-11-30T08:32:40Z</time>
      </trkpt>
      <trkpt lat="43.72208" lon="7.01374">
        <ele>890.464</ele>
        <time>2013-11-30T08:32:48Z</time>
      </trkpt>
      <trkpt lat="43.72207" lon="7.01401">
        <ele>891.215</ele>
        <time>2013-11-30T08:32:59Z</time>
      </trkpt>
      <trkpt lat="43.72209" lon="7.01421">
        <ele>893.988</ele>
        <time>2013-11-30T08:33:08Z</time>
      </trkpt>
      <trkpt lat="43.72214" lon="7.01444">
        <ele>896.127</ele>
        <time>2013-11-30T08:33:18Z</time>
      </trkpt>
      <trkpt lat="43.72215" lon="7.01464">
        <ele>897.818</ele>
        <time>2013-11-30T08:33:27Z</time>
      </trkpt>
      <trkpt lat="43.72215" lon="7.01466">
        <ele>898.197</ele>
        <time>2013-11-30T08:33:28Z</time>
      </trkpt>
      <trkpt lat="43.72223" lon="7.01469">
        <ele>900.409</ele>
        <time>2013-11-30T08:33:33Z</time>
      </trkpt>
      <trkpt lat="43.72224" lon="7.01467">
        <ele>901.089</ele>
        <time>2013-11-30T08:33:34Z</time>
      </trkpt>
      <trkpt lat="43.72235" lon="7.01455">
        <ele>907.835</ele>
        <time>2013-11-30T08:33:43Z</time>
      </trkpt>
      <trkpt lat="43.72237" lon="7.01446">
        <ele>910.494</ele>
        <time>2013-11-30T08:33:47Z</time>
      </trkpt>
      <trkpt lat="43.72246" lon="7.01433">
        <ele>917.668</ele>
        <time>2013-11-30T08:33:57Z</time>
      </trkpt>
      <trkpt lat="43.72257" lon="7.01428">
        <ele>922.217</ele>
        <time>2013-11-30T08:34:04Z</time>
      </trkpt>
      <trkpt lat="43.72269" lon="7.01422">
        <ele>925.254</ele>
        <time>2013-11-30T08:34:11Z</time>
      </trkpt>
      <trkpt lat="43.7228" lon="7.01415">
        <ele>927.302</ele>
        <time>2013-11-30T08:34:18Z</time>
      </trkpt>
      <trkpt lat="43.72295" lon="7.0141">
        <ele>930.229</ele>
        <time>2013-11-30T08:34:27Z</time>
      </trkpt>
      <trkpt lat="43.72305" lon="7.01407">
        <ele>926.434</ele>
        <time>2013-11-30T08:34:34Z</time>
      </trkpt>
      <trkpt lat="43.72319" lon="7.0141">
        <ele>922.175</ele>
        <time>2013-11-30T08:34:43Z</time>
      </trkpt>
      <trkpt lat="43.72328" lon="7.01417">
        <ele>920.097</ele>
        <time>2013-11-30T08:34:51Z</time>
      </trkpt>
      <trkpt lat="43.72335" lon="7.01423">
        <ele>921.22</ele>
        <time>2013-11-30T08:34:58Z</time>
      </trkpt>
      <trkpt lat="43.72338" lon="7.01427">
        <ele>922.19</ele>
        <time>2013-11-30T08:35:02Z</time>
      </trkpt>
      <trkpt lat="43.72346" lon="7.01436">
        <ele>924.698</ele>
        <time>2013-11-30T08:35:10Z</time>
      </trkpt>
      <trkpt lat="43.72347" lon="7.01444">
        <ele>924.676</ele>
        <time>2013-11-30T08:35:16Z</time>
      </trkpt>
      <trkpt lat="43.72348" lon="7.01445">
        <ele>924.776</ele>
        <time>2013-11-30T08:35:17Z</time>
      </trkpt>
      <trkpt lat="43.72349" lon="7.01448">
        <ele>925.797</ele>
        <time>2013-11-30T08:35:20Z</time>
      </trkpt>
      <trkpt lat="43.72348" lon="7.01461">
        <ele>929.099</ele>
        <time>2013-11-30T08:35:29Z</time>
      </trkpt>
      <trkpt lat="43.72347" lon="7.01464">
        <ele>929.297</ele>
        <time>2013-11-30T08:35:31Z</time>
      </trkpt>
      <trkpt lat="43.72346" lon="7.0147">
        <ele>929.995</ele>
        <time>2013-11-30T08:35:35Z</time>
      </trkpt>
      <trkpt lat="43.72349" lon="7.0148">
        <ele>929.162</ele>
        <time>2013-11-30T08:35:42Z</time>
      </trkpt>
      <trkpt lat="43.72349" lon="7.01489">
        <ele>928.334</ele>
        <time>2013-11-30T08:35:48Z</time>
      </trkpt>
      <trkpt lat="43.72351" lon="7.01491">
        <ele>928.504</ele>
        <time>2013-11-30T08:35:50Z</time>
      </trkpt>
      <trkpt lat="43.72353" lon="7.01499">
        <ele>929.436</ele>
        <time>2013-11-30T08:35:56Z</time>
      </trkpt>
      <trkpt lat="43.72355" lon="7.01511">
        <ele>931.158</ele>
        <time>2013-11-30T08:36:04Z</time>
      </trkpt>
      <trkpt lat="43.72358" lon="7.01525">
        <ele>933.13</ele>
        <time>2013-11-30T08:36:11Z</time>
      </trkpt>
      <trkpt lat="43.72359" lon="7.01529">
        <ele>933.457</ele>
        <time>2013-11-30T08:36:13Z</time>
      </trkpt>
      <trkpt lat="43.72358" lon="7.01536">
        <ele>933.644</ele>
        <time>2013-11-30T08:36:17Z</time>
      </trkpt>
      <trkpt lat="43.72356" lon="7.01554">
        <ele>934.081</ele>
        <time>2013-11-30T08:36:25Z</time>
      </trkpt>
      <trkpt lat="43.72354" lon="7.01567">
        <ele>932.421</ele>
        <time>2013-11-30T08:36:32Z</time>
      </trkpt>
      <trkpt lat="43.72353" lon="7.01576">
        <ele>931.235</ele>
        <time>2013-11-30T08:36:37Z</time>
      </trkpt>
      <trkpt lat="43.72349" lon="7.01587">
        <ele>932.339</ele>
        <time>2013-11-30T08:36:45Z</time>
      </trkpt>
      <trkpt lat="43.72349" lon="7.016">
        <ele>935.315</ele>
        <time>2013-11-30T08:36:52Z</time>
      </trkpt>
      <trkpt lat="43.72347" lon="7.0161">
        <ele>938.088</ele>
        <time>2013-11-30T08:36:58Z</time>
      </trkpt>
      <trkpt lat="43.72348" lon="7.01623">
        <ele>939.184</ele>
        <time>2013-11-30T08:37:06Z</time>
      </trkpt>
      <trkpt lat="43.72347" lon="7.01637">
        <ele>941.005</ele>
        <time>2013-11-30T08:37:13Z</time>
      </trkpt>
      <trkpt lat="43.72346" lon="7.01648">
        <ele>943.305</ele>
        <time>2013-11-30T08:37:19Z</time>
      </trkpt>
      <trkpt lat="43.72342" lon="7.01661">
        <ele>943.111</ele>
        <time>2013-11-30T08:37:25Z</time>
      </trkpt>
      <trkpt lat="43.72342" lon="7.01667">
        <ele>942.201</ele>
        <time>2013-11-30T08:37:28Z</time>
      </trkpt>
      <trkpt lat="43.72342" lon="7.01674">
        <ele>942.802</ele>
        <time>2013-11-30T08:37:32Z</time>
      </trkpt>
      <trkpt lat="43.72338" lon="7.01689">
        <ele>938.614</ele>
        <time>2013-11-30T08:37:39Z</time>
      </trkpt>
      <trkpt lat="43.72333" lon="7.01702">
        <ele>940.65</ele>
        <time>2013-11-30T08:37:46Z</time>
      </trkpt>
      <trkpt lat="43.7233" lon="7.01708">
        <ele>946.018</ele>
        <time>2013-11-30T08:37:51Z</time>
      </trkpt>
      <trkpt lat="43.7233" lon="7.01718">
        <ele>946.256</ele>
        <time>2013-11-30T08:37:56Z</time>
      </trkpt>
      <trkpt lat="43.72328" lon="7.01723">
        <ele>950.481</ele>
        <time>2013-11-30T08:38:00Z</time>
      </trkpt>
      <trkpt lat="43.72327" lon="7.01732">
        <ele>953.332</ele>
        <time>2013-11-30T08:38:05Z</time>
      </trkpt>
      <trkpt lat="43.72327" lon="7.01736">
        <ele>953.45</ele>
        <time>2013-11-30T08:38:07Z</time>
      </trkpt>
      <trkpt lat="43.72327" lon="7.01753">
        <ele>955.597</ele>
        <time>2013-11-30T08:38:15Z</time>
      </trkpt>
      <trkpt lat="43.72329" lon="7.01764">
        <ele>956.786</ele>
        <time>2013-11-30T08:38:21Z</time>
      </trkpt>
      <trkpt lat="43.72326" lon="7.0178">
        <ele>956.452</ele>
        <time>2013-11-30T08:38:29Z</time>
      </trkpt>
      <trkpt lat="43.72326" lon="7.01783">
        <ele>957.223</ele>
        <time>2013-11-30T08:38:30Z</time>
      </trkpt>
      <trkpt lat="43.72326" lon="7.01791">
        <ele>959.466</ele>
        <time>2013-11-30T08:38:34Z</time>
      </trkpt>
      <trkpt lat="43.72327" lon="7.01802">
        <ele>958.882</ele>
        <time>2013-11-30T08:38:39Z</time>
      </trkpt>
      <trkpt lat="43.72325" lon="7.0182">
        <ele>960.283</ele>
        <time>2013-11-30T08:38:48Z</time>
      </trkpt>
      <trkpt lat="43.72324" lon="7.01835">
        <ele>960.124</ele>
        <time>2013-11-30T08:38:55Z</time>
      </trkpt>
      <trkpt lat="43.72325" lon="7.01851">
        <ele>959.923</ele>
        <time>2013-11-30T08:39:03Z</time>
      </trkpt>
      <trkpt lat="43.72328" lon="7.01864">
        <ele>958.887</ele>
        <time>2013-11-30T08:39:11Z</time>
      </trkpt>
      <trkpt lat="43.72329" lon="7.01879">
        <ele>960.028</ele>
        <time>2013-11-30T08:39:19Z</time>
      </trkpt>
      <trkpt lat="43.72328" lon="7.01892">
        <ele>961.293</ele>
        <time>2013-11-30T08:39:26Z</time>
      </trkpt>
      <trkpt lat="43.72325" lon="7.01906">
        <ele>960.341</ele>
        <time>2013-11-30T08:39:33Z</time>
      </trkpt>
      <trkpt lat="43.72325" lon="7.01917">
        <ele>960.437</ele>
        <time>2013-11-30T08:39:40Z</time>
      </trkpt>
      <trkpt lat="43.7233" lon="7.0193">
        <ele>963.296</ele>
        <time>2013-11-30T08:39:46Z</time>
      </trkpt>
      <trkpt lat="43.72333" lon="7.01931">
        <ele>962.963</ele>
        <time>2013-11-30T08:39:53Z</time>
      </trkpt>
      <trkpt lat="43.72333" lon="7.01926">
        <ele>964.714</ele>
        <time>2013-11-30T08:40:54Z</time>
      </trkpt>
      <trkpt lat="43.72333" lon="7.01932">
        <ele>965.866</ele>
        <time>2013-11-30T08:40:58Z</time>
      </trkpt>
      <trkpt lat="43.72339" lon="7.01946">
        <ele>968.26</ele>
        <time>2013-11-30T08:41:04Z</time>
      </trkpt>
      <trkpt lat="43.7235" lon="7.01962">
        <ele>972.993</ele>
        <time>2013-11-30T08:41:13Z</time>
      </trkpt>
      <trkpt lat="43.72354" lon="7.01976">
        <ele>976.241</ele>
        <time>2013-11-30T08:41:19Z</time>
      </trkpt>
      <trkpt lat="43.72359" lon="7.01997">
        <ele>981.96</ele>
        <time>2013-11-30T08:41:29Z</time>
      </trkpt>
      <trkpt lat="43.72361" lon="7.02011">
        <ele>983.17</ele>
        <time>2013-11-30T08:41:37Z</time>
      </trkpt>
      <trkpt lat="43.72362" lon="7.02023">
        <ele>985.668</ele>
        <time>2013-11-30T08:41:43Z</time>
      </trkpt>
      <trkpt lat="43.72362" lon="7.02034">
        <ele>986.028</ele>
        <time>2013-11-30T08:41:50Z</time>
      </trkpt>
      <trkpt lat="43.72364" lon="7.02048">
        <ele>988.78</ele>
        <time>2013-11-30T08:41:58Z</time>
      </trkpt>
      <trkpt lat="43.72363" lon="7.02052">
        <ele>988.007</ele>
        <time>2013-11-30T08:42:04Z</time>
      </trkpt>
      <trkpt lat="43.72363" lon="7.02054">
        <ele>988.247</ele>
        <time>2013-11-30T08:42:05Z</time>
      </trkpt>
      <trkpt lat="43.72362" lon="7.02063">
        <ele>987.535</ele>
        <time>2013-11-30T08:42:10Z</time>
      </trkpt>
      <trkpt lat="43.72362" lon="7.02081">
        <ele>986.941</ele>
        <time>2013-11-30T08:42:19Z</time>
      </trkpt>
      <trkpt lat="43.72354" lon="7.0209">
        <ele>984.31</ele>
        <time>2013-11-30T08:42:24Z</time>
      </trkpt>
      <trkpt lat="43.72352" lon="7.02092">
        <ele>983.028</ele>
        <time>2013-11-30T08:42:25Z</time>
      </trkpt>
      <trkpt lat="43.72348" lon="7.02103">
        <ele>980.238</ele>
        <time>2013-11-30T08:42:29Z</time>
      </trkpt>
      <trkpt lat="43.72345" lon="7.02124">
        <ele>980.034</ele>
        <time>2013-11-30T08:42:39Z</time>
      </trkpt>
      <trkpt lat="43.72345" lon="7.02143">
        <ele>981.089</ele>
        <time>2013-11-30T08:42:48Z</time>
      </trkpt>
      <trkpt lat="43.72345" lon="7.02158">
        <ele>982.51</ele>
        <time>2013-11-30T08:42:55Z</time>
      </trkpt>
      <trkpt lat="43.72345" lon="7.02166">
        <ele>984.281</ele>
        <time>2013-11-30T08:42:59Z</time>
      </trkpt>
      <trkpt lat="43.72342" lon="7.0218">
        <ele>984.515</ele>
        <time>2013-11-30T08:43:06Z</time>
      </trkpt>
      <trkpt lat="43.72341" lon="7.0219">
        <ele>984.753</ele>
        <time>2013-11-30T08:43:11Z</time>
      </trkpt>
      <trkpt lat="43.72342" lon="7.02194">
        <ele>983.67</ele>
        <time>2013-11-30T08:43:13Z</time>
      </trkpt>
      <trkpt lat="43.72338" lon="7.02208">
        <ele>984.162</ele>
        <time>2013-11-30T08:43:20Z</time>
      </trkpt>
      <trkpt lat="43.72336" lon="7.02211">
        <ele>986.114</ele>
        <time>2013-11-30T08:43:25Z</time>
      </trkpt>
      <trkpt lat="43.72338" lon="7.02213">
        <ele>987.737</ele>
        <time>2013-11-30T08:43:35Z</time>
      </trkpt>
      <trkpt lat="43.72336" lon="7.02215">
        <ele>993.003</ele>
        <time>2013-11-30T08:45:16Z</time>
      </trkpt>
      <trkpt lat="43.72335" lon="7.02213">
        <ele>989.954</ele>
        <time>2013-11-30T08:45:21Z</time>
      </trkpt>
      <trkpt lat="43.72329" lon="7.02218">
        <ele>988.641</ele>
        <time>2013-11-30T08:45:26Z</time>
      </trkpt>
      <trkpt lat="43.72324" lon="7.0223">
        <ele>987.687</ele>
        <time>2013-11-30T08:45:31Z</time>
      </trkpt>
      <trkpt lat="43.72322" lon="7.02242">
        <ele>986.337</ele>
        <time>2013-11-30T08:45:35Z</time>
      </trkpt>
      <trkpt lat="43.72319" lon="7.02268">
        <ele>980.719</ele>
        <time>2013-11-30T08:45:41Z</time>
      </trkpt>
      <trkpt lat="43.72315" lon="7.02285">
        <ele>976.997</ele>
        <time>2013-11-30T08:45:45Z</time>
      </trkpt>
      <trkpt lat="43.72316" lon="7.0229">
        <ele>976.52</ele>
        <time>2013-11-30T08:45:47Z</time>
      </trkpt>
      <trkpt lat="43.72311" lon="7.02306">
        <ele>973.598</ele>
        <time>2013-11-30T08:45:51Z</time>
      </trkpt>
      <trkpt lat="43.72303" lon="7.02326">
        <ele>972.392</ele>
        <time>2013-11-30T08:45:55Z</time>
      </trkpt>
      <trkpt lat="43.72299" lon="7.02335">
        <ele>971.181</ele>
        <time>2013-11-30T08:45:57Z</time>
      </trkpt>
      <trkpt lat="43.72291" lon="7.02358">
        <ele>966.831</ele>
        <time>2013-11-30T08:46:02Z</time>
      </trkpt>
      <trkpt lat="43.72284" lon="7.02374">
        <ele>963.207</ele>
        <time>2013-11-30T08:46:06Z</time>
      </trkpt>
      <trkpt lat="43.72284" lon="7.02381">
        <ele>961.2</ele>
        <time>2013-11-30T08:46:11Z</time>
      </trkpt>
      <trkpt lat="43.72283" lon="7.02382">
        <ele>960.495</ele>
        <time>2013-11-30T08:46:16Z</time>
      </trkpt>
      <trkpt lat="43.72283" lon="7.02385">
        <ele>961.62</ele>
        <time>2013-11-30T08:46:22Z</time>
      </trkpt>
      <trkpt lat="43.72284" lon="7.02386">
        <ele>962.15</ele>
        <time>2013-11-30T08:46:24Z</time>
      </trkpt>
      <trkpt lat="43.72284" lon="7.02388">
        <ele>961.909</ele>
        <time>2013-11-30T08:46:26Z</time>
      </trkpt>
      <trkpt lat="43.72282" lon="7.02392">
        <ele>961.832</ele>
        <time>2013-11-30T08:46:31Z</time>
      </trkpt>
      <trkpt lat="43.72282" lon="7.02393">
        <ele>963.624</ele>
        <time>2013-11-30T08:46:37Z</time>
      </trkpt>
      <trkpt lat="43.72282" lon="7.02394">
        <ele>963.212</ele>
        <time>2013-11-30T08:46:38Z</time>
      </trkpt>
      <trkpt lat="43.72277" lon="7.02409">
        <ele>959.534</ele>
        <time>2013-11-30T08:46:45Z</time>
      </trkpt>
      <trkpt lat="43.72277" lon="7.02418">
        <ele>958.184</ele>
        <time>2013-11-30T08:46:48Z</time>
      </trkpt>
      <trkpt lat="43.72276" lon="7.02428">
        <ele>961.001</ele>
        <time>2013-11-30T08:46:54Z</time>
      </trkpt>
      <trkpt lat="43.72273" lon="7.02434">
        <ele>981.221</ele>
        <time>2013-11-30T08:47:18Z</time>
      </trkpt>
      <trkpt lat="43.72266" lon="7.02439">
        <ele>974.768</ele>
        <time>2013-11-30T08:47:24Z</time>
      </trkpt>
      <trkpt lat="43.72261" lon="7.02448">
        <ele>969.852</ele>
        <time>2013-11-30T08:47:28Z</time>
      </trkpt>
      <trkpt lat="43.72256" lon="7.0245">
        <ele>963.959</ele>
        <time>2013-11-30T08:47:32Z</time>
      </trkpt>
      <trkpt lat="43.72255" lon="7.02457">
        <ele>959.239</ele>
        <time>2013-11-30T08:47:38Z</time>
      </trkpt>
      <trkpt lat="43.72254" lon="7.02458">
        <ele>956.711</ele>
        <time>2013-11-30T08:47:42Z</time>
      </trkpt>
      <trkpt lat="43.72251" lon="7.02461">
        <ele>955.341</ele>
        <time>2013-11-30T08:47:47Z</time>
      </trkpt>
      <trkpt lat="43.7225" lon="7.02463">
        <ele>957.175</ele>
        <time>2013-11-30T08:47:51Z</time>
      </trkpt>
      <trkpt lat="43.7225" lon="7.02469">
        <ele>956.919</ele>
        <time>2013-11-30T08:47:57Z</time>
      </trkpt>
      <trkpt lat="43.72252" lon="7.02477">
        <ele>957.993</ele>
        <time>2013-11-30T08:48:06Z</time>
      </trkpt>
      <trkpt lat="43.72253" lon="7.02483">
        <ele>957.532</ele>
        <time>2013-11-30T08:48:13Z</time>
      </trkpt>
      <trkpt lat="43.72254" lon="7.02492">
        <ele>958.562</ele>
        <time>2013-11-30T08:48:18Z</time>
      </trkpt>
      <trkpt lat="43.72254" lon="7.02496">
        <ele>958.313</ele>
        <time>2013-11-30T08:48:23Z</time>
      </trkpt>
      <trkpt lat="43.72251" lon="7.02506">
        <ele>954.99</ele>
        <time>2013-11-30T08:48:28Z</time>
      </trkpt>
      <trkpt lat="43.7225" lon="7.0252">
        <ele>950.839</ele>
        <time>2013-11-30T08:48:34Z</time>
      </trkpt>
      <trkpt lat="43.72248" lon="7.02527">
        <ele>950.071</ele>
        <time>2013-11-30T08:48:39Z</time>
      </trkpt>
      <trkpt lat="43.72246" lon="7.02531">
        <ele>948.752</ele>
        <time>2013-11-30T08:48:45Z</time>
      </trkpt>
      <trkpt lat="43.72243" lon="7.02536">
        <ele>948.934</ele>
        <time>2013-11-30T08:48:55Z</time>
      </trkpt>
      <trkpt lat="43.72242" lon="7.02538">
        <ele>949.264</ele>
        <time>2013-11-30T08:48:59Z</time>
      </trkpt>
      <trkpt lat="43.72242" lon="7.02552">
        <ele>949.183</ele>
        <time>2013-11-30T08:49:04Z</time>
      </trkpt>
      <trkpt lat="43.72243" lon="7.02562">
        <ele>949.383</ele>
        <time>2013-11-30T08:49:09Z</time>
      </trkpt>
      <trkpt lat="43.72244" lon="7.02562">
        <ele>949.042</ele>
        <time>2013-11-30T08:49:10Z</time>
      </trkpt>
      <trkpt lat="43.72242" lon="7.02558">
        <ele>946.692</ele>
        <time>2013-11-30T08:49:15Z</time>
      </trkpt>
      <trkpt lat="43.72242" lon="7.02558">
        <ele>948.124</ele>
        <time>2013-11-30T08:49:23Z</time>
      </trkpt>
      <trkpt lat="43.72242" lon="7.02559">
        <ele>948.574</ele>
        <time>2013-11-30T08:49:27Z</time>
      </trkpt>
      <trkpt lat="43.72243" lon="7.02562">
        <ele>953.757</ele>
        <time>2013-11-30T08:49:35Z</time>
      </trkpt>
      <trkpt lat="43.72243" lon="7.02565">
        <ele>954.096</ele>
        <time>2013-11-30T08:49:37Z</time>
      </trkpt>
      <trkpt lat="43.72244" lon="7.02569">
        <ele>952.744</ele>
        <time>2013-11-30T08:49:42Z</time>
      </trkpt>
      <trkpt lat="43.72241" lon="7.02559">
        <ele>949.672</ele>
        <time>2013-11-30T08:49:48Z</time>
      </trkpt>
      <trkpt lat="43.72241" lon="7.02559">
        <ele>950.173</ele>
        <time>2013-11-30T08:49:51Z</time>
      </trkpt>
      <trkpt lat="43.72236" lon="7.0256">
        <ele>944.971</ele>
        <time>2013-11-30T08:49:57Z</time>
      </trkpt>
      <trkpt lat="43.72234" lon="7.02564">
        <ele>944.962</ele>
        <time>2013-11-30T08:50:01Z</time>
      </trkpt>
      <trkpt lat="43.7223" lon="7.0257">
        <ele>944.471</ele>
        <time>2013-11-30T08:50:06Z</time>
      </trkpt>
      <trkpt lat="43.72222" lon="7.02576">
        <ele>942.848</ele>
        <time>2013-11-30T08:50:11Z</time>
      </trkpt>
      <trkpt lat="43.72208" lon="7.02585">
        <ele>939.035</ele>
        <time>2013-11-30T08:50:18Z</time>
      </trkpt>
      <trkpt lat="43.72205" lon="7.02592">
        <ele>936.883</ele>
        <time>2013-11-30T08:50:22Z</time>
      </trkpt>
      <trkpt lat="43.72202" lon="7.02596">
        <ele>937.695</ele>
        <time>2013-11-30T08:50:30Z</time>
      </trkpt>
      <trkpt lat="43.72199" lon="7.02601">
        <ele>934.711</ele>
        <time>2013-11-30T08:50:38Z</time>
      </trkpt>
      <trkpt lat="43.72198" lon="7.02601">
        <ele>934.52</ele>
        <time>2013-11-30T08:50:39Z</time>
      </trkpt>
      <trkpt lat="43.72195" lon="7.02606">
        <ele>936.343</ele>
        <time>2013-11-30T08:50:45Z</time>
      </trkpt>
      <trkpt lat="43.72189" lon="7.02614">
        <ele>931.356</ele>
        <time>2013-11-30T08:50:50Z</time>
      </trkpt>
      <trkpt lat="43.72175" lon="7.02607">
        <ele>928.8</ele>
        <time>2013-11-30T08:50:55Z</time>
      </trkpt>
      <trkpt lat="43.72163" lon="7.02607">
        <ele>923.291</ele>
        <time>2013-11-30T08:50:59Z</time>
      </trkpt>
      <trkpt lat="43.72151" lon="7.02612">
        <ele>920.75</ele>
        <time>2013-11-30T08:51:03Z</time>
      </trkpt>
      <trkpt lat="43.72149" lon="7.02628">
        <ele>918.21</ele>
        <time>2013-11-30T08:51:06Z</time>
      </trkpt>
      <trkpt lat="43.7214" lon="7.02658">
        <ele>914.76</ele>
        <time>2013-11-30T08:51:12Z</time>
      </trkpt>
      <trkpt lat="43.72132" lon="7.02668">
        <ele>913.85</ele>
        <time>2013-11-30T08:51:15Z</time>
      </trkpt>
      <trkpt lat="43.72114" lon="7.02696">
        <ele>911.27</ele>
        <time>2013-11-30T08:51:22Z</time>
      </trkpt>
      <trkpt lat="43.72103" lon="7.02706">
        <ele>908.919</ele>
        <time>2013-11-30T08:51:26Z</time>
      </trkpt>
      <trkpt lat="43.72091" lon="7.02716">
        <ele>906.691</ele>
        <time>2013-11-30T08:51:31Z</time>
      </trkpt>
      <trkpt lat="43.72078" lon="7.02728">
        <ele>905.793</ele>
        <time>2013-11-30T08:51:35Z</time>
      </trkpt>
      <trkpt lat="43.72074" lon="7.02732">
        <ele>905.224</ele>
        <time>2013-11-30T08:51:36Z</time>
      </trkpt>
      <trkpt lat="43.72065" lon="7.02743">
        <ele>902.462</ele>
        <time>2013-11-30T08:51:39Z</time>
      </trkpt>
      <trkpt lat="43.72058" lon="7.02752">
        <ele>900.65</ele>
        <time>2013-11-30T08:51:41Z</time>
      </trkpt>
      <trkpt lat="43.72038" lon="7.02771">
        <ele>896.006</ele>
        <time>2013-11-30T08:51:46Z</time>
      </trkpt>
      <trkpt lat="43.72037" lon="7.02772">
        <ele>894.22</ele>
        <time>2013-11-30T08:51:49Z</time>
      </trkpt>
      <trkpt lat="43.72037" lon="7.02773">
        <ele>896.475</ele>
        <time>2013-11-30T08:51:59Z</time>
      </trkpt>
      <trkpt lat="43.72038" lon="7.02774">
        <ele>898.706</ele>
        <time>2013-11-30T08:52:04Z</time>
      </trkpt>
      <trkpt lat="43.72037" lon="7.0278">
        <ele>899.465</ele>
        <time>2013-11-30T08:52:10Z</time>
      </trkpt>
      <trkpt lat="43.72038" lon="7.02786">
        <ele>894.665</ele>
        <time>2013-11-30T08:54:14Z</time>
      </trkpt>
      <trkpt lat="43.72043" lon="7.02794">
        <ele>896.057</ele>
        <time>2013-11-30T08:54:20Z</time>
      </trkpt>
      <trkpt lat="43.72049" lon="7.02802">
        <ele>898.59</ele>
        <time>2013-11-30T08:54:29Z</time>
      </trkpt>
      <trkpt lat="43.72054" lon="7.02807">
        <ele>908.183</ele>
        <time>2013-11-30T08:54:38Z</time>
      </trkpt>
      <trkpt lat="43.7206" lon="7.02814">
        <ele>914.329</ele>
        <time>2013-11-30T08:54:47Z</time>
      </trkpt>
      <trkpt lat="43.72063" lon="7.02818">
        <ele>918.469</ele>
        <time>2013-11-30T08:54:53Z</time>
      </trkpt>
      <trkpt lat="43.72066" lon="7.02818">
        <ele>920.988</ele>
        <time>2013-11-30T08:54:57Z</time>
      </trkpt>
      <trkpt lat="43.72071" lon="7.02816">
        <ele>924.7</ele>
        <time>2013-11-30T08:55:03Z</time>
      </trkpt>
      <trkpt lat="43.72075" lon="7.02813">
        <ele>930.562</ele>
        <time>2013-11-30T08:55:10Z</time>
      </trkpt>
      <trkpt lat="43.72076" lon="7.02815">
        <ele>931.407</ele>
        <time>2013-11-30T08:55:13Z</time>
      </trkpt>
      <trkpt lat="43.72077" lon="7.02822">
        <ele>932.402</ele>
        <time>2013-11-30T08:55:19Z</time>
      </trkpt>
      <trkpt lat="43.72075" lon="7.02834">
        <ele>933.137</ele>
        <time>2013-11-30T08:55:29Z</time>
      </trkpt>
      <trkpt lat="43.72078" lon="7.02844">
        <ele>932.398</ele>
        <time>2013-11-30T08:55:36Z</time>
      </trkpt>
      <trkpt lat="43.7208" lon="7.02844">
        <ele>929.439</ele>
        <time>2013-11-30T08:55:41Z</time>
      </trkpt>
      <trkpt lat="43.72082" lon="7.02844">
        <ele>920.352</ele>
        <time>2013-11-30T08:55:48Z</time>
      </trkpt>
      <trkpt lat="43.72084" lon="7.02843">
        <ele>917.37</ele>
        <time>2013-11-30T08:56:01Z</time>
      </trkpt>
      <trkpt lat="43.7209" lon="7.02841">
        <ele>922.92</ele>
        <time>2013-11-30T08:56:10Z</time>
      </trkpt>
      <trkpt lat="43.72093" lon="7.0284">
        <ele>926.698</ele>
        <time>2013-11-30T08:56:16Z</time>
      </trkpt>
      <trkpt lat="43.72092" lon="7.02843">
        <ele>919.701</ele>
        <time>2013-11-30T08:56:21Z</time>
      </trkpt>
      <trkpt lat="43.72097" lon="7.02844">
        <ele>923.109</ele>
        <time>2013-11-30T08:56:26Z</time>
      </trkpt>
      <trkpt lat="43.721" lon="7.02843">
        <ele>927.171</ele>
        <time>2013-11-30T08:56:32Z</time>
      </trkpt>
      <trkpt lat="43.72102" lon="7.02846">
        <ele>928.16</ele>
        <time>2013-11-30T08:56:37Z</time>
      </trkpt>
      <trkpt lat="43.72104" lon="7.0285">
        <ele>931.579</ele>
        <time>2013-11-30T08:56:45Z</time>
      </trkpt>
      <trkpt lat="43.72106" lon="7.02853">
        <ele>931.626</ele>
        <time>2013-11-30T08:56:50Z</time>
      </trkpt>
      <trkpt lat="43.72114" lon="7.02857">
        <ele>945.555</ele>
        <time>2013-11-30T08:58:25Z</time>
      </trkpt>
      <trkpt lat="43.72118" lon="7.02866">
        <ele>941.597</ele>
        <time>2013-11-30T08:58:34Z</time>
      </trkpt>
      <trkpt lat="43.72117" lon="7.02865">
        <ele>927.133</ele>
        <time>2013-11-30T08:58:57Z</time>
      </trkpt>
      <trkpt lat="43.72118" lon="7.02869">
        <ele>927.154</ele>
        <time>2013-11-30T08:59:03Z</time>
      </trkpt>
      <trkpt lat="43.72117" lon="7.02871">
        <ele>925.503</ele>
        <time>2013-11-30T08:59:30Z</time>
      </trkpt>
      <trkpt lat="43.72118" lon="7.02872">
        <ele>924.925</ele>
        <time>2013-11-30T08:59:36Z</time>
      </trkpt>
      <trkpt lat="43.72117" lon="7.02872">
        <ele>924.834</ele>
        <time>2013-11-30T08:59:38Z</time>
      </trkpt>
      <trkpt lat="43.72119" lon="7.02869">
        <ele>926.448</ele>
        <time>2013-11-30T08:59:42Z</time>
      </trkpt>
      <trkpt lat="43.72121" lon="7.02865">
        <ele>928.071</ele>
        <time>2013-11-30T08:59:46Z</time>
      </trkpt>
      <trkpt lat="43.72123" lon="7.02865">
        <ele>932.611</ele>
        <time>2013-11-30T08:59:54Z</time>
      </trkpt>
      <trkpt lat="43.72124" lon="7.02863">
        <ele>936.04</ele>
        <time>2013-11-30T09:00:00Z</time>
      </trkpt>
      <trkpt lat="43.72125" lon="7.02862">
        <ele>937.756</ele>
        <time>2013-11-30T09:00:02Z</time>
      </trkpt>
      <trkpt lat="43.72127" lon="7.02858">
        <ele>940.2</ele>
        <time>2013-11-30T09:00:08Z</time>
      </trkpt>
      <trkpt lat="43.72128" lon="7.02854">
        <ele>938.274</ele>
        <time>2013-11-30T09:00:14Z</time>
      </trkpt>
      <trkpt lat="43.72129" lon="7.02851">
        <ele>931.506</ele>
        <time>2013-11-30T09:00:50Z</time>
      </trkpt>
      <trkpt lat="43.72132" lon="7.02846">
        <ele>935.265</ele>
        <time>2013-11-30T09:00:57Z</time>
      </trkpt>
      <trkpt lat="43.72133" lon="7.02845">
        <ele>938.574</ele>
        <time>2013-11-30T09:01:02Z</time>
      </trkpt>
      <trkpt lat="43.72133" lon="7.02846">
        <ele>940.702</ele>
        <time>2013-11-30T09:01:06Z</time>
      </trkpt>
      <trkpt lat="43.72136" lon="7.0285">
        <ele>944.694</ele>
        <time>2013-11-30T09:01:12Z</time>
      </trkpt>
      <trkpt lat="43.72138" lon="7.0285">
        <ele>945.07</ele>
        <time>2013-11-30T09:01:18Z</time>
      </trkpt>
      <trkpt lat="43.72138" lon="7.02852">
        <ele>946.017</ele>
        <time>2013-11-30T09:01:26Z</time>
      </trkpt>
      <trkpt lat="43.7214" lon="7.02853">
        <ele>947.008</ele>
        <time>2013-11-30T09:01:31Z</time>
      </trkpt>
      <trkpt lat="43.72142" lon="7.02862">
        <ele>948.539</ele>
        <time>2013-11-30T09:01:40Z</time>
      </trkpt>
      <trkpt lat="43.72144" lon="7.02863">
        <ele>950.766</ele>
        <time>2013-11-30T09:01:47Z</time>
      </trkpt>
      <trkpt lat="43.72147" lon="7.02863">
        <ele>949.227</ele>
        <time>2013-11-30T09:01:53Z</time>
      </trkpt>
      <trkpt lat="43.72148" lon="7.02863">
        <ele>943.575</ele>
        <time>2013-11-30T09:02:09Z</time>
      </trkpt>
      <trkpt lat="43.7215" lon="7.02855">
        <ele>942.254</ele>
        <time>2013-11-30T09:02:15Z</time>
      </trkpt>
      <trkpt lat="43.72152" lon="7.0285">
        <ele>941.27</ele>
        <time>2013-11-30T09:02:21Z</time>
      </trkpt>
      <trkpt lat="43.72147" lon="7.02844">
        <ele>940.934</ele>
        <time>2013-11-30T09:02:37Z</time>
      </trkpt>
      <trkpt lat="43.72151" lon="7.02835">
        <ele>941.997</ele>
        <time>2013-11-30T09:02:44Z</time>
      </trkpt>
      <trkpt lat="43.72152" lon="7.02832">
        <ele>942.74</ele>
        <time>2013-11-30T09:02:46Z</time>
      </trkpt>
      <trkpt lat="43.72152" lon="7.02829">
        <ele>945.641</ele>
        <time>2013-11-30T09:02:52Z</time>
      </trkpt>
      <trkpt lat="43.72154" lon="7.02824">
        <ele>954.513</ele>
        <time>2013-11-30T09:03:03Z</time>
      </trkpt>
      <trkpt lat="43.72158" lon="7.02819">
        <ele>954.952</ele>
        <time>2013-11-30T09:03:09Z</time>
      </trkpt>
      <trkpt lat="43.72161" lon="7.02816">
        <ele>953.612</ele>
        <time>2013-11-30T09:03:16Z</time>
      </trkpt>
      <trkpt lat="43.72163" lon="7.02816">
        <ele>956.141</ele>
        <time>2013-11-30T09:03:21Z</time>
      </trkpt>
      <trkpt lat="43.72165" lon="7.0282">
        <ele>960.995</ele>
        <time>2013-11-30T09:03:28Z</time>
      </trkpt>
      <trkpt lat="43.72168" lon="7.0282">
        <ele>968.327</ele>
        <time>2013-11-30T09:03:34Z</time>
      </trkpt>
      <trkpt lat="43.72169" lon="7.02818">
        <ele>966.935</ele>
        <time>2013-11-30T09:03:36Z</time>
      </trkpt>
      <trkpt lat="43.72171" lon="7.02812">
        <ele>961.281</ele>
        <time>2013-11-30T09:03:41Z</time>
      </trkpt>
      <trkpt lat="43.72175" lon="7.02811">
        <ele>960.104</ele>
        <time>2013-11-30T09:03:46Z</time>
      </trkpt>
      <trkpt lat="43.72176" lon="7.02811">
        <ele>958.963</ele>
        <time>2013-11-30T09:03:55Z</time>
      </trkpt>
      <trkpt lat="43.72181" lon="7.02802">
        <ele>955.844</ele>
        <time>2013-11-30T09:04:03Z</time>
      </trkpt>
      <trkpt lat="43.72183" lon="7.02801">
        <ele>957.671</ele>
        <time>2013-11-30T09:04:06Z</time>
      </trkpt>
      <trkpt lat="43.72184" lon="7.028">
        <ele>958.018</ele>
        <time>2013-11-30T09:04:08Z</time>
      </trkpt>
      <trkpt lat="43.72187" lon="7.02794">
        <ele>955.664</ele>
        <time>2013-11-30T09:04:16Z</time>
      </trkpt>
      <trkpt lat="43.72185" lon="7.02793">
        <ele>956.998</ele>
        <time>2013-11-30T09:04:24Z</time>
      </trkpt>
      <trkpt lat="43.72191" lon="7.02791">
        <ele>962.762</ele>
        <time>2013-11-30T09:04:31Z</time>
      </trkpt>
      <trkpt lat="43.72194" lon="7.0279">
        <ele>971.486</ele>
        <time>2013-11-30T09:04:41Z</time>
      </trkpt>
      <trkpt lat="43.72196" lon="7.02786">
        <ele>960.091</ele>
        <time>2013-11-30T09:04:51Z</time>
      </trkpt>
      <trkpt lat="43.722" lon="7.02788">
        <ele>956.726</ele>
        <time>2013-11-30T09:05:05Z</time>
      </trkpt>
      <trkpt lat="43.72202" lon="7.0279">
        <ele>959.858</ele>
        <time>2013-11-30T09:05:10Z</time>
      </trkpt>
      <trkpt lat="43.72202" lon="7.02794">
        <ele>964.397</ele>
        <time>2013-11-30T09:05:16Z</time>
      </trkpt>
      <trkpt lat="43.72202" lon="7.02794">
        <ele>963.005</ele>
        <time>2013-11-30T09:05:24Z</time>
      </trkpt>
      <trkpt lat="43.72202" lon="7.02793">
        <ele>962.026</ele>
        <time>2013-11-30T09:05:30Z</time>
      </trkpt>
      <trkpt lat="43.72203" lon="7.02797">
        <ele>961.947</ele>
        <time>2013-11-30T09:05:36Z</time>
      </trkpt>
      <trkpt lat="43.72203" lon="7.02803">
        <ele>961.342</ele>
        <time>2013-11-30T09:05:42Z</time>
      </trkpt>
      <trkpt lat="43.72206" lon="7.02805">
        <ele>963.855</ele>
        <time>2013-11-30T09:05:48Z</time>
      </trkpt>
      <trkpt lat="43.7221" lon="7.02802">
        <ele>968.012</ele>
        <time>2013-11-30T09:05:55Z</time>
      </trkpt>
      <trkpt lat="43.72213" lon="7.02798">
        <ele>972.302</ele>
        <time>2013-11-30T09:06:01Z</time>
      </trkpt>
      <trkpt lat="43.72214" lon="7.02796">
        <ele>977.658</ele>
        <time>2013-11-30T09:06:07Z</time>
      </trkpt>
      <trkpt lat="43.72212" lon="7.02797">
        <ele>979.342</ele>
        <time>2013-11-30T09:06:13Z</time>
      </trkpt>
      <trkpt lat="43.72211" lon="7.02798">
        <ele>980.302</ele>
        <time>2013-11-30T09:06:15Z</time>
      </trkpt>
      <trkpt lat="43.72211" lon="7.02803">
        <ele>981.081</ele>
        <time>2013-11-30T09:06:21Z</time>
      </trkpt>
      <trkpt lat="43.72211" lon="7.02805">
        <ele>979.006</ele>
        <time>2013-11-30T09:06:28Z</time>
      </trkpt>
      <trkpt lat="43.72213" lon="7.02809">
        <ele>977.669</ele>
        <time>2013-11-30T09:06:37Z</time>
      </trkpt>
      <trkpt lat="43.72212" lon="7.0281">
        <ele>989.359</ele>
        <time>2013-11-30T09:07:02Z</time>
      </trkpt>
      <trkpt lat="43.72215" lon="7.02807">
        <ele>991.359</ele>
        <time>2013-11-30T09:07:10Z</time>
      </trkpt>
      <trkpt lat="43.72217" lon="7.02808">
        <ele>992.625</ele>
        <time>2013-11-30T09:07:22Z</time>
      </trkpt>
      <trkpt lat="43.72222" lon="7.0281">
        <ele>986.08</ele>
        <time>2013-11-30T09:07:59Z</time>
      </trkpt>
      <trkpt lat="43.72221" lon="7.02812">
        <ele>985.613</ele>
        <time>2013-11-30T09:08:04Z</time>
      </trkpt>
      <trkpt lat="43.7222" lon="7.02813">
        <ele>984.593</ele>
        <time>2013-11-30T09:08:06Z</time>
      </trkpt>
      <trkpt lat="43.72222" lon="7.02815">
        <ele>981.632</ele>
        <time>2013-11-30T09:08:12Z</time>
      </trkpt>
      <trkpt lat="43.72221" lon="7.02813">
        <ele>978.674</ele>
        <time>2013-11-30T09:08:19Z</time>
      </trkpt>
      <trkpt lat="43.72227" lon="7.02803">
        <ele>979.245</ele>
        <time>2013-11-30T09:08:26Z</time>
      </trkpt>
      <trkpt lat="43.72227" lon="7.02802">
        <ele>979.234</ele>
        <time>2013-11-30T09:08:27Z</time>
      </trkpt>
      <trkpt lat="43.72227" lon="7.02799">
        <ele>983.63</ele>
        <time>2013-11-30T09:08:33Z</time>
      </trkpt>
      <trkpt lat="43.72228" lon="7.02803">
        <ele>985.578</ele>
        <time>2013-11-30T09:08:44Z</time>
      </trkpt>
      <trkpt lat="43.72227" lon="7.02804">
        <ele>988.188</ele>
        <time>2013-11-30T09:08:52Z</time>
      </trkpt>
      <trkpt lat="43.72226" lon="7.02808">
        <ele>990.267</ele>
        <time>2013-11-30T09:09:22Z</time>
      </trkpt>
      <trkpt lat="43.72228" lon="7.02809">
        <ele>990.017</ele>
        <time>2013-11-30T09:09:29Z</time>
      </trkpt>
      <trkpt lat="43.72229" lon="7.02806">
        <ele>991.587</ele>
        <time>2013-11-30T09:09:38Z</time>
      </trkpt>
      <trkpt lat="43.72229" lon="7.02813">
        <ele>991.307</ele>
        <time>2013-11-30T09:09:45Z</time>
      </trkpt>
      <trkpt lat="43.72229" lon="7.02819">
        <ele>990.117</ele>
        <time>2013-11-30T09:09:55Z</time>
      </trkpt>
      <trkpt lat="43.72229" lon="7.02825">
        <ele>990.278</ele>
        <time>2013-11-30T09:09:58Z</time>
      </trkpt>
      <trkpt lat="43.72233" lon="7.02825">
        <ele>991.564</ele>
        <time>2013-11-30T09:10:03Z</time>
      </trkpt>
      <trkpt lat="43.72236" lon="7.02825">
        <ele>992.308</ele>
        <time>2013-11-30T09:10:09Z</time>
      </trkpt>
      <trkpt lat="43.72255" lon="7.02838">
        <ele>965.856</ele>
        <time>2013-11-30T09:10:47Z</time>
      </trkpt>
      <trkpt lat="43.72256" lon="7.02829">
        <ele>978.43</ele>
        <time>2013-11-30T09:10:55Z</time>
      </trkpt>
      <trkpt lat="43.72257" lon="7.02822">
        <ele>989.949</ele>
        <time>2013-11-30T09:11:02Z</time>
      </trkpt>
      <trkpt lat="43.72256" lon="7.02814">
        <ele>1009.249</ele>
        <time>2013-11-30T09:11:33Z</time>
      </trkpt>
      <trkpt lat="43.72255" lon="7.02817">
        <ele>1007.136</ele>
        <time>2013-11-30T09:11:38Z</time>
      </trkpt>
      <trkpt lat="43.72254" lon="7.02818">
        <ele>1006.896</ele>
        <time>2013-11-30T09:11:39Z</time>
      </trkpt>
      <trkpt lat="43.72254" lon="7.02821">
        <ele>1003.965</ele>
        <time>2013-11-30T09:11:46Z</time>
      </trkpt>
      <trkpt lat="43.72254" lon="7.02823">
        <ele>1002.835</ele>
        <time>2013-11-30T09:11:48Z</time>
      </trkpt>
      <trkpt lat="43.72254" lon="7.02826">
        <ele>1000.233</ele>
        <time>2013-11-30T09:11:55Z</time>
      </trkpt>
      <trkpt lat="43.72254" lon="7.02829">
        <ele>996.786</ele>
        <time>2013-11-30T09:12:14Z</time>
      </trkpt>
      <trkpt lat="43.72256" lon="7.02824">
        <ele>1002.806</ele>
        <time>2013-11-30T09:12:20Z</time>
      </trkpt>
      <trkpt lat="43.72253" lon="7.02824">
        <ele>1005.024</ele>
        <time>2013-11-30T09:13:33Z</time>
      </trkpt>
      <trkpt lat="43.72253" lon="7.02824">
        <ele>1003.935</ele>
        <time>2013-11-30T09:13:59Z</time>
      </trkpt>
      <trkpt lat="43.72252" lon="7.02831">
        <ele>1005.19</ele>
        <time>2013-11-30T09:14:06Z</time>
      </trkpt>
      <trkpt lat="43.72253" lon="7.02833">
        <ele>1005.348</ele>
        <time>2013-11-30T09:14:10Z</time>
      </trkpt>
      <trkpt lat="43.72258" lon="7.02829">
        <ele>1007.41</ele>
        <time>2013-11-30T09:14:19Z</time>
      </trkpt>
      <trkpt lat="43.72261" lon="7.02828">
        <ele>1008.547</ele>
        <time>2013-11-30T09:14:25Z</time>
      </trkpt>
      <trkpt lat="43.72262" lon="7.02828">
        <ele>1009.756</ele>
        <time>2013-11-30T09:14:44Z</time>
      </trkpt>
      <trkpt lat="43.72262" lon="7.02831">
        <ele>1008.505</ele>
        <time>2013-11-30T09:14:52Z</time>
      </trkpt>
      <trkpt lat="43.72263" lon="7.02835">
        <ele>1005.702</ele>
        <time>2013-11-30T09:15:29Z</time>
      </trkpt>
      <trkpt lat="43.72264" lon="7.02836">
        <ele>1005.686</ele>
        <time>2013-11-30T09:15:33Z</time>
      </trkpt>
      <trkpt lat="43.72263" lon="7.02838">
        <ele>1008.302</ele>
        <time>2013-11-30T09:15:36Z</time>
      </trkpt>
      <trkpt lat="43.72266" lon="7.02839">
        <ele>1009.711</ele>
        <time>2013-11-30T09:15:40Z</time>
      </trkpt>
      <trkpt lat="43.72271" lon="7.02834">
        <ele>1011.458</ele>
        <time>2013-11-30T09:15:49Z</time>
      </trkpt>
      <trkpt lat="43.72275" lon="7.02832">
        <ele>1011.644</ele>
        <time>2013-11-30T09:15:58Z</time>
      </trkpt>
      <trkpt lat="43.72279" lon="7.0283">
        <ele>1012.171</ele>
        <time>2013-11-30T09:16:06Z</time>
      </trkpt>
      <trkpt lat="43.7228" lon="7.02831">
        <ele>1013.369</ele>
        <time>2013-11-30T09:16:12Z</time>
      </trkpt>
      <trkpt lat="43.72279" lon="7.02833">
        <ele>1013.898</ele>
        <time>2013-11-30T09:16:19Z</time>
      </trkpt>
      <trkpt lat="43.72281" lon="7.02835">
        <ele>1013.918</ele>
        <time>2013-11-30T09:16:24Z</time>
      </trkpt>
      <trkpt lat="43.72283" lon="7.02835">
        <ele>1015.027</ele>
        <time>2013-11-30T09:16:31Z</time>
      </trkpt>
      <trkpt lat="43.72287" lon="7.02833">
        <ele>1017.396</ele>
        <time>2013-11-30T09:16:38Z</time>
      </trkpt>
      <trkpt lat="43.72289" lon="7.02833">
        <ele>1021.671</ele>
        <time>2013-11-30T09:16:47Z</time>
      </trkpt>
      <trkpt lat="43.72291" lon="7.02832">
        <ele>1024.818</ele>
        <time>2013-11-30T09:16:52Z</time>
      </trkpt>
      <trkpt lat="43.72291" lon="7.02833">
        <ele>1024.447</ele>
        <time>2013-11-30T09:16:59Z</time>
      </trkpt>
      <trkpt lat="43.72291" lon="7.02836">
        <ele>1025.148</ele>
        <time>2013-11-30T09:17:06Z</time>
      </trkpt>
      <trkpt lat="43.72292" lon="7.02837">
        <ele>1025.623</ele>
        <time>2013-11-30T09:17:12Z</time>
      </trkpt>
      <trkpt lat="43.72296" lon="7.02835">
        <ele>1025.957</ele>
        <time>2013-11-30T09:17:17Z</time>
      </trkpt>
      <trkpt lat="43.72298" lon="7.02835">
        <ele>1025.998</ele>
        <time>2013-11-30T09:17:23Z</time>
      </trkpt>
      <trkpt lat="43.72299" lon="7.02837">
        <ele>1026.994</ele>
        <time>2013-11-30T09:17:59Z</time>
      </trkpt>
      <trkpt lat="43.72303" lon="7.02843">
        <ele>997.281</ele>
        <time>2013-11-30T09:18:53Z</time>
      </trkpt>
      <trkpt lat="43.72301" lon="7.02845">
        <ele>1003.579</ele>
        <time>2013-11-30T09:19:00Z</time>
      </trkpt>
      <trkpt lat="43.72296" lon="7.02845">
        <ele>1020.457</ele>
        <time>2013-11-30T09:19:48Z</time>
      </trkpt>
      <trkpt lat="43.72301" lon="7.02845">
        <ele>1022.228</ele>
        <time>2013-11-30T09:19:55Z</time>
      </trkpt>
      <trkpt lat="43.72304" lon="7.02844">
        <ele>1025.257</ele>
        <time>2013-11-30T09:20:00Z</time>
      </trkpt>
      <trkpt lat="43.72311" lon="7.02841">
        <ele>1027.838</ele>
        <time>2013-11-30T09:20:08Z</time>
      </trkpt>
      <trkpt lat="43.72312" lon="7.02841">
        <ele>1032.338</ele>
        <time>2013-11-30T09:20:19Z</time>
      </trkpt>
      <trkpt lat="43.72316" lon="7.02836">
        <ele>1033.05</ele>
        <time>2013-11-30T09:20:27Z</time>
      </trkpt>
      <trkpt lat="43.72318" lon="7.02836">
        <ele>1033.369</ele>
        <time>2013-11-30T09:20:31Z</time>
      </trkpt>
      <trkpt lat="43.72316" lon="7.02841">
        <ele>1034.057</ele>
        <time>2013-11-30T09:20:38Z</time>
      </trkpt>
      <trkpt lat="43.72317" lon="7.02844">
        <ele>1038.688</ele>
        <time>2013-11-30T09:20:50Z</time>
      </trkpt>
      <trkpt lat="43.72317" lon="7.02845">
        <ele>1038.355</ele>
        <time>2013-11-30T09:20:56Z</time>
      </trkpt>
      <trkpt lat="43.72316" lon="7.02844">
        <ele>1040.547</ele>
        <time>2013-11-30T09:21:16Z</time>
      </trkpt>
      <trkpt lat="43.72315" lon="7.02853">
        <ele>1041.389</ele>
        <time>2013-11-30T09:21:21Z</time>
      </trkpt>
      <trkpt lat="43.7232" lon="7.02851">
        <ele>1041.696</ele>
        <time>2013-11-30T09:21:26Z</time>
      </trkpt>
      <trkpt lat="43.72321" lon="7.02852">
        <ele>1041.518</ele>
        <time>2013-11-30T09:21:30Z</time>
      </trkpt>
      <trkpt lat="43.72324" lon="7.02861">
        <ele>1041.479</ele>
        <time>2013-11-30T09:21:40Z</time>
      </trkpt>
      <trkpt lat="43.72322" lon="7.0287">
        <ele>1043.731</ele>
        <time>2013-11-30T09:21:48Z</time>
      </trkpt>
      <trkpt lat="43.72321" lon="7.02876">
        <ele>1044.99</ele>
        <time>2013-11-30T09:21:52Z</time>
      </trkpt>
      <trkpt lat="43.72324" lon="7.02879">
        <ele>1045.98</ele>
        <time>2013-11-30T09:21:57Z</time>
      </trkpt>
      <trkpt lat="43.72329" lon="7.02882">
        <ele>1047.378</ele>
        <time>2013-11-30T09:22:05Z</time>
      </trkpt>
      <trkpt lat="43.72333" lon="7.02888">
        <ele>1048.25</ele>
        <time>2013-11-30T09:22:12Z</time>
      </trkpt>
      <trkpt lat="43.72334" lon="7.02886">
        <ele>1049.079</ele>
        <time>2013-11-30T09:22:15Z</time>
      </trkpt>
      <trkpt lat="43.72339" lon="7.0288">
        <ele>1051.692</ele>
        <time>2013-11-30T09:22:24Z</time>
      </trkpt>
      <trkpt lat="43.72342" lon="7.02879">
        <ele>1053.788</ele>
        <time>2013-11-30T09:22:28Z</time>
      </trkpt>
      <trkpt lat="43.72344" lon="7.02881">
        <ele>1054.911</ele>
        <time>2013-11-30T09:22:31Z</time>
      </trkpt>
      <trkpt lat="43.72346" lon="7.02888">
        <ele>1056.96</ele>
        <time>2013-11-30T09:22:40Z</time>
      </trkpt>
      <trkpt lat="43.7235" lon="7.02893">
        <ele>1056.617</ele>
        <time>2013-11-30T09:22:46Z</time>
      </trkpt>
      <trkpt lat="43.72352" lon="7.02895">
        <ele>1060.125</ele>
        <time>2013-11-30T09:22:51Z</time>
      </trkpt>
      <trkpt lat="43.72356" lon="7.029">
        <ele>1060.939</ele>
        <time>2013-11-30T09:22:59Z</time>
      </trkpt>
      <trkpt lat="43.72359" lon="7.029">
        <ele>1060.409</ele>
        <time>2013-11-30T09:23:03Z</time>
      </trkpt>
      <trkpt lat="43.72361" lon="7.02901">
        <ele>1059.917</ele>
        <time>2013-11-30T09:23:08Z</time>
      </trkpt>
      <trkpt lat="43.72366" lon="7.02902">
        <ele>1060.761</ele>
        <time>2013-11-30T09:23:15Z</time>
      </trkpt>
      <trkpt lat="43.72369" lon="7.02897">
        <ele>1059.477</ele>
        <time>2013-11-30T09:23:19Z</time>
      </trkpt>
      <trkpt lat="43.72374" lon="7.02891">
        <ele>1058.039</ele>
        <time>2013-11-30T09:23:26Z</time>
      </trkpt>
      <trkpt lat="43.72376" lon="7.02887">
        <ele>1058.493</ele>
        <time>2013-11-30T09:23:32Z</time>
      </trkpt>
      <trkpt lat="43.72377" lon="7.02885">
        <ele>1054.415</ele>
        <time>2013-11-30T09:23:40Z</time>
      </trkpt>
      <trkpt lat="43.72377" lon="7.02884">
        <ele>1046.954</ele>
        <time>2013-11-30T09:23:55Z</time>
      </trkpt>
      <trkpt lat="43.72378" lon="7.02879">
        <ele>1048.637</ele>
        <time>2013-11-30T09:24:02Z</time>
      </trkpt>
      <trkpt lat="43.7238" lon="7.02876">
        <ele>1054.568</ele>
        <time>2013-11-30T09:24:16Z</time>
      </trkpt>
      <trkpt lat="43.72382" lon="7.02876">
        <ele>1054.539</ele>
        <time>2013-11-30T09:24:22Z</time>
      </trkpt>
      <trkpt lat="43.72384" lon="7.02879">
        <ele>1057.477</ele>
        <time>2013-11-30T09:24:30Z</time>
      </trkpt>
      <trkpt lat="43.72384" lon="7.02881">
        <ele>1061.928</ele>
        <time>2013-11-30T09:24:41Z</time>
      </trkpt>
      <trkpt lat="43.72388" lon="7.02888">
        <ele>1062.848</ele>
        <time>2013-11-30T09:24:46Z</time>
      </trkpt>
      <trkpt lat="43.72391" lon="7.02891">
        <ele>1062.756</ele>
        <time>2013-11-30T09:24:54Z</time>
      </trkpt>
      <trkpt lat="43.7239" lon="7.02887">
        <ele>1064.786</ele>
        <time>2013-11-30T09:29:09Z</time>
      </trkpt>
      <trkpt lat="43.72383" lon="7.02879">
        <ele>1063.474</ele>
        <time>2013-11-30T09:29:14Z</time>
      </trkpt>
      <trkpt lat="43.72379" lon="7.02874">
        <ele>1062.742</ele>
        <time>2013-11-30T09:29:16Z</time>
      </trkpt>
      <trkpt lat="43.72374" lon="7.02879">
        <ele>1061.09</ele>
        <time>2013-11-30T09:29:20Z</time>
      </trkpt>
      <trkpt lat="43.72372" lon="7.02883">
        <ele>1060.158</ele>
        <time>2013-11-30T09:29:22Z</time>
      </trkpt>
      <trkpt lat="43.72363" lon="7.02897">
        <ele>1057.576</ele>
        <time>2013-11-30T09:29:28Z</time>
      </trkpt>
      <trkpt lat="43.72356" lon="7.02899">
        <ele>1053.713</ele>
        <time>2013-11-30T09:29:32Z</time>
      </trkpt>
      <trkpt lat="43.72353" lon="7.02893">
        <ele>1051.792</ele>
        <time>2013-11-30T09:29:34Z</time>
      </trkpt>
      <trkpt lat="43.72348" lon="7.02879">
        <ele>1046.07</ele>
        <time>2013-11-30T09:29:39Z</time>
      </trkpt>
      <trkpt lat="43.72342" lon="7.02881">
        <ele>1043.189</ele>
        <time>2013-11-30T09:29:43Z</time>
      </trkpt>
      <trkpt lat="43.72334" lon="7.02888">
        <ele>1041.034</ele>
        <time>2013-11-30T09:29:47Z</time>
      </trkpt>
      <trkpt lat="43.72328" lon="7.02881">
        <ele>1039.415</ele>
        <time>2013-11-30T09:29:51Z</time>
      </trkpt>
      <trkpt lat="43.72323" lon="7.02875">
        <ele>1038.816</ele>
        <time>2013-11-30T09:29:54Z</time>
      </trkpt>
      <trkpt lat="43.72324" lon="7.02871">
        <ele>1038.169</ele>
        <time>2013-11-30T09:29:56Z</time>
      </trkpt>
      <trkpt lat="43.72325" lon="7.02864">
        <ele>1036.867</ele>
        <time>2013-11-30T09:29:59Z</time>
      </trkpt>
      <trkpt lat="43.72322" lon="7.02852">
        <ele>1033.304</ele>
        <time>2013-11-30T09:30:04Z</time>
      </trkpt>
      <trkpt lat="43.7232" lon="7.02853">
        <ele>1032.566</ele>
        <time>2013-11-30T09:30:06Z</time>
      </trkpt>
      <trkpt lat="43.72317" lon="7.02849">
        <ele>1030.012</ele>
        <time>2013-11-30T09:30:11Z</time>
      </trkpt>
      <trkpt lat="43.72317" lon="7.02847">
        <ele>1029.714</ele>
        <time>2013-11-30T09:30:12Z</time>
      </trkpt>
      <trkpt lat="43.7232" lon="7.02837">
        <ele>1027.983</ele>
        <time>2013-11-30T09:30:17Z</time>
      </trkpt>
      <trkpt lat="43.72319" lon="7.02835">
        <ele>1026.997</ele>
        <time>2013-11-30T09:30:19Z</time>
      </trkpt>
      <trkpt lat="43.72308" lon="7.02843">
        <ele>1023.844</ele>
        <time>2013-11-30T09:30:26Z</time>
      </trkpt>
      <trkpt lat="43.72303" lon="7.02847">
        <ele>1021.953</ele>
        <time>2013-11-30T09:30:29Z</time>
      </trkpt>
      <trkpt lat="43.723" lon="7.02843">
        <ele>1022.543</ele>
        <time>2013-11-30T09:30:33Z</time>
      </trkpt>
      <trkpt lat="43.72301" lon="7.0284">
        <ele>1021.984</ele>
        <time>2013-11-30T09:30:35Z</time>
      </trkpt>
      <trkpt lat="43.72302" lon="7.02837">
        <ele>1021.143</ele>
        <time>2013-11-30T09:30:42Z</time>
      </trkpt>
      <trkpt lat="43.72302" lon="7.02834">
        <ele>1021.983</ele>
        <time>2013-11-30T09:31:48Z</time>
      </trkpt>
      <trkpt lat="43.72301" lon="7.02834">
        <ele>1020.112</ele>
        <time>2013-11-30T09:31:53Z</time>
      </trkpt>
      <trkpt lat="43.723" lon="7.02834">
        <ele>1021.795</ele>
        <time>2013-11-30T09:31:59Z</time>
      </trkpt>
      <trkpt lat="43.72296" lon="7.02836">
        <ele>1020.299</ele>
        <time>2013-11-30T09:32:02Z</time>
      </trkpt>
      <trkpt lat="43.72295" lon="7.02831">
        <ele>1018.427</ele>
        <time>2013-11-30T09:32:07Z</time>
      </trkpt>
      <trkpt lat="43.72294" lon="7.02829">
        <ele>1017.999</ele>
        <time>2013-11-30T09:32:09Z</time>
      </trkpt>
      <trkpt lat="43.72286" lon="7.02835">
        <ele>1014.115</ele>
        <time>2013-11-30T09:32:15Z</time>
      </trkpt>
      <trkpt lat="43.72285" lon="7.02836">
        <ele>1013.104</ele>
        <time>2013-11-30T09:32:16Z</time>
      </trkpt>
      <trkpt lat="43.72282" lon="7.02835">
        <ele>1011.479</ele>
        <time>2013-11-30T09:32:21Z</time>
      </trkpt>
      <trkpt lat="43.72282" lon="7.02833">
        <ele>1012.742</ele>
        <time>2013-11-30T09:32:27Z</time>
      </trkpt>
      <trkpt lat="43.72283" lon="7.02831">
        <ele>1012.25</ele>
        <time>2013-11-30T09:32:29Z</time>
      </trkpt>
      <trkpt lat="43.72281" lon="7.02829">
        <ele>1010.772</ele>
        <time>2013-11-30T09:32:35Z</time>
      </trkpt>
      <trkpt lat="43.7228" lon="7.02829">
        <ele>1012.043</ele>
        <time>2013-11-30T09:32:38Z</time>
      </trkpt>
      <trkpt lat="43.72271" lon="7.02835">
        <ele>1008.888</ele>
        <time>2013-11-30T09:32:44Z</time>
      </trkpt>
      <trkpt lat="43.72267" lon="7.02839">
        <ele>1007.558</ele>
        <time>2013-11-30T09:32:47Z</time>
      </trkpt>
      <trkpt lat="43.72265" lon="7.02837">
        <ele>1006.542</ele>
        <time>2013-11-30T09:32:52Z</time>
      </trkpt>
      <trkpt lat="43.72265" lon="7.02833">
        <ele>1005.062</ele>
        <time>2013-11-30T09:33:05Z</time>
      </trkpt>
      <trkpt lat="43.72265" lon="7.02834">
        <ele>1004.924</ele>
        <time>2013-11-30T09:33:10Z</time>
      </trkpt>
      <trkpt lat="43.72266" lon="7.02832">
        <ele>1007.079</ele>
        <time>2013-11-30T09:33:31Z</time>
      </trkpt>
      <trkpt lat="43.72266" lon="7.02835">
        <ele>1007.376</ele>
        <time>2013-11-30T09:33:36Z</time>
      </trkpt>
      <trkpt lat="43.72266" lon="7.02834">
        <ele>1007.946</ele>
        <time>2013-11-30T09:33:41Z</time>
      </trkpt>
      <trkpt lat="43.72266" lon="7.02832">
        <ele>1007.443</ele>
        <time>2013-11-30T09:33:45Z</time>
      </trkpt>
      <trkpt lat="43.72264" lon="7.02831">
        <ele>1006.712</ele>
        <time>2013-11-30T09:33:47Z</time>
      </trkpt>
      <trkpt lat="43.72264" lon="7.02823">
        <ele>1003.668</ele>
        <time>2013-11-30T09:33:53Z</time>
      </trkpt>
      <trkpt lat="43.72262" lon="7.02824">
        <ele>1002.901</ele>
        <time>2013-11-30T09:33:57Z</time>
      </trkpt>
      <trkpt lat="43.72254" lon="7.0283">
        <ele>1000.68</ele>
        <time>2013-11-30T09:34:03Z</time>
      </trkpt>
      <trkpt lat="43.72255" lon="7.02829">
        <ele>999.626</ele>
        <time>2013-11-30T09:34:07Z</time>
      </trkpt>
      <trkpt lat="43.72256" lon="7.02823">
        <ele>997.957</ele>
        <time>2013-11-30T09:34:11Z</time>
      </trkpt>
      <trkpt lat="43.72255" lon="7.02822">
        <ele>996.672</ele>
        <time>2013-11-30T09:34:17Z</time>
      </trkpt>
      <trkpt lat="43.72251" lon="7.02824">
        <ele>994.369</ele>
        <time>2013-11-30T09:34:22Z</time>
      </trkpt>
      <trkpt lat="43.72252" lon="7.02823">
        <ele>992.93</ele>
        <time>2013-11-30T09:34:26Z</time>
      </trkpt>
      <trkpt lat="43.72252" lon="7.02819">
        <ele>991.483</ele>
        <time>2013-11-30T09:34:32Z</time>
      </trkpt>
      <trkpt lat="43.72252" lon="7.02818">
        <ele>992.057</ele>
        <time>2013-11-30T09:34:34Z</time>
      </trkpt>
      <trkpt lat="43.72253" lon="7.02816">
        <ele>991.402</ele>
        <time>2013-11-30T09:34:36Z</time>
      </trkpt>
      <trkpt lat="43.72251" lon="7.02815">
        <ele>989.261</ele>
        <time>2013-11-30T09:34:41Z</time>
      </trkpt>
      <trkpt lat="43.72246" lon="7.02819">
        <ele>986.369</ele>
        <time>2013-11-30T09:34:48Z</time>
      </trkpt>
      <trkpt lat="43.72239" lon="7.02827">
        <ele>982.036</ele>
        <time>2013-11-30T09:34:54Z</time>
      </trkpt>
      <trkpt lat="43.72234" lon="7.02831">
        <ele>979.103</ele>
        <time>2013-11-30T09:34:58Z</time>
      </trkpt>
      <trkpt lat="43.72231" lon="7.02833">
        <ele>977.059</ele>
        <time>2013-11-30T09:35:02Z</time>
      </trkpt>
      <trkpt lat="43.72234" lon="7.02819">
        <ele>975.678</ele>
        <time>2013-11-30T09:35:07Z</time>
      </trkpt>
      <trkpt lat="43.72235" lon="7.02814">
        <ele>974.858</ele>
        <time>2013-11-30T09:35:09Z</time>
      </trkpt>
      <trkpt lat="43.72236" lon="7.02807">
        <ele>972.234</ele>
        <time>2013-11-30T09:35:13Z</time>
      </trkpt>
      <trkpt lat="43.72232" lon="7.02811">
        <ele>970.047</ele>
        <time>2013-11-30T09:35:18Z</time>
      </trkpt>
      <trkpt lat="43.72227" lon="7.02816">
        <ele>967.909</ele>
        <time>2013-11-30T09:35:24Z</time>
      </trkpt>
      <trkpt lat="43.72225" lon="7.02813">
        <ele>966.066</ele>
        <time>2013-11-30T09:35:29Z</time>
      </trkpt>
      <trkpt lat="43.72223" lon="7.02811">
        <ele>966.181</ele>
        <time>2013-11-30T09:35:34Z</time>
      </trkpt>
      <trkpt lat="43.72224" lon="7.02812">
        <ele>967.165</ele>
        <time>2013-11-30T09:35:39Z</time>
      </trkpt>
      <trkpt lat="43.72224" lon="7.02814">
        <ele>968.198</ele>
        <time>2013-11-30T09:35:43Z</time>
      </trkpt>
      <trkpt lat="43.72224" lon="7.02812">
        <ele>969.66</ele>
        <time>2013-11-30T09:35:46Z</time>
      </trkpt>
      <trkpt lat="43.72221" lon="7.0281">
        <ele>969.175</ele>
        <time>2013-11-30T09:35:51Z</time>
      </trkpt>
      <trkpt lat="43.72218" lon="7.02813">
        <ele>968.292</ele>
        <time>2013-11-30T09:35:55Z</time>
      </trkpt>
      <trkpt lat="43.72218" lon="7.02806">
        <ele>967.957</ele>
        <time>2013-11-30T09:35:58Z</time>
      </trkpt>
      <trkpt lat="43.72219" lon="7.02797">
        <ele>967.089</ele>
        <time>2013-11-30T09:36:03Z</time>
      </trkpt>
      <trkpt lat="43.72216" lon="7.02797">
        <ele>965.868</ele>
        <time>2013-11-30T09:36:05Z</time>
      </trkpt>
      <trkpt lat="43.72213" lon="7.02805">
        <ele>963.316</ele>
        <time>2013-11-30T09:36:10Z</time>
      </trkpt>
      <trkpt lat="43.72207" lon="7.02808">
        <ele>958.216</ele>
        <time>2013-11-30T09:36:16Z</time>
      </trkpt>
      <trkpt lat="43.72208" lon="7.02806">
        <ele>957.632</ele>
        <time>2013-11-30T09:36:24Z</time>
      </trkpt>
      <trkpt lat="43.72206" lon="7.02804">
        <ele>963.046</ele>
        <time>2013-11-30T09:36:29Z</time>
      </trkpt>
      <trkpt lat="43.72206" lon="7.028">
        <ele>964.165</ele>
        <time>2013-11-30T09:36:34Z</time>
      </trkpt>
      <trkpt lat="43.72205" lon="7.028">
        <ele>964.063</ele>
        <time>2013-11-30T09:36:35Z</time>
      </trkpt>
      <trkpt lat="43.72202" lon="7.02799">
        <ele>963.935</ele>
        <time>2013-11-30T09:36:42Z</time>
      </trkpt>
      <trkpt lat="43.72204" lon="7.02796">
        <ele>963.926</ele>
        <time>2013-11-30T09:36:49Z</time>
      </trkpt>
      <trkpt lat="43.72206" lon="7.02795">
        <ele>963.79</ele>
        <time>2013-11-30T09:36:53Z</time>
      </trkpt>
      <trkpt lat="43.72202" lon="7.02788">
        <ele>962.264</ele>
        <time>2013-11-30T09:36:58Z</time>
      </trkpt>
      <trkpt lat="43.72197" lon="7.02792">
        <ele>958.114</ele>
        <time>2013-11-30T09:37:02Z</time>
      </trkpt>
      <trkpt lat="43.7219" lon="7.02796">
        <ele>953.583</ele>
        <time>2013-11-30T09:37:07Z</time>
      </trkpt>
      <trkpt lat="43.72181" lon="7.02806">
        <ele>946.337</ele>
        <time>2013-11-30T09:37:12Z</time>
      </trkpt>
      <trkpt lat="43.72177" lon="7.02821">
        <ele>940.456</ele>
        <time>2013-11-30T09:37:16Z</time>
      </trkpt>
      <trkpt lat="43.72172" lon="7.02818">
        <ele>938.207</ele>
        <time>2013-11-30T09:37:19Z</time>
      </trkpt>
      <trkpt lat="43.72167" lon="7.02818">
        <ele>936.198</ele>
        <time>2013-11-30T09:37:22Z</time>
      </trkpt>
      <trkpt lat="43.72161" lon="7.02821">
        <ele>934.111</ele>
        <time>2013-11-30T09:37:26Z</time>
      </trkpt>
      <trkpt lat="43.7216" lon="7.02822">
        <ele>933.675</ele>
        <time>2013-11-30T09:37:28Z</time>
      </trkpt>
      <trkpt lat="43.72158" lon="7.0283">
        <ele>932.91</ele>
        <time>2013-11-30T09:37:34Z</time>
      </trkpt>
      <trkpt lat="43.72158" lon="7.02832">
        <ele>934.093</ele>
        <time>2013-11-30T09:37:40Z</time>
      </trkpt>
      <trkpt lat="43.72159" lon="7.02835">
        <ele>932.731</ele>
        <time>2013-11-30T09:37:45Z</time>
      </trkpt>
      <trkpt lat="43.72156" lon="7.02844">
        <ele>931.76</ele>
        <time>2013-11-30T09:37:48Z</time>
      </trkpt>
      <trkpt lat="43.72155" lon="7.02848">
        <ele>931.971</ele>
        <time>2013-11-30T09:37:50Z</time>
      </trkpt>
      <trkpt lat="43.72153" lon="7.02851">
        <ele>934.256</ele>
        <time>2013-11-30T09:37:57Z</time>
      </trkpt>
      <trkpt lat="43.7215" lon="7.02852">
        <ele>940.657</ele>
        <time>2013-11-30T09:38:03Z</time>
      </trkpt>
      <trkpt lat="43.72149" lon="7.02855">
        <ele>940.264</ele>
        <time>2013-11-30T09:38:07Z</time>
      </trkpt>
      <trkpt lat="43.72145" lon="7.0286">
        <ele>939.06</ele>
        <time>2013-11-30T09:38:12Z</time>
      </trkpt>
      <trkpt lat="43.72143" lon="7.02853">
        <ele>936.688</ele>
        <time>2013-11-30T09:38:17Z</time>
      </trkpt>
      <trkpt lat="43.72139" lon="7.02847">
        <ele>937.638</ele>
        <time>2013-11-30T09:38:22Z</time>
      </trkpt>
      <trkpt lat="43.72135" lon="7.02843">
        <ele>935.957</ele>
        <time>2013-11-30T09:38:26Z</time>
      </trkpt>
      <trkpt lat="43.72132" lon="7.02847">
        <ele>934.395</ele>
        <time>2013-11-30T09:38:30Z</time>
      </trkpt>
      <trkpt lat="43.72129" lon="7.02861">
        <ele>930.883</ele>
        <time>2013-11-30T09:38:35Z</time>
      </trkpt>
      <trkpt lat="43.72126" lon="7.02865">
        <ele>929.021</ele>
        <time>2013-11-30T09:38:37Z</time>
      </trkpt>
      <trkpt lat="43.72119" lon="7.02871">
        <ele>927.872</ele>
        <time>2013-11-30T09:38:42Z</time>
      </trkpt>
      <trkpt lat="43.72117" lon="7.02862">
        <ele>925.572</ele>
        <time>2013-11-30T09:38:45Z</time>
      </trkpt>
      <trkpt lat="43.72109" lon="7.02845">
        <ele>920.812</ele>
        <time>2013-11-30T09:38:51Z</time>
      </trkpt>
      <trkpt lat="43.72106" lon="7.0284">
        <ele>920.623</ele>
        <time>2013-11-30T09:38:53Z</time>
      </trkpt>
      <trkpt lat="43.72099" lon="7.02838">
        <ele>918.761</ele>
        <time>2013-11-30T09:38:58Z</time>
      </trkpt>
      <trkpt lat="43.72092" lon="7.02839">
        <ele>915.99</ele>
        <time>2013-11-30T09:39:02Z</time>
      </trkpt>
      <trkpt lat="43.72086" lon="7.02845">
        <ele>914.436</ele>
        <time>2013-11-30T09:39:06Z</time>
      </trkpt>
      <trkpt lat="43.72086" lon="7.02846">
        <ele>911.491</ele>
        <time>2013-11-30T09:39:20Z</time>
      </trkpt>
      <trkpt lat="43.72086" lon="7.02847">
        <ele>910.904</ele>
        <time>2013-11-30T09:39:24Z</time>
      </trkpt>
      <trkpt lat="43.72088" lon="7.02848">
        <ele>911.728</ele>
        <time>2013-11-30T09:39:46Z</time>
      </trkpt>
      <trkpt lat="43.72086" lon="7.02845">
        <ele>909.092</ele>
        <time>2013-11-30T09:39:52Z</time>
      </trkpt>
      <trkpt lat="43.7208" lon="7.02828">
        <ele>910.54</ele>
        <time>2013-11-30T09:39:57Z</time>
      </trkpt>
      <trkpt lat="43.7208" lon="7.02816">
        <ele>909.778</ele>
        <time>2013-11-30T09:40:00Z</time>
      </trkpt>
      <trkpt lat="43.72077" lon="7.02814">
        <ele>907.486</ele>
        <time>2013-11-30T09:40:04Z</time>
      </trkpt>
      <trkpt lat="43.72072" lon="7.02819">
        <ele>905.523</ele>
        <time>2013-11-30T09:40:06Z</time>
      </trkpt>
      <trkpt lat="43.72063" lon="7.02813">
        <ele>899.585</ele>
        <time>2013-11-30T09:40:10Z</time>
      </trkpt>
      <trkpt lat="43.72056" lon="7.02806">
        <ele>895.46</ele>
        <time>2013-11-30T09:40:12Z</time>
      </trkpt>
      <trkpt lat="43.7205" lon="7.02798">
        <ele>893.091</ele>
        <time>2013-11-30T09:40:14Z</time>
      </trkpt>
      <trkpt lat="43.72042" lon="7.02789">
        <ele>893.314</ele>
        <time>2013-11-30T09:40:16Z</time>
      </trkpt>
      <trkpt lat="43.72018" lon="7.02777">
        <ele>893.254</ele>
        <time>2013-11-30T09:40:21Z</time>
      </trkpt>
      <trkpt lat="43.72009" lon="7.0278">
        <ele>891.424</ele>
        <time>2013-11-30T09:40:23Z</time>
      </trkpt>
      <trkpt lat="43.72001" lon="7.02786">
        <ele>889.484</ele>
        <time>2013-11-30T09:40:25Z</time>
      </trkpt>
      <trkpt lat="43.71977" lon="7.02792">
        <ele>884.743</ele>
        <time>2013-11-30T09:40:30Z</time>
      </trkpt>
      <trkpt lat="43.71972" lon="7.02791">
        <ele>884.353</ele>
        <time>2013-11-30T09:40:31Z</time>
      </trkpt>
      <trkpt lat="43.71948" lon="7.02796">
        <ele>881.487</ele>
        <time>2013-11-30T09:40:36Z</time>
      </trkpt>
      <trkpt lat="43.71935" lon="7.02793">
        <ele>878.874</ele>
        <time>2013-11-30T09:40:39Z</time>
      </trkpt>
      <trkpt lat="43.7192" lon="7.02792">
        <ele>876.295</ele>
        <time>2013-11-30T09:40:42Z</time>
      </trkpt>
      <trkpt lat="43.71914" lon="7.02791">
        <ele>875.536</ele>
        <time>2013-11-30T09:40:43Z</time>
      </trkpt>
      <trkpt lat="43.71889" lon="7.02768">
        <ele>872.298</ele>
        <time>2013-11-30T09:40:48Z</time>
      </trkpt>
      <trkpt lat="43.71877" lon="7.02767">
        <ele>871.2</ele>
        <time>2013-11-30T09:40:51Z</time>
      </trkpt>
      <trkpt lat="43.71869" lon="7.02757">
        <ele>869.789</ele>
        <time>2013-11-30T09:40:54Z</time>
      </trkpt>
      <trkpt lat="43.71865" lon="7.02757">
        <ele>869.351</ele>
        <time>2013-11-30T09:40:55Z</time>
      </trkpt>
      <trkpt lat="43.71844" lon="7.0275">
        <ele>864.524</ele>
        <time>2013-11-30T09:41:00Z</time>
      </trkpt>
      <trkpt lat="43.71839" lon="7.02749">
        <ele>863.804</ele>
        <time>2013-11-30T09:41:01Z</time>
      </trkpt>
      <trkpt lat="43.71829" lon="7.02744">
        <ele>861.43</ele>
        <time>2013-11-30T09:41:03Z</time>
      </trkpt>
      <trkpt lat="43.71794" lon="7.02742">
        <ele>856.655</ele>
        <time>2013-11-30T09:41:08Z</time>
      </trkpt>
      <trkpt lat="43.71774" lon="7.02741">
        <ele>854.347</ele>
        <time>2013-11-30T09:41:11Z</time>
      </trkpt>
      <trkpt lat="43.71743" lon="7.02751">
        <ele>849.674</ele>
        <time>2013-11-30T09:41:16Z</time>
      </trkpt>
      <trkpt lat="43.71729" lon="7.02756">
        <ele>847.32</ele>
        <time>2013-11-30T09:41:18Z</time>
      </trkpt>
      <trkpt lat="43.71701" lon="7.02757">
        <ele>843.167</ele>
        <time>2013-11-30T09:41:23Z</time>
      </trkpt>
      <trkpt lat="43.71698" lon="7.02758">
        <ele>842.72</ele>
        <time>2013-11-30T09:41:24Z</time>
      </trkpt>
      <trkpt lat="43.71697" lon="7.02762">
        <ele>842.14</ele>
        <time>2013-11-30T09:41:29Z</time>
      </trkpt>
      <trkpt lat="43.71697" lon="7.02762">
        <ele>842.683</ele>
        <time>2013-11-30T09:41:33Z</time>
      </trkpt>
      <trkpt lat="43.71705" lon="7.02775">
        <ele>843.285</ele>
        <time>2013-11-30T09:41:39Z</time>
      </trkpt>
      <trkpt lat="43.71721" lon="7.02795">
        <ele>844.375</ele>
        <time>2013-11-30T09:41:46Z</time>
      </trkpt>
      <trkpt lat="43.7174" lon="7.0282">
        <ele>845.266</ele>
        <time>2013-11-30T09:41:53Z</time>
      </trkpt>
      <trkpt lat="43.71763" lon="7.02853">
        <ele>845.174</ele>
        <time>2013-11-30T09:42:02Z</time>
      </trkpt>
      <trkpt lat="43.71788" lon="7.0289">
        <ele>845.024</ele>
        <time>2013-11-30T09:42:11Z</time>
      </trkpt>
      <trkpt lat="43.71811" lon="7.02925">
        <ele>844.151</ele>
        <time>2013-11-30T09:42:19Z</time>
      </trkpt>
      <trkpt lat="43.71836" lon="7.02957">
        <ele>842.044</ele>
        <time>2013-11-30T09:42:26Z</time>
      </trkpt>
      <trkpt lat="43.71856" lon="7.02982">
        <ele>839.733</ele>
        <time>2013-11-30T09:42:30Z</time>
      </trkpt>
      <trkpt lat="43.71872" lon="7.03007">
        <ele>837.242</ele>
        <time>2013-11-30T09:42:34Z</time>
      </trkpt>
      <trkpt lat="43.71898" lon="7.03059">
        <ele>831.487</ele>
        <time>2013-11-30T09:42:41Z</time>
      </trkpt>
      <trkpt lat="43.71902" lon="7.03067">
        <ele>830.888</ele>
        <time>2013-11-30T09:42:42Z</time>
      </trkpt>
      <trkpt lat="43.71914" lon="7.03112">
        <ele>827.572</ele>
        <time>2013-11-30T09:42:47Z</time>
      </trkpt>
      <trkpt lat="43.71917" lon="7.03143">
        <ele>826.046</ele>
        <time>2013-11-30T09:42:51Z</time>
      </trkpt>
      <trkpt lat="43.71918" lon="7.03172">
        <ele>825.628</ele>
        <time>2013-11-30T09:42:55Z</time>
      </trkpt>
      <trkpt lat="43.71918" lon="7.03198">
        <ele>825.229</ele>
        <time>2013-11-30T09:42:58Z</time>
      </trkpt>
      <trkpt lat="43.71926" lon="7.03236">
        <ele>826.206</ele>
        <time>2013-11-30T09:43:03Z</time>
      </trkpt>
      <trkpt lat="43.71934" lon="7.03248">
        <ele>827.469</ele>
        <time>2013-11-30T09:43:06Z</time>
      </trkpt>
      <trkpt lat="43.71954" lon="7.03267">
        <ele>829.307</ele>
        <time>2013-11-30T09:43:14Z</time>
      </trkpt>
      <trkpt lat="43.71966" lon="7.03285">
        <ele>828.812</ele>
        <time>2013-11-30T09:43:20Z</time>
      </trkpt>
      <trkpt lat="43.7198" lon="7.03309">
        <ele>828.129</ele>
        <time>2013-11-30T09:43:26Z</time>
      </trkpt>
      <trkpt lat="43.71992" lon="7.03336">
        <ele>825.621</ele>
        <time>2013-11-30T09:43:30Z</time>
      </trkpt>
      <trkpt lat="43.72017" lon="7.03386">
        <ele>821.056</ele>
        <time>2013-11-30T09:43:36Z</time>
      </trkpt>
      <trkpt lat="43.72032" lon="7.03422">
        <ele>818.518</ele>
        <time>2013-11-30T09:43:40Z</time>
      </trkpt>
      <trkpt lat="43.72037" lon="7.03457">
        <ele>816.304</ele>
        <time>2013-11-30T09:43:44Z</time>
      </trkpt>
      <trkpt lat="43.72038" lon="7.03481">
        <ele>815.288</ele>
        <time>2013-11-30T09:43:48Z</time>
      </trkpt>
      <trkpt lat="43.72048" lon="7.0351">
        <ele>813.89</ele>
        <time>2013-11-30T09:43:54Z</time>
      </trkpt>
      <trkpt lat="43.72063" lon="7.03524">
        <ele>813.293</ele>
        <time>2013-11-30T09:43:59Z</time>
      </trkpt>
      <trkpt lat="43.72064" lon="7.03531">
        <ele>812.814</ele>
        <time>2013-11-30T09:44:05Z</time>
      </trkpt>
      <trkpt lat="43.72063" lon="7.03529">
        <ele>812.995</ele>
        <time>2013-11-30T09:44:11Z</time>
      </trkpt>
      <trkpt lat="43.72055" lon="7.03525">
        <ele>812.433</ele>
        <time>2013-11-30T09:44:17Z</time>
      </trkpt>
      <trkpt lat="43.72039" lon="7.03515">
        <ele>811.854</ele>
        <time>2013-11-30T09:44:24Z</time>
      </trkpt>
      <trkpt lat="43.72023" lon="7.03504">
        <ele>812.433</ele>
        <time>2013-11-30T09:44:29Z</time>
      </trkpt>
      <trkpt lat="43.72014" lon="7.03483">
        <ele>812.372</ele>
        <time>2013-11-30T09:44:34Z</time>
      </trkpt>
      <trkpt lat="43.72016" lon="7.03475">
        <ele>811.992</ele>
        <time>2013-11-30T09:44:36Z</time>
      </trkpt>
      <trkpt lat="43.72014" lon="7.03437">
        <ele>804.927</ele>
        <time>2013-11-30T09:44:43Z</time>
      </trkpt>
      <trkpt lat="43.72004" lon="7.03419">
        <ele>801.182</ele>
        <time>2013-11-30T09:44:47Z</time>
      </trkpt>
      <trkpt lat="43.71998" lon="7.03411">
        <ele>797.637</ele>
        <time>2013-11-30T09:44:49Z</time>
      </trkpt>
      <trkpt lat="43.71971" lon="7.03388">
        <ele>798.276</ele>
        <time>2013-11-30T09:44:54Z</time>
      </trkpt>
      <trkpt lat="43.71955" lon="7.03379">
        <ele>798.399</ele>
        <time>2013-11-30T09:44:57Z</time>
      </trkpt>
      <trkpt lat="43.71943" lon="7.03373">
        <ele>799.011</ele>
        <time>2013-11-30T09:44:59Z</time>
      </trkpt>
      <trkpt lat="43.71932" lon="7.03371">
        <ele>797.351</ele>
        <time>2013-11-30T09:45:01Z</time>
      </trkpt>
      <trkpt lat="43.71901" lon="7.03384">
        <ele>795.29</ele>
        <time>2013-11-30T09:45:06Z</time>
      </trkpt>
      <trkpt lat="43.71883" lon="7.03391">
        <ele>792.48</ele>
        <time>2013-11-30T09:45:09Z</time>
      </trkpt>
      <trkpt lat="43.71863" lon="7.03386">
        <ele>787.304</ele>
        <time>2013-11-30T09:45:13Z</time>
      </trkpt>
      <trkpt lat="43.71846" lon="7.03363">
        <ele>783.673</ele>
        <time>2013-11-30T09:45:17Z</time>
      </trkpt>
      <trkpt lat="43.71829" lon="7.03326">
        <ele>773.224</ele>
        <time>2013-11-30T09:45:22Z</time>
      </trkpt>
      <trkpt lat="43.71818" lon="7.03283">
        <ele>765.183</ele>
        <time>2013-11-30T09:45:27Z</time>
      </trkpt>
      <trkpt lat="43.71817" lon="7.03261">
        <ele>762.857</ele>
        <time>2013-11-30T09:45:30Z</time>
      </trkpt>
      <trkpt lat="43.7181" lon="7.03237">
        <ele>758.734</ele>
        <time>2013-11-30T09:45:34Z</time>
      </trkpt>
      <trkpt lat="43.71803" lon="7.03205">
        <ele>754.479</ele>
        <time>2013-11-30T09:45:39Z</time>
      </trkpt>
      <trkpt lat="43.71795" lon="7.0318">
        <ele>756.838</ele>
        <time>2013-11-30T09:45:43Z</time>
      </trkpt>
      <trkpt lat="43.71786" lon="7.03176">
        <ele>762.738</ele>
        <time>2013-11-30T09:45:47Z</time>
      </trkpt>
      <trkpt lat="43.71785" lon="7.03176">
        <ele>763.392</ele>
        <time>2013-11-30T09:45:48Z</time>
      </trkpt>
      <trkpt lat="43.71781" lon="7.0318">
        <ele>762.573</ele>
        <time>2013-11-30T09:45:55Z</time>
      </trkpt>
      <trkpt lat="43.71779" lon="7.03181">
        <ele>762.673</ele>
        <time>2013-11-30T09:45:57Z</time>
      </trkpt>
      <trkpt lat="43.71775" lon="7.03184">
        <ele>763.035</ele>
        <time>2013-11-30T09:46:03Z</time>
      </trkpt>
      <trkpt lat="43.7177" lon="7.03187">
        <ele>762.163</ele>
        <time>2013-11-30T09:46:08Z</time>
      </trkpt>
      <trkpt lat="43.71769" lon="7.03187">
        <ele>761.663</ele>
        <time>2013-11-30T09:46:11Z</time>
      </trkpt>
      <trkpt lat="43.71764" lon="7.03186">
        <ele>759.928</ele>
        <time>2013-11-30T09:46:14Z</time>
      </trkpt>
      <trkpt lat="43.71754" lon="7.03181">
        <ele>754.661</ele>
        <time>2013-11-30T09:46:20Z</time>
      </trkpt>
      <trkpt lat="43.7175" lon="7.03177">
        <ele>752.545</ele>
        <time>2013-11-30T09:46:25Z</time>
      </trkpt>
      <trkpt lat="43.7174" lon="7.03167">
        <ele>750.094</ele>
        <time>2013-11-30T09:46:31Z</time>
      </trkpt>
      <trkpt lat="43.71726" lon="7.03156">
        <ele>750.095</ele>
        <time>2013-11-30T09:46:36Z</time>
      </trkpt>
      <trkpt lat="43.7171" lon="7.03153">
        <ele>751.117</ele>
        <time>2013-11-30T09:46:40Z</time>
      </trkpt>
      <trkpt lat="43.7169" lon="7.03142">
        <ele>751.089</ele>
        <time>2013-11-30T09:46:45Z</time>
      </trkpt>
      <trkpt lat="43.71682" lon="7.03131">
        <ele>748.646</ele>
        <time>2013-11-30T09:46:49Z</time>
      </trkpt>
      <trkpt lat="43.71678" lon="7.03122">
        <ele>746.063</ele>
        <time>2013-11-30T09:46:54Z</time>
      </trkpt>
      <trkpt lat="43.71669" lon="7.03104">
        <ele>743.324</ele>
        <time>2013-11-30T09:46:59Z</time>
      </trkpt>
      <trkpt lat="43.71664" lon="7.03091">
        <ele>739.509</ele>
        <time>2013-11-30T09:47:03Z</time>
      </trkpt>
      <trkpt lat="43.71659" lon="7.03084">
        <ele>735.27</ele>
        <time>2013-11-30T09:47:05Z</time>
      </trkpt>
      <trkpt lat="43.71646" lon="7.03069">
        <ele>733.459</ele>
        <time>2013-11-30T09:47:08Z</time>
      </trkpt>
      <trkpt lat="43.71631" lon="7.0305">
        <ele>736.147</ele>
        <time>2013-11-30T09:47:12Z</time>
      </trkpt>
      <trkpt lat="43.71604" lon="7.03049">
        <ele>739.685</ele>
        <time>2013-11-30T09:47:17Z</time>
      </trkpt>
      <trkpt lat="43.71583" lon="7.03049">
        <ele>740.175</ele>
        <time>2013-11-30T09:47:21Z</time>
      </trkpt>
      <trkpt lat="43.71562" lon="7.03042">
        <ele>738.464</ele>
        <time>2013-11-30T09:47:25Z</time>
      </trkpt>
      <trkpt lat="43.7154" lon="7.03029">
        <ele>738.525</ele>
        <time>2013-11-30T09:47:29Z</time>
      </trkpt>
      <trkpt lat="43.71521" lon="7.0303">
        <ele>739.038</ele>
        <time>2013-11-30T09:47:33Z</time>
      </trkpt>
      <trkpt lat="43.71501" lon="7.03036">
        <ele>739.953</ele>
        <time>2013-11-30T09:47:37Z</time>
      </trkpt>
      <trkpt lat="43.71485" lon="7.03042">
        <ele>741.717</ele>
        <time>2013-11-30T09:47:40Z</time>
      </trkpt>
      <trkpt lat="43.7146" lon="7.03042">
        <ele>742.438</ele>
        <time>2013-11-30T09:47:46Z</time>
      </trkpt>
      <trkpt lat="43.71452" lon="7.03048">
        <ele>743.18</ele>
        <time>2013-11-30T09:47:48Z</time>
      </trkpt>
      <trkpt lat="43.7143" lon="7.03064">
        <ele>744.002</ele>
        <time>2013-11-30T09:47:54Z</time>
      </trkpt>
      <trkpt lat="43.7143" lon="7.0307">
        <ele>739.982</ele>
        <time>2013-11-30T09:47:58Z</time>
      </trkpt>
      <trkpt lat="43.71436" lon="7.03071">
        <ele>738.74</ele>
        <time>2013-11-30T09:48:01Z</time>
      </trkpt>
      <trkpt lat="43.7145" lon="7.03067">
        <ele>735.648</ele>
        <time>2013-11-30T09:48:06Z</time>
      </trkpt>
      <trkpt lat="43.7147" lon="7.03071">
        <ele>732.254</ele>
        <time>2013-11-30T09:48:11Z</time>
      </trkpt>
      <trkpt lat="43.71473" lon="7.03074">
        <ele>731.643</ele>
        <time>2013-11-30T09:48:12Z</time>
      </trkpt>
      <trkpt lat="43.71489" lon="7.03081">
        <ele>726.468</ele>
        <time>2013-11-30T09:48:17Z</time>
      </trkpt>
      <trkpt lat="43.71498" lon="7.03085">
        <ele>724.353</ele>
        <time>2013-11-30T09:48:21Z</time>
      </trkpt>
      <trkpt lat="43.71495" lon="7.03084">
        <ele>721.391</ele>
        <time>2013-11-30T09:48:38Z</time>
      </trkpt>
      <trkpt lat="43.71497" lon="7.03085">
        <ele>721.222</ele>
        <time>2013-11-30T09:48:41Z</time>
      </trkpt>
      <trkpt lat="43.71503" lon="7.03084">
        <ele>718.015</ele>
        <time>2013-11-30T09:48:45Z</time>
      </trkpt>
      <trkpt lat="43.71517" lon="7.03087">
        <ele>715.034</ele>
        <time>2013-11-30T09:48:49Z</time>
      </trkpt>
      <trkpt lat="43.71521" lon="7.0309">
        <ele>716.057</ele>
        <time>2013-11-30T09:48:50Z</time>
      </trkpt>
      <trkpt lat="43.71532" lon="7.031">
        <ele>717.695</ele>
        <time>2013-11-30T09:48:53Z</time>
      </trkpt>
      <trkpt lat="43.71555" lon="7.0312">
        <ele>714.862</ele>
        <time>2013-11-30T09:48:59Z</time>
      </trkpt>
      <trkpt lat="43.71563" lon="7.03126">
        <ele>713.813</ele>
        <time>2013-11-30T09:49:01Z</time>
      </trkpt>
      <trkpt lat="43.71576" lon="7.03129">
        <ele>712.607</ele>
        <time>2013-11-30T09:49:05Z</time>
      </trkpt>
      <trkpt lat="43.71577" lon="7.03128">
        <ele>712.589</ele>
        <time>2013-11-30T09:49:06Z</time>
      </trkpt>
      <trkpt lat="43.7159" lon="7.0313">
        <ele>709.879</ele>
        <time>2013-11-30T09:49:12Z</time>
      </trkpt>
      <trkpt lat="43.71602" lon="7.03142">
        <ele>714.159</ele>
        <time>2013-11-30T09:49:16Z</time>
      </trkpt>
      <trkpt lat="43.71602" lon="7.03146">
        <ele>712.926</ele>
        <time>2013-11-30T09:49:17Z</time>
      </trkpt>
      <trkpt lat="43.71596" lon="7.03178">
        <ele>709.069</ele>
        <time>2013-11-30T09:49:23Z</time>
      </trkpt>
      <trkpt lat="43.71594" lon="7.03188">
        <ele>707.145</ele>
        <time>2013-11-30T09:49:25Z</time>
      </trkpt>
      <trkpt lat="43.71593" lon="7.03203">
        <ele>703.779</ele>
        <time>2013-11-30T09:49:28Z</time>
      </trkpt>
      <trkpt lat="43.71593" lon="7.03223">
        <ele>699.907</ele>
        <time>2013-11-30T09:49:32Z</time>
      </trkpt>
      <trkpt lat="43.71595" lon="7.0325">
        <ele>695.65</ele>
        <time>2013-11-30T09:49:37Z</time>
      </trkpt>
      <trkpt lat="43.71595" lon="7.03286">
        <ele>690.585</ele>
        <time>2013-11-30T09:49:42Z</time>
      </trkpt>
      <trkpt lat="43.71596" lon="7.03301">
        <ele>688.715</ele>
        <time>2013-11-30T09:49:44Z</time>
      </trkpt>
      <trkpt lat="43.71598" lon="7.03321">
        <ele>685.662</ele>
        <time>2013-11-30T09:49:48Z</time>
      </trkpt>
      <trkpt lat="43.71595" lon="7.03329">
        <ele>682.933</ele>
        <time>2013-11-30T09:49:52Z</time>
      </trkpt>
      <trkpt lat="43.71586" lon="7.03319">
        <ele>680.199</ele>
        <time>2013-11-30T09:49:55Z</time>
      </trkpt>
      <trkpt lat="43.71577" lon="7.03304">
        <ele>676.17</ele>
        <time>2013-11-30T09:49:59Z</time>
      </trkpt>
      <trkpt lat="43.71567" lon="7.03282">
        <ele>675.723</ele>
        <time>2013-11-30T09:50:03Z</time>
      </trkpt>
      <trkpt lat="43.71546" lon="7.03252">
        <ele>669.919</ele>
        <time>2013-11-30T09:50:10Z</time>
      </trkpt>
      <trkpt lat="43.71543" lon="7.03248">
        <ele>668.999</ele>
        <time>2013-11-30T09:50:11Z</time>
      </trkpt>
      <trkpt lat="43.7154" lon="7.03251">
        <ele>665.849</ele>
        <time>2013-11-30T09:50:14Z</time>
      </trkpt>
      <trkpt lat="43.71538" lon="7.03266">
        <ele>663.387</ele>
        <time>2013-11-30T09:50:17Z</time>
      </trkpt>
      <trkpt lat="43.7154" lon="7.03294">
        <ele>661.024</ele>
        <time>2013-11-30T09:50:22Z</time>
      </trkpt>
      <trkpt lat="43.71538" lon="7.03298">
        <ele>659.441</ele>
        <time>2013-11-30T09:50:25Z</time>
      </trkpt>
      <trkpt lat="43.71529" lon="7.03284">
        <ele>655.268</ele>
        <time>2013-11-30T09:50:29Z</time>
      </trkpt>
      <trkpt lat="43.71523" lon="7.03275">
        <ele>652.733</ele>
        <time>2013-11-30T09:50:31Z</time>
      </trkpt>
      <trkpt lat="43.71517" lon="7.03267">
        <ele>652.796</ele>
        <time>2013-11-30T09:50:33Z</time>
      </trkpt>
      <trkpt lat="43.71507" lon="7.03269">
        <ele>651.209</ele>
        <time>2013-11-30T09:50:38Z</time>
      </trkpt>
      <trkpt lat="43.71508" lon="7.0328">
        <ele>648.441</ele>
        <time>2013-11-30T09:50:42Z</time>
      </trkpt>
      <trkpt lat="43.71506" lon="7.03294">
        <ele>646.773</ele>
        <time>2013-11-30T09:50:46Z</time>
      </trkpt>
      <trkpt lat="43.71504" lon="7.03298">
        <ele>644.433</ele>
        <time>2013-11-30T09:50:50Z</time>
      </trkpt>
      <trkpt lat="43.71498" lon="7.03292">
        <ele>642.882</ele>
        <time>2013-11-30T09:50:54Z</time>
      </trkpt>
      <trkpt lat="43.71498" lon="7.03307">
        <ele>640.495</ele>
        <time>2013-11-30T09:50:58Z</time>
      </trkpt>
      <trkpt lat="43.71501" lon="7.0332">
        <ele>638.444</ele>
        <time>2013-11-30T09:51:02Z</time>
      </trkpt>
      <trkpt lat="43.71502" lon="7.0334">
        <ele>635.283</ele>
        <time>2013-11-30T09:51:07Z</time>
      </trkpt>
      <trkpt lat="43.71504" lon="7.03359">
        <ele>633.606</ele>
        <time>2013-11-30T09:51:12Z</time>
      </trkpt>
      <trkpt lat="43.71503" lon="7.03381">
        <ele>630.184</ele>
        <time>2013-11-30T09:51:17Z</time>
      </trkpt>
      <trkpt lat="43.71501" lon="7.03399">
        <ele>629.145</ele>
        <time>2013-11-30T09:51:21Z</time>
      </trkpt>
      <trkpt lat="43.71496" lon="7.03416">
        <ele>626.922</ele>
        <time>2013-11-30T09:51:26Z</time>
      </trkpt>
      <trkpt lat="43.71489" lon="7.03439">
        <ele>623.231</ele>
        <time>2013-11-30T09:51:32Z</time>
      </trkpt>
      <trkpt lat="43.71484" lon="7.03449">
        <ele>620.618</ele>
        <time>2013-11-30T09:51:35Z</time>
      </trkpt>
      <trkpt lat="43.71481" lon="7.03468">
        <ele>615.263</ele>
        <time>2013-11-30T09:51:40Z</time>
      </trkpt>
      <trkpt lat="43.71472" lon="7.03494">
        <ele>609.715</ele>
        <time>2013-11-30T09:51:46Z</time>
      </trkpt>
      <trkpt lat="43.71468" lon="7.03525">
        <ele>604.886</ele>
        <time>2013-11-30T09:51:51Z</time>
      </trkpt>
      <trkpt lat="43.71468" lon="7.03532">
        <ele>604.247</ele>
        <time>2013-11-30T09:51:52Z</time>
      </trkpt>
      <trkpt lat="43.7146" lon="7.03569">
        <ele>602.282</ele>
        <time>2013-11-30T09:51:59Z</time>
      </trkpt>
      <trkpt lat="43.71447" lon="7.03594">
        <ele>600.583</ele>
        <time>2013-11-30T09:52:04Z</time>
      </trkpt>
      <trkpt lat="43.71432" lon="7.03621">
        <ele>598.84</ele>
        <time>2013-11-30T09:52:10Z</time>
      </trkpt>
      <trkpt lat="43.7143" lon="7.03625">
        <ele>598.041</ele>
        <time>2013-11-30T09:52:12Z</time>
      </trkpt>
      <trkpt lat="43.71425" lon="7.03638">
        <ele>596.8</ele>
        <time>2013-11-30T09:52:16Z</time>
      </trkpt>
      <trkpt lat="43.71419" lon="7.0365">
        <ele>595.166</ele>
        <time>2013-11-30T09:52:19Z</time>
      </trkpt>
      <trkpt lat="43.71408" lon="7.03667">
        <ele>592.653</ele>
        <time>2013-11-30T09:52:24Z</time>
      </trkpt>
      <trkpt lat="43.71395" lon="7.03685">
        <ele>590.009</ele>
        <time>2013-11-30T09:52:29Z</time>
      </trkpt>
      <trkpt lat="43.71385" lon="7.03695">
        <ele>587.484</ele>
        <time>2013-11-30T09:52:33Z</time>
      </trkpt>
      <trkpt lat="43.71375" lon="7.03709">
        <ele>584.117</ele>
        <time>2013-11-30T09:52:37Z</time>
      </trkpt>
      <trkpt lat="43.71363" lon="7.03724">
        <ele>581.49</ele>
        <time>2013-11-30T09:52:41Z</time>
      </trkpt>
      <trkpt lat="43.71344" lon="7.03744">
        <ele>577.937</ele>
        <time>2013-11-30T09:52:46Z</time>
      </trkpt>
      <trkpt lat="43.71331" lon="7.03761">
        <ele>574.281</ele>
        <time>2013-11-30T09:52:51Z</time>
      </trkpt>
      <trkpt lat="43.71332" lon="7.03766">
        <ele>570.522</ele>
        <time>2013-11-30T09:52:55Z</time>
      </trkpt>
      <trkpt lat="43.71346" lon="7.03763">
        <ele>567.131</ele>
        <time>2013-11-30T09:53:00Z</time>
      </trkpt>
      <trkpt lat="43.71353" lon="7.03763">
        <ele>565.234</ele>
        <time>2013-11-30T09:53:02Z</time>
      </trkpt>
      <trkpt lat="43.7137" lon="7.0376">
        <ele>560.459</ele>
        <time>2013-11-30T09:53:07Z</time>
      </trkpt>
      <trkpt lat="43.71373" lon="7.0376">
        <ele>560.221</ele>
        <time>2013-11-30T09:53:08Z</time>
      </trkpt>
      <trkpt lat="43.71375" lon="7.03765">
        <ele>558.464</ele>
        <time>2013-11-30T09:53:13Z</time>
      </trkpt>
      <trkpt lat="43.71375" lon="7.03767">
        <ele>558.338</ele>
        <time>2013-11-30T09:53:17Z</time>
      </trkpt>
      <trkpt lat="43.71373" lon="7.03769">
        <ele>558.591</ele>
        <time>2013-11-30T09:53:23Z</time>
      </trkpt>
      <trkpt lat="43.71367" lon="7.03779">
        <ele>557.258</ele>
        <time>2013-11-30T09:53:28Z</time>
      </trkpt>
      <trkpt lat="43.71363" lon="7.03784">
        <ele>556.536</ele>
        <time>2013-11-30T09:53:30Z</time>
      </trkpt>
      <trkpt lat="43.71366" lon="7.03788">
        <ele>553.834</ele>
        <time>2013-11-30T09:53:34Z</time>
      </trkpt>
      <trkpt lat="43.71369" lon="7.03787">
        <ele>553.755</ele>
        <time>2013-11-30T09:53:35Z</time>
      </trkpt>
      <trkpt lat="43.71393" lon="7.03782">
        <ele>549.43</ele>
        <time>2013-11-30T09:53:41Z</time>
      </trkpt>
      <trkpt lat="43.71408" lon="7.03779">
        <ele>548.484</ele>
        <time>2013-11-30T09:53:45Z</time>
      </trkpt>
      <trkpt lat="43.7142" lon="7.03782">
        <ele>549.206</ele>
        <time>2013-11-30T09:53:48Z</time>
      </trkpt>
      <trkpt lat="43.71419" lon="7.03795">
        <ele>548.027</ele>
        <time>2013-11-30T09:53:52Z</time>
      </trkpt>
      <trkpt lat="43.71412" lon="7.03802">
        <ele>547.381</ele>
        <time>2013-11-30T09:53:57Z</time>
      </trkpt>
      <trkpt lat="43.714" lon="7.03821">
        <ele>546.331</ele>
        <time>2013-11-30T09:54:04Z</time>
      </trkpt>
      <trkpt lat="43.71392" lon="7.03837">
        <ele>546.564</ele>
        <time>2013-11-30T09:54:09Z</time>
      </trkpt>
      <trkpt lat="43.71389" lon="7.03852">
        <ele>547.557</ele>
        <time>2013-11-30T09:54:14Z</time>
      </trkpt>
      <trkpt lat="43.71381" lon="7.03863">
        <ele>546.493</ele>
        <time>2013-11-30T09:54:19Z</time>
      </trkpt>
      <trkpt lat="43.71378" lon="7.03883">
        <ele>545.231</ele>
        <time>2013-11-30T09:54:24Z</time>
      </trkpt>
      <trkpt lat="43.71373" lon="7.039">
        <ele>544.853</ele>
        <time>2013-11-30T09:54:29Z</time>
      </trkpt>
      <trkpt lat="43.71366" lon="7.03909">
        <ele>543.355</ele>
        <time>2013-11-30T09:54:33Z</time>
      </trkpt>
      <trkpt lat="43.71355" lon="7.03933">
        <ele>540.585</ele>
        <time>2013-11-30T09:54:38Z</time>
      </trkpt>
      <trkpt lat="43.71349" lon="7.03952">
        <ele>539.584</ele>
        <time>2013-11-30T09:54:41Z</time>
      </trkpt>
      <trkpt lat="43.71344" lon="7.03978">
        <ele>538.275</ele>
        <time>2013-11-30T09:54:45Z</time>
      </trkpt>
      <trkpt lat="43.71339" lon="7.04003">
        <ele>537.566</ele>
        <time>2013-11-30T09:54:49Z</time>
      </trkpt>
      <trkpt lat="43.7133" lon="7.0402">
        <ele>535.374</ele>
        <time>2013-11-30T09:54:52Z</time>
      </trkpt>
      <trkpt lat="43.71318" lon="7.04043">
        <ele>534.897</ele>
        <time>2013-11-30T09:54:56Z</time>
      </trkpt>
      <trkpt lat="43.71312" lon="7.04063">
        <ele>534.802</ele>
        <time>2013-11-30T09:54:59Z</time>
      </trkpt>
      <trkpt lat="43.71309" lon="7.04086">
        <ele>535.175</ele>
        <time>2013-11-30T09:55:03Z</time>
      </trkpt>
      <trkpt lat="43.71305" lon="7.04107">
        <ele>534.641</ele>
        <time>2013-11-30T09:55:09Z</time>
      </trkpt>
      <trkpt lat="43.713" lon="7.04128">
        <ele>532.835</ele>
        <time>2013-11-30T09:55:14Z</time>
      </trkpt>
      <trkpt lat="43.71297" lon="7.04144">
        <ele>530.465</ele>
        <time>2013-11-30T09:55:18Z</time>
      </trkpt>
      <trkpt lat="43.71295" lon="7.04159">
        <ele>529.514</ele>
        <time>2013-11-30T09:55:21Z</time>
      </trkpt>
      <trkpt lat="43.71289" lon="7.04184">
        <ele>527.545</ele>
        <time>2013-11-30T09:55:25Z</time>
      </trkpt>
      <trkpt lat="43.71281" lon="7.04207">
        <ele>524.174</ele>
        <time>2013-11-30T09:55:30Z</time>
      </trkpt>
      <trkpt lat="43.71273" lon="7.04233">
        <ele>519.772</ele>
        <time>2013-11-30T09:55:35Z</time>
      </trkpt>
      <trkpt lat="43.71266" lon="7.04257">
        <ele>519.39</ele>
        <time>2013-11-30T09:55:40Z</time>
      </trkpt>
      <trkpt lat="43.71264" lon="7.04309">
        <ele>521.097</ele>
        <time>2013-11-30T09:55:49Z</time>
      </trkpt>
      <trkpt lat="43.71265" lon="7.04325">
        <ele>522.399</ele>
        <time>2013-11-30T09:55:54Z</time>
      </trkpt>
      <trkpt lat="43.71262" lon="7.04346">
        <ele>524.472</ele>
        <time>2013-11-30T09:56:01Z</time>
      </trkpt>
      <trkpt lat="43.71263" lon="7.04362">
        <ele>523.793</ele>
        <time>2013-11-30T09:56:05Z</time>
      </trkpt>
      <trkpt lat="43.71264" lon="7.0437">
        <ele>523.01</ele>
        <time>2013-11-30T09:56:08Z</time>
      </trkpt>
      <trkpt lat="43.71264" lon="7.04386">
        <ele>522.689</ele>
        <time>2013-11-30T09:56:14Z</time>
      </trkpt>
      <trkpt lat="43.71264" lon="7.04405">
        <ele>522.439</ele>
        <time>2013-11-30T09:56:20Z</time>
      </trkpt>
      <trkpt lat="43.71263" lon="7.04407">
        <ele>523.438</ele>
        <time>2013-11-30T09:56:26Z</time>
      </trkpt>
      <trkpt lat="43.71262" lon="7.04413">
        <ele>523.762</ele>
        <time>2013-11-30T09:56:57Z</time>
      </trkpt>
      <trkpt lat="43.71263" lon="7.04418">
        <ele>523.488</ele>
        <time>2013-11-30T09:57:16Z</time>
      </trkpt>
      <trkpt lat="43.71264" lon="7.0442">
        <ele>523.389</ele>
        <time>2013-11-30T09:57:20Z</time>
      </trkpt>
      <trkpt lat="43.71268" lon="7.04435">
        <ele>522.598</ele>
        <time>2013-11-30T09:57:26Z</time>
      </trkpt>
      <trkpt lat="43.71272" lon="7.04453">
        <ele>521.938</ele>
        <time>2013-11-30T09:57:30Z</time>
      </trkpt>
      <trkpt lat="43.71286" lon="7.04466">
        <ele>523.543</ele>
        <time>2013-11-30T09:57:36Z</time>
      </trkpt>
      <trkpt lat="43.71288" lon="7.04468">
        <ele>523.693</ele>
        <time>2013-11-30T09:57:37Z</time>
      </trkpt>
      <trkpt lat="43.71294" lon="7.04482">
        <ele>523.127</ele>
        <time>2013-11-30T09:57:41Z</time>
      </trkpt>
      <trkpt lat="43.71299" lon="7.04509">
        <ele>519.574</ele>
        <time>2013-11-30T09:57:45Z</time>
      </trkpt>
      <trkpt lat="43.71311" lon="7.04556">
        <ele>515.406</ele>
        <time>2013-11-30T09:57:51Z</time>
      </trkpt>
      <trkpt lat="43.71317" lon="7.04571">
        <ele>514.8</ele>
        <time>2013-11-30T09:57:54Z</time>
      </trkpt>
      <trkpt lat="43.71327" lon="7.046">
        <ele>515.817</ele>
        <time>2013-11-30T09:57:59Z</time>
      </trkpt>
      <trkpt lat="43.71333" lon="7.04624">
        <ele>516.248</ele>
        <time>2013-11-30T09:58:03Z</time>
      </trkpt>
      <trkpt lat="43.71334" lon="7.04651">
        <ele>514.312</ele>
        <time>2013-11-30T09:58:07Z</time>
      </trkpt>
      <trkpt lat="43.71329" lon="7.04685">
        <ele>513.733</ele>
        <time>2013-11-30T09:58:12Z</time>
      </trkpt>
      <trkpt lat="43.71333" lon="7.04702">
        <ele>512.535</ele>
        <time>2013-11-30T09:58:15Z</time>
      </trkpt>
      <trkpt lat="43.71343" lon="7.04724">
        <ele>510.744</ele>
        <time>2013-11-30T09:58:19Z</time>
      </trkpt>
      <trkpt lat="43.7134" lon="7.04739">
        <ele>509.283</ele>
        <time>2013-11-30T09:58:22Z</time>
      </trkpt>
      <trkpt lat="43.71334" lon="7.04778">
        <ele>506.817</ele>
        <time>2013-11-30T09:58:27Z</time>
      </trkpt>
      <trkpt lat="43.71339" lon="7.048">
        <ele>505.366</ele>
        <time>2013-11-30T09:58:30Z</time>
      </trkpt>
      <trkpt lat="43.71341" lon="7.04807">
        <ele>504.757</ele>
        <time>2013-11-30T09:58:31Z</time>
      </trkpt>
      <trkpt lat="43.71342" lon="7.04823">
        <ele>503.916</ele>
        <time>2013-11-30T09:58:33Z</time>
      </trkpt>
      <trkpt lat="43.71357" lon="7.0486">
        <ele>498.95</ele>
        <time>2013-11-30T09:58:38Z</time>
      </trkpt>
      <trkpt lat="43.71382" lon="7.04899">
        <ele>493.836</ele>
        <time>2013-11-30T09:58:43Z</time>
      </trkpt>
      <trkpt lat="43.71415" lon="7.0493">
        <ele>490.71</ele>
        <time>2013-11-30T09:58:48Z</time>
      </trkpt>
      <trkpt lat="43.71422" lon="7.04936">
        <ele>490.321</ele>
        <time>2013-11-30T09:58:49Z</time>
      </trkpt>
      <trkpt lat="43.71446" lon="7.04976">
        <ele>485.688</ele>
        <time>2013-11-30T09:58:54Z</time>
      </trkpt>
      <trkpt lat="43.71463" lon="7.05011">
        <ele>482.036</ele>
        <time>2013-11-30T09:58:58Z</time>
      </trkpt>
      <trkpt lat="43.71467" lon="7.05043">
        <ele>477.852</ele>
        <time>2013-11-30T09:59:02Z</time>
      </trkpt>
      <trkpt lat="43.71464" lon="7.05052">
        <ele>477.56</ele>
        <time>2013-11-30T09:59:03Z</time>
      </trkpt>
      <trkpt lat="43.7147" lon="7.05089">
        <ele>472.519</ele>
        <time>2013-11-30T09:59:08Z</time>
      </trkpt>
      <trkpt lat="43.71481" lon="7.05102">
        <ele>470.971</ele>
        <time>2013-11-30T09:59:10Z</time>
      </trkpt>
      <trkpt lat="43.71512" lon="7.05137">
        <ele>467.282</ele>
        <time>2013-11-30T09:59:16Z</time>
      </trkpt>
      <trkpt lat="43.71517" lon="7.05165">
        <ele>463.419</ele>
        <time>2013-11-30T09:59:20Z</time>
      </trkpt>
      <trkpt lat="43.71519" lon="7.05196">
        <ele>461.28</ele>
        <time>2013-11-30T09:59:23Z</time>
      </trkpt>
      <trkpt lat="43.71536" lon="7.05235">
        <ele>457.641</ele>
        <time>2013-11-30T09:59:27Z</time>
      </trkpt>
      <trkpt lat="43.71542" lon="7.05241">
        <ele>456.861</ele>
        <time>2013-11-30T09:59:28Z</time>
      </trkpt>
      <trkpt lat="43.71563" lon="7.05265">
        <ele>453.108</ele>
        <time>2013-11-30T09:59:32Z</time>
      </trkpt>
      <trkpt lat="43.71575" lon="7.05287">
        <ele>450.037</ele>
        <time>2013-11-30T09:59:35Z</time>
      </trkpt>
      <trkpt lat="43.71594" lon="7.05308">
        <ele>447.335</ele>
        <time>2013-11-30T09:59:39Z</time>
      </trkpt>
      <trkpt lat="43.71596" lon="7.05312">
        <ele>446.436</ele>
        <time>2013-11-30T09:59:41Z</time>
      </trkpt>
      <trkpt lat="43.71599" lon="7.05316">
        <ele>445.831</ele>
        <time>2013-11-30T09:59:43Z</time>
      </trkpt>
      <trkpt lat="43.71607" lon="7.0532">
        <ele>445.194</ele>
        <time>2013-11-30T09:59:48Z</time>
      </trkpt>
      <trkpt lat="43.71613" lon="7.05324">
        <ele>444.542</ele>
        <time>2013-11-30T09:59:50Z</time>
      </trkpt>
      <trkpt lat="43.71614" lon="7.05335">
        <ele>443.1</ele>
        <time>2013-11-30T09:59:53Z</time>
      </trkpt>
      <trkpt lat="43.71604" lon="7.05336">
        <ele>441.852</ele>
        <time>2013-11-30T09:59:56Z</time>
      </trkpt>
      <trkpt lat="43.71597" lon="7.05337">
        <ele>441.294</ele>
        <time>2013-11-30T10:00:00Z</time>
      </trkpt>
      <trkpt lat="43.71596" lon="7.05341">
        <ele>440.842</ele>
        <time>2013-11-30T10:00:02Z</time>
      </trkpt>
      <trkpt lat="43.71601" lon="7.05353">
        <ele>440.347</ele>
        <time>2013-11-30T10:00:07Z</time>
      </trkpt>
      <trkpt lat="43.71615" lon="7.05359">
        <ele>439.875</ele>
        <time>2013-11-30T10:00:13Z</time>
      </trkpt>
      <trkpt lat="43.71636" lon="7.05368">
        <ele>439.105</ele>
        <time>2013-11-30T10:00:19Z</time>
      </trkpt>
      <trkpt lat="43.71673" lon="7.05379">
        <ele>437.325</ele>
        <time>2013-11-30T10:00:28Z</time>
      </trkpt>
      <trkpt lat="43.71703" lon="7.05387">
        <ele>434.753</ele>
        <time>2013-11-30T10:00:35Z</time>
      </trkpt>
      <trkpt lat="43.71729" lon="7.05391">
        <ele>432.42</ele>
        <time>2013-11-30T10:00:40Z</time>
      </trkpt>
      <trkpt lat="43.71762" lon="7.05395">
        <ele>429.76</ele>
        <time>2013-11-30T10:00:46Z</time>
      </trkpt>
      <trkpt lat="43.7181" lon="7.05408">
        <ele>426.036</ele>
        <time>2013-11-30T10:00:54Z</time>
      </trkpt>
      <trkpt lat="43.71837" lon="7.05413">
        <ele>422.744</ele>
        <time>2013-11-30T10:00:59Z</time>
      </trkpt>
      <trkpt lat="43.71841" lon="7.05415">
        <ele>422.265</ele>
        <time>2013-11-30T10:01:00Z</time>
      </trkpt>
      <trkpt lat="43.71846" lon="7.05432">
        <ele>418.744</ele>
        <time>2013-11-30T10:01:04Z</time>
      </trkpt>
      <trkpt lat="43.71842" lon="7.05436">
        <ele>417.612</ele>
        <time>2013-11-30T10:01:05Z</time>
      </trkpt>
      <trkpt lat="43.71825" lon="7.05453">
        <ele>413.536</ele>
        <time>2013-11-30T10:01:10Z</time>
      </trkpt>
      <trkpt lat="43.71818" lon="7.0546">
        <ele>412.286</ele>
        <time>2013-11-30T10:01:12Z</time>
      </trkpt>
      <trkpt lat="43.71805" lon="7.05482">
        <ele>411.943</ele>
        <time>2013-11-30T10:01:16Z</time>
      </trkpt>
      <trkpt lat="43.71792" lon="7.05532">
        <ele>410.705</ele>
        <time>2013-11-30T10:01:24Z</time>
      </trkpt>
      <trkpt lat="43.71784" lon="7.05572">
        <ele>413.711</ele>
        <time>2013-11-30T10:01:31Z</time>
      </trkpt>
      <trkpt lat="43.71778" lon="7.05588">
        <ele>416.805</ele>
        <time>2013-11-30T10:01:35Z</time>
      </trkpt>
      <trkpt lat="43.71772" lon="7.05598">
        <ele>417.595</ele>
        <time>2013-11-30T10:01:37Z</time>
      </trkpt>
      <trkpt lat="43.71762" lon="7.0562">
        <ele>418.313</ele>
        <time>2013-11-30T10:01:41Z</time>
      </trkpt>
      <trkpt lat="43.71745" lon="7.05666">
        <ele>420.934</ele>
        <time>2013-11-30T10:01:50Z</time>
      </trkpt>
      <trkpt lat="43.7174" lon="7.05688">
        <ele>421.13</ele>
        <time>2013-11-30T10:01:55Z</time>
      </trkpt>
      <trkpt lat="43.7174" lon="7.05699">
        <ele>420.88</ele>
        <time>2013-11-30T10:01:59Z</time>
      </trkpt>
      <trkpt lat="43.71736" lon="7.05715">
        <ele>420.358</ele>
        <time>2013-11-30T10:02:04Z</time>
      </trkpt>
      <trkpt lat="43.71717" lon="7.05744">
        <ele>419.167</ele>
        <time>2013-11-30T10:02:10Z</time>
      </trkpt>
      <trkpt lat="43.71698" lon="7.05787">
        <ele>415.923</ele>
        <time>2013-11-30T10:02:17Z</time>
      </trkpt>
      <trkpt lat="43.71691" lon="7.05805">
        <ele>412.128</ele>
        <time>2013-11-30T10:02:21Z</time>
      </trkpt>
      <trkpt lat="43.71689" lon="7.05814">
        <ele>417.431</ele>
        <time>2013-11-30T10:02:25Z</time>
      </trkpt>
      <trkpt lat="43.71689" lon="7.0581">
        <ele>425.206</ele>
        <time>2013-11-30T10:02:29Z</time>
      </trkpt>
      <trkpt lat="43.71689" lon="7.05799">
        <ele>425.463</ele>
        <time>2013-11-30T10:02:31Z</time>
      </trkpt>
      <trkpt lat="43.71687" lon="7.05754">
        <ele>420.27</ele>
        <time>2013-11-30T10:02:37Z</time>
      </trkpt>
      <trkpt lat="43.71686" lon="7.0574">
        <ele>418.275</ele>
        <time>2013-11-30T10:02:40Z</time>
      </trkpt>
      <trkpt lat="43.71683" lon="7.05736">
        <ele>417.06</ele>
        <time>2013-11-30T10:02:44Z</time>
      </trkpt>
      <trkpt lat="43.71686" lon="7.05729">
        <ele>416.04</ele>
        <time>2013-11-30T10:02:48Z</time>
      </trkpt>
      <trkpt lat="43.71694" lon="7.05711">
        <ele>415.85</ele>
        <time>2013-11-30T10:02:53Z</time>
      </trkpt>
      <trkpt lat="43.71691" lon="7.05705">
        <ele>414.117</ele>
        <time>2013-11-30T10:02:57Z</time>
      </trkpt>
      <trkpt lat="43.71688" lon="7.05711">
        <ele>412.111</ele>
        <time>2013-11-30T10:02:59Z</time>
      </trkpt>
      <trkpt lat="43.71677" lon="7.05734">
        <ele>405.993</ele>
        <time>2013-11-30T10:03:04Z</time>
      </trkpt>
      <trkpt lat="43.71651" lon="7.05746">
        <ele>401.166</ele>
        <time>2013-11-30T10:03:10Z</time>
      </trkpt>
      <trkpt lat="43.71622" lon="7.05758">
        <ele>399.259</ele>
        <time>2013-11-30T10:03:18Z</time>
      </trkpt>
      <trkpt lat="43.7162" lon="7.0576">
        <ele>398.427</ele>
        <time>2013-11-30T10:03:19Z</time>
      </trkpt>
      <trkpt lat="43.71609" lon="7.05769">
        <ele>397.176</ele>
        <time>2013-11-30T10:03:22Z</time>
      </trkpt>
      <trkpt lat="43.71598" lon="7.05789">
        <ele>396.177</ele>
        <time>2013-11-30T10:03:27Z</time>
      </trkpt>
      <trkpt lat="43.71589" lon="7.05797">
        <ele>395.374</ele>
        <time>2013-11-30T10:03:32Z</time>
      </trkpt>
      <trkpt lat="43.71573" lon="7.0581">
        <ele>391.399</ele>
        <time>2013-11-30T10:03:37Z</time>
      </trkpt>
      <trkpt lat="43.71557" lon="7.05828">
        <ele>385.966</ele>
        <time>2013-11-30T10:03:44Z</time>
      </trkpt>
      <trkpt lat="43.71545" lon="7.05837">
        <ele>382.757</ele>
        <time>2013-11-30T10:03:49Z</time>
      </trkpt>
      <trkpt lat="43.71538" lon="7.05844">
        <ele>379.585</ele>
        <time>2013-11-30T10:03:52Z</time>
      </trkpt>
      <trkpt lat="43.71529" lon="7.05857">
        <ele>377.411</ele>
        <time>2013-11-30T10:03:57Z</time>
      </trkpt>
      <trkpt lat="43.71519" lon="7.05874">
        <ele>375.154</ele>
        <time>2013-11-30T10:04:03Z</time>
      </trkpt>
      <trkpt lat="43.71507" lon="7.05892">
        <ele>371.111</ele>
        <time>2013-11-30T10:04:08Z</time>
      </trkpt>
      <trkpt lat="43.71496" lon="7.05897">
        <ele>375.529</ele>
        <time>2013-11-30T10:04:12Z</time>
      </trkpt>
      <trkpt lat="43.71492" lon="7.05897">
        <ele>379.3</ele>
        <time>2013-11-30T10:04:17Z</time>
      </trkpt>
      <trkpt lat="43.71491" lon="7.05896">
        <ele>380.431</ele>
        <time>2013-11-30T10:04:59Z</time>
      </trkpt>
      <trkpt lat="43.7149" lon="7.05897">
        <ele>380.021</ele>
        <time>2013-11-30T10:05:25Z</time>
      </trkpt>
      <trkpt lat="43.71485" lon="7.05912">
        <ele>380.425</ele>
        <time>2013-11-30T10:05:30Z</time>
      </trkpt>
      <trkpt lat="43.71484" lon="7.05923">
        <ele>379.863</ele>
        <time>2013-11-30T10:05:33Z</time>
      </trkpt>
      <trkpt lat="43.71483" lon="7.05927">
        <ele>381.009</ele>
        <time>2013-11-30T10:05:39Z</time>
      </trkpt>
      <trkpt lat="43.71483" lon="7.05926">
        <ele>382.651</ele>
        <time>2013-11-30T10:05:49Z</time>
      </trkpt>
      <trkpt lat="43.71481" lon="7.05926">
        <ele>382.979</ele>
        <time>2013-11-30T10:05:52Z</time>
      </trkpt>
      <trkpt lat="43.71476" lon="7.05925">
        <ele>381.933</ele>
        <time>2013-11-30T10:05:56Z</time>
      </trkpt>
      <trkpt lat="43.71478" lon="7.05933">
        <ele>381.023</ele>
        <time>2013-11-30T10:05:59Z</time>
      </trkpt>
      <trkpt lat="43.71481" lon="7.05936">
        <ele>380.002</ele>
        <time>2013-11-30T10:06:01Z</time>
      </trkpt>
      <trkpt lat="43.71479" lon="7.05944">
        <ele>378.409</ele>
        <time>2013-11-30T10:06:05Z</time>
      </trkpt>
      <trkpt lat="43.71468" lon="7.05951">
        <ele>374.336</ele>
        <time>2013-11-30T10:06:10Z</time>
      </trkpt>
      <trkpt lat="43.71466" lon="7.05952">
        <ele>373.737</ele>
        <time>2013-11-30T10:06:11Z</time>
      </trkpt>
      <trkpt lat="43.71452" lon="7.05952">
        <ele>371.379</ele>
        <time>2013-11-30T10:06:16Z</time>
      </trkpt>
      <trkpt lat="43.71435" lon="7.05959">
        <ele>368.138</ele>
        <time>2013-11-30T10:06:22Z</time>
      </trkpt>
      <trkpt lat="43.71428" lon="7.05967">
        <ele>366.389</ele>
        <time>2013-11-30T10:06:27Z</time>
      </trkpt>
      <trkpt lat="43.71423" lon="7.05969">
        <ele>365.226</ele>
        <time>2013-11-30T10:06:34Z</time>
      </trkpt>
      <trkpt lat="43.71418" lon="7.05973">
        <ele>365.28</ele>
        <time>2013-11-30T10:06:37Z</time>
      </trkpt>
      <trkpt lat="43.71414" lon="7.05981">
        <ele>364.93</ele>
        <time>2013-11-30T10:06:43Z</time>
      </trkpt>
      <trkpt lat="43.71414" lon="7.05986">
        <ele>361.991</ele>
        <time>2013-11-30T10:07:03Z</time>
      </trkpt>
      <trkpt lat="43.71409" lon="7.05995">
        <ele>363.373</ele>
        <time>2013-11-30T10:07:10Z</time>
      </trkpt>
      <trkpt lat="43.71409" lon="7.05995">
        <ele>363.732</ele>
        <time>2013-11-30T10:07:15Z</time>
      </trkpt>
      <trkpt lat="43.71405" lon="7.06001">
        <ele>363.962</ele>
        <time>2013-11-30T10:07:20Z</time>
      </trkpt>
      <trkpt lat="43.71404" lon="7.06002">
        <ele>364.333</ele>
        <time>2013-11-30T10:07:21Z</time>
      </trkpt>
      <trkpt lat="43.71397" lon="7.0601">
        <ele>367.188</ele>
        <time>2013-11-30T10:07:28Z</time>
      </trkpt>
      <trkpt lat="43.71389" lon="7.06014">
        <ele>371.198</ele>
        <time>2013-11-30T10:07:35Z</time>
      </trkpt>
      <trkpt lat="43.71377" lon="7.06022">
        <ele>373.687</ele>
        <time>2013-11-30T10:07:43Z</time>
      </trkpt>
      <trkpt lat="43.71368" lon="7.06032">
        <ele>374.461</ele>
        <time>2013-11-30T10:07:48Z</time>
      </trkpt>
      <trkpt lat="43.71353" lon="7.06041">
        <ele>372.893</ele>
        <time>2013-11-30T10:07:54Z</time>
      </trkpt>
      <trkpt lat="43.7134" lon="7.06051">
        <ele>371.102</ele>
        <time>2013-11-30T10:07:59Z</time>
      </trkpt>
      <trkpt lat="43.71328" lon="7.06066">
        <ele>368.28</ele>
        <time>2013-11-30T10:08:04Z</time>
      </trkpt>
      <trkpt lat="43.71322" lon="7.06076">
        <ele>366.721</ele>
        <time>2013-11-30T10:08:07Z</time>
      </trkpt>
      <trkpt lat="43.7131" lon="7.06078">
        <ele>364.913</ele>
        <time>2013-11-30T10:08:12Z</time>
      </trkpt>
      <trkpt lat="43.71302" lon="7.06084">
        <ele>362.739</ele>
        <time>2013-11-30T10:08:16Z</time>
      </trkpt>
      <trkpt lat="43.71305" lon="7.06095">
        <ele>360.072</ele>
        <time>2013-11-30T10:08:20Z</time>
      </trkpt>
      <trkpt lat="43.713" lon="7.06108">
        <ele>357.664</ele>
        <time>2013-11-30T10:08:25Z</time>
      </trkpt>
      <trkpt lat="43.71294" lon="7.06111">
        <ele>356.745</ele>
        <time>2013-11-30T10:08:28Z</time>
      </trkpt>
      <trkpt lat="43.71282" lon="7.06113">
        <ele>355.75</ele>
        <time>2013-11-30T10:08:34Z</time>
      </trkpt>
      <trkpt lat="43.71279" lon="7.06114">
        <ele>355.63</ele>
        <time>2013-11-30T10:08:36Z</time>
      </trkpt>
      <trkpt lat="43.71273" lon="7.0612">
        <ele>355.481</ele>
        <time>2013-11-30T10:08:40Z</time>
      </trkpt>
      <trkpt lat="43.71274" lon="7.0613">
        <ele>353.844</ele>
        <time>2013-11-30T10:08:45Z</time>
      </trkpt>
      <trkpt lat="43.71277" lon="7.06136">
        <ele>352.164</ele>
        <time>2013-11-30T10:08:49Z</time>
      </trkpt>
      <trkpt lat="43.7129" lon="7.06143">
        <ele>346.68</ele>
        <time>2013-11-30T10:08:55Z</time>
      </trkpt>
      <trkpt lat="43.7129" lon="7.06144">
        <ele>346.221</ele>
        <time>2013-11-30T10:08:56Z</time>
      </trkpt>
      <trkpt lat="43.71283" lon="7.06153">
        <ele>343.881</ele>
        <time>2013-11-30T10:09:01Z</time>
      </trkpt>
      <trkpt lat="43.71272" lon="7.06167">
        <ele>341.755</ele>
        <time>2013-11-30T10:09:08Z</time>
      </trkpt>
      <trkpt lat="43.71271" lon="7.06169">
        <ele>340.44</ele>
        <time>2013-11-30T10:09:14Z</time>
      </trkpt>
      <trkpt lat="43.7127" lon="7.06169">
        <ele>338.8</ele>
        <time>2013-11-30T10:09:20Z</time>
      </trkpt>
      <trkpt lat="43.71275" lon="7.0617">
        <ele>337.409</ele>
        <time>2013-11-30T10:09:26Z</time>
      </trkpt>
      <trkpt lat="43.71272" lon="7.06176">
        <ele>335.2</ele>
        <time>2013-11-30T10:09:32Z</time>
      </trkpt>
      <trkpt lat="43.71265" lon="7.06186">
        <ele>334.35</ele>
        <time>2013-11-30T10:09:37Z</time>
      </trkpt>
      <trkpt lat="43.71263" lon="7.06188">
        <ele>334.37</ele>
        <time>2013-11-30T10:09:38Z</time>
      </trkpt>
      <trkpt lat="43.71252" lon="7.06199">
        <ele>333.631</ele>
        <time>2013-11-30T10:09:43Z</time>
      </trkpt>
      <trkpt lat="43.71241" lon="7.06207">
        <ele>330.472</ele>
        <time>2013-11-30T10:09:48Z</time>
      </trkpt>
      <trkpt lat="43.71228" lon="7.06214">
        <ele>328.712</ele>
        <time>2013-11-30T10:09:54Z</time>
      </trkpt>
      <trkpt lat="43.71227" lon="7.06216">
        <ele>328.382</ele>
        <time>2013-11-30T10:09:55Z</time>
      </trkpt>
      <trkpt lat="43.71218" lon="7.06225">
        <ele>326.041</ele>
        <time>2013-11-30T10:10:01Z</time>
      </trkpt>
      <trkpt lat="43.71211" lon="7.06224">
        <ele>324.783</ele>
        <time>2013-11-30T10:10:04Z</time>
      </trkpt>
      <trkpt lat="43.71203" lon="7.06231">
        <ele>323.926</ele>
        <time>2013-11-30T10:10:09Z</time>
      </trkpt>
      <trkpt lat="43.71199" lon="7.06233">
        <ele>323.163</ele>
        <time>2013-11-30T10:10:11Z</time>
      </trkpt>
      <trkpt lat="43.71188" lon="7.06233">
        <ele>321.526</ele>
        <time>2013-11-30T10:10:16Z</time>
      </trkpt>
      <trkpt lat="43.71186" lon="7.06248">
        <ele>320.266</ele>
        <time>2013-11-30T10:10:20Z</time>
      </trkpt>
      <trkpt lat="43.71185" lon="7.06256">
        <ele>319.575</ele>
        <time>2013-11-30T10:10:22Z</time>
      </trkpt>
      <trkpt lat="43.7118" lon="7.06289">
        <ele>316.97</ele>
        <time>2013-11-30T10:10:29Z</time>
      </trkpt>
      <trkpt lat="43.71159" lon="7.0631">
        <ele>314.181</ele>
        <time>2013-11-30T10:10:34Z</time>
      </trkpt>
      <trkpt lat="43.71149" lon="7.06319">
        <ele>313.482</ele>
        <time>2013-11-30T10:10:36Z</time>
      </trkpt>
      <trkpt lat="43.71118" lon="7.06332">
        <ele>311.155</ele>
        <time>2013-11-30T10:10:41Z</time>
      </trkpt>
      <trkpt lat="43.71071" lon="7.06358">
        <ele>310.422</ele>
        <time>2013-11-30T10:10:49Z</time>
      </trkpt>
      <trkpt lat="43.71042" lon="7.06374">
        <ele>309.721</ele>
        <time>2013-11-30T10:10:54Z</time>
      </trkpt>
      <trkpt lat="43.71036" lon="7.06378">
        <ele>309.521</ele>
        <time>2013-11-30T10:10:55Z</time>
      </trkpt>
      <trkpt lat="43.71025" lon="7.06387">
        <ele>308.738</ele>
        <time>2013-11-30T10:10:57Z</time>
      </trkpt>
      <trkpt lat="43.7098" lon="7.06416">
        <ele>308.004</ele>
        <time>2013-11-30T10:11:05Z</time>
      </trkpt>
      <trkpt lat="43.70975" lon="7.0642">
        <ele>307.552</ele>
        <time>2013-11-30T10:11:06Z</time>
      </trkpt>
      <trkpt lat="43.70941" lon="7.06453">
        <ele>306.011</ele>
        <time>2013-11-30T10:11:14Z</time>
      </trkpt>
      <trkpt lat="43.70914" lon="7.06477">
        <ele>305.895</ele>
        <time>2013-11-30T10:11:22Z</time>
      </trkpt>
      <trkpt lat="43.70901" lon="7.06485">
        <ele>306.788</ele>
        <time>2013-11-30T10:11:27Z</time>
      </trkpt>
      <trkpt lat="43.70885" lon="7.06491">
        <ele>308.14</ele>
        <time>2013-11-30T10:11:33Z</time>
      </trkpt>
      <trkpt lat="43.70874" lon="7.06499">
        <ele>309.429</ele>
        <time>2013-11-30T10:11:38Z</time>
      </trkpt>
      <trkpt lat="43.70857" lon="7.0651">
        <ele>310.427</ele>
        <time>2013-11-30T10:11:44Z</time>
      </trkpt>
      <trkpt lat="43.70849" lon="7.06518">
        <ele>310.666</ele>
        <time>2013-11-30T10:11:46Z</time>
      </trkpt>
      <trkpt lat="43.70837" lon="7.06527">
        <ele>309.683</ele>
        <time>2013-11-30T10:11:49Z</time>
      </trkpt>
      <trkpt lat="43.70817" lon="7.06541">
        <ele>305.344</ele>
        <time>2013-11-30T10:11:53Z</time>
      </trkpt>
      <trkpt lat="43.70795" lon="7.06572">
        <ele>301.032</ele>
        <time>2013-11-30T10:11:58Z</time>
      </trkpt>
      <trkpt lat="43.70775" lon="7.06591">
        <ele>298.318</ele>
        <time>2013-11-30T10:12:02Z</time>
      </trkpt>
      <trkpt lat="43.70753" lon="7.06601">
        <ele>296.35</ele>
        <time>2013-11-30T10:12:05Z</time>
      </trkpt>
      <trkpt lat="43.70727" lon="7.06616">
        <ele>293.08</ele>
        <time>2013-11-30T10:12:09Z</time>
      </trkpt>
      <trkpt lat="43.70724" lon="7.06619">
        <ele>292.902</ele>
        <time>2013-11-30T10:12:10Z</time>
      </trkpt>
      <trkpt lat="43.70718" lon="7.06632">
        <ele>292.638</ele>
        <time>2013-11-30T10:12:14Z</time>
      </trkpt>
      <trkpt lat="43.70706" lon="7.06646">
        <ele>293.113</ele>
        <time>2013-11-30T10:12:19Z</time>
      </trkpt>
      <trkpt lat="43.70692" lon="7.06654">
        <ele>295.277</ele>
        <time>2013-11-30T10:12:25Z</time>
      </trkpt>
      <trkpt lat="43.70688" lon="7.0666">
        <ele>292.979</ele>
        <time>2013-11-30T10:12:31Z</time>
      </trkpt>
      <trkpt lat="43.70689" lon="7.06662">
        <ele>292.328</ele>
        <time>2013-11-30T10:12:32Z</time>
      </trkpt>
      <trkpt lat="43.70703" lon="7.06677">
        <ele>291.309</ele>
        <time>2013-11-30T10:12:37Z</time>
      </trkpt>
      <trkpt lat="43.70717" lon="7.06679">
        <ele>286.782</ele>
        <time>2013-11-30T10:12:41Z</time>
      </trkpt>
      <trkpt lat="43.70739" lon="7.06673">
        <ele>282.21</ele>
        <time>2013-11-30T10:12:47Z</time>
      </trkpt>
      <trkpt lat="43.70764" lon="7.06664">
        <ele>277.079</ele>
        <time>2013-11-30T10:12:53Z</time>
      </trkpt>
      <trkpt lat="43.70768" lon="7.06663">
        <ele>276.129</ele>
        <time>2013-11-30T10:12:54Z</time>
      </trkpt>
      <trkpt lat="43.70797" lon="7.06663">
        <ele>272.309</ele>
        <time>2013-11-30T10:12:59Z</time>
      </trkpt>
      <trkpt lat="43.70837" lon="7.06656">
        <ele>268.712</ele>
        <time>2013-11-30T10:13:05Z</time>
      </trkpt>
      <trkpt lat="43.70878" lon="7.06644">
        <ele>266.827</ele>
        <time>2013-11-30T10:13:11Z</time>
      </trkpt>
      <trkpt lat="43.70924" lon="7.06629">
        <ele>263.252</ele>
        <time>2013-11-30T10:13:17Z</time>
      </trkpt>
      <trkpt lat="43.70948" lon="7.06617">
        <ele>260.08</ele>
        <time>2013-11-30T10:13:21Z</time>
      </trkpt>
      <trkpt lat="43.70973" lon="7.0661">
        <ele>257.007</ele>
        <time>2013-11-30T10:13:25Z</time>
      </trkpt>
      <trkpt lat="43.71009" lon="7.06611">
        <ele>252.906</ele>
        <time>2013-11-30T10:13:30Z</time>
      </trkpt>
      <trkpt lat="43.71021" lon="7.06609">
        <ele>251.327</ele>
        <time>2013-11-30T10:13:32Z</time>
      </trkpt>
      <trkpt lat="43.71034" lon="7.0662">
        <ele>255.199</ele>
        <time>2013-11-30T10:13:36Z</time>
      </trkpt>
      <trkpt lat="43.71032" lon="7.06635">
        <ele>255.444</ele>
        <time>2013-11-30T10:13:40Z</time>
      </trkpt>
      <trkpt lat="43.71031" lon="7.06638">
        <ele>255.504</ele>
        <time>2013-11-30T10:13:41Z</time>
      </trkpt>
      <trkpt lat="43.71028" lon="7.06643">
        <ele>256.614</ele>
        <time>2013-11-30T10:13:46Z</time>
      </trkpt>
      <trkpt lat="43.71024" lon="7.06646">
        <ele>257.805</ele>
        <time>2013-11-30T10:13:51Z</time>
      </trkpt>
      <trkpt lat="43.71023" lon="7.06645">
        <ele>258.444</ele>
        <time>2013-11-30T10:13:54Z</time>
      </trkpt>
      <trkpt lat="43.71015" lon="7.06645">
        <ele>260.016</ele>
        <time>2013-11-30T10:13:59Z</time>
      </trkpt>
      <trkpt lat="43.71015" lon="7.06646">
        <ele>261.284</ele>
        <time>2013-11-30T10:14:06Z</time>
      </trkpt>
      <trkpt lat="43.7101" lon="7.06659">
        <ele>263.168</ele>
        <time>2013-11-30T10:14:12Z</time>
      </trkpt>
      <trkpt lat="43.71002" lon="7.06672">
        <ele>266.123</ele>
        <time>2013-11-30T10:14:17Z</time>
      </trkpt>
      <trkpt lat="43.70999" lon="7.0668">
        <ele>268.522</ele>
        <time>2013-11-30T10:14:21Z</time>
      </trkpt>
      <trkpt lat="43.70991" lon="7.06704">
        <ele>271.574</ele>
        <time>2013-11-30T10:14:29Z</time>
      </trkpt>
      <trkpt lat="43.70986" lon="7.06723">
        <ele>272.558</ele>
        <time>2013-11-30T10:14:35Z</time>
      </trkpt>
      <trkpt lat="43.70975" lon="7.06739">
        <ele>274.277</ele>
        <time>2013-11-30T10:14:41Z</time>
      </trkpt>
      <trkpt lat="43.70962" lon="7.06759">
        <ele>277.55</ele>
        <time>2013-11-30T10:14:48Z</time>
      </trkpt>
      <trkpt lat="43.70948" lon="7.06782">
        <ele>280.911</ele>
        <time>2013-11-30T10:14:57Z</time>
      </trkpt>
      <trkpt lat="43.70935" lon="7.06807">
        <ele>281.646</ele>
        <time>2013-11-30T10:15:06Z</time>
      </trkpt>
      <trkpt lat="43.70925" lon="7.06823">
        <ele>282.658</ele>
        <time>2013-11-30T10:15:13Z</time>
      </trkpt>
      <trkpt lat="43.70924" lon="7.06824">
        <ele>282.877</ele>
        <time>2013-11-30T10:15:15Z</time>
      </trkpt>
      <trkpt lat="43.70923" lon="7.0683">
        <ele>284.006</ele>
        <time>2013-11-30T10:15:21Z</time>
      </trkpt>
      <trkpt lat="43.7092" lon="7.06835">
        <ele>285.03</ele>
        <time>2013-11-30T10:15:27Z</time>
      </trkpt>
      <trkpt lat="43.70919" lon="7.06836">
        <ele>285.287</ele>
        <time>2013-11-30T10:15:30Z</time>
      </trkpt>
      <trkpt lat="43.70915" lon="7.0684">
        <ele>285.426</ele>
        <time>2013-11-30T10:15:34Z</time>
      </trkpt>
      <trkpt lat="43.70905" lon="7.06853">
        <ele>285.428</ele>
        <time>2013-11-30T10:15:41Z</time>
      </trkpt>
      <trkpt lat="43.70894" lon="7.06865">
        <ele>287.059</ele>
        <time>2013-11-30T10:15:48Z</time>
      </trkpt>
      <trkpt lat="43.70883" lon="7.06874">
        <ele>287.207</ele>
        <time>2013-11-30T10:15:54Z</time>
      </trkpt>
      <trkpt lat="43.70867" lon="7.06886">
        <ele>285.214</ele>
        <time>2013-11-30T10:16:02Z</time>
      </trkpt>
      <trkpt lat="43.70855" lon="7.06901">
        <ele>285.115</ele>
        <time>2013-11-30T10:16:08Z</time>
      </trkpt>
      <trkpt lat="43.70838" lon="7.06926">
        <ele>286.128</ele>
        <time>2013-11-30T10:16:16Z</time>
      </trkpt>
      <trkpt lat="43.70824" lon="7.06947">
        <ele>288.841</ele>
        <time>2013-11-30T10:16:23Z</time>
      </trkpt>
      <trkpt lat="43.70804" lon="7.06973">
        <ele>288.966</ele>
        <time>2013-11-30T10:16:32Z</time>
      </trkpt>
      <trkpt lat="43.70785" lon="7.06991">
        <ele>288.195</ele>
        <time>2013-11-30T10:16:39Z</time>
      </trkpt>
      <trkpt lat="43.70755" lon="7.07013">
        <ele>287.768</ele>
        <time>2013-11-30T10:16:49Z</time>
      </trkpt>
      <trkpt lat="43.70734" lon="7.07038">
        <ele>287.616</ele>
        <time>2013-11-30T10:16:58Z</time>
      </trkpt>
      <trkpt lat="43.70724" lon="7.07052">
        <ele>288.496</ele>
        <time>2013-11-30T10:17:05Z</time>
      </trkpt>
      <trkpt lat="43.70722" lon="7.07067">
        <ele>289.949</ele>
        <time>2013-11-30T10:17:10Z</time>
      </trkpt>
      <trkpt lat="43.70723" lon="7.07093">
        <ele>293.833</ele>
        <time>2013-11-30T10:17:18Z</time>
      </trkpt>
      <trkpt lat="43.70722" lon="7.07112">
        <ele>294.848</ele>
        <time>2013-11-30T10:17:24Z</time>
      </trkpt>
      <trkpt lat="43.70727" lon="7.07131">
        <ele>294.645</ele>
        <time>2013-11-30T10:17:29Z</time>
      </trkpt>
      <trkpt lat="43.70736" lon="7.07152">
        <ele>292.079</ele>
        <time>2013-11-30T10:17:35Z</time>
      </trkpt>
      <trkpt lat="43.7075" lon="7.07175">
        <ele>289.246</ele>
        <time>2013-11-30T10:17:41Z</time>
      </trkpt>
      <trkpt lat="43.70769" lon="7.07195">
        <ele>287.416</ele>
        <time>2013-11-30T10:17:47Z</time>
      </trkpt>
      <trkpt lat="43.70788" lon="7.07216">
        <ele>285.082</ele>
        <time>2013-11-30T10:17:52Z</time>
      </trkpt>
      <trkpt lat="43.70791" lon="7.07221">
        <ele>283.66</ele>
        <time>2013-11-30T10:17:53Z</time>
      </trkpt>
      <trkpt lat="43.70803" lon="7.07237">
        <ele>279.928</ele>
        <time>2013-11-30T10:17:56Z</time>
      </trkpt>
      <trkpt lat="43.7081" lon="7.07264">
        <ele>276.859</ele>
        <time>2013-11-30T10:18:00Z</time>
      </trkpt>
      <trkpt lat="43.70813" lon="7.07294">
        <ele>278.533</ele>
        <time>2013-11-30T10:18:06Z</time>
      </trkpt>
      <trkpt lat="43.70813" lon="7.07313">
        <ele>281.569</ele>
        <time>2013-11-30T10:18:13Z</time>
      </trkpt>
      <trkpt lat="43.70816" lon="7.07322">
        <ele>283.168</ele>
        <time>2013-11-30T10:18:19Z</time>
      </trkpt>
      <trkpt lat="43.70812" lon="7.07328">
        <ele>285.179</ele>
        <time>2013-11-30T10:18:24Z</time>
      </trkpt>
      <trkpt lat="43.7081" lon="7.07334">
        <ele>286.749</ele>
        <time>2013-11-30T10:18:29Z</time>
      </trkpt>
      <trkpt lat="43.70807" lon="7.0734">
        <ele>286.985</ele>
        <time>2013-11-30T10:18:34Z</time>
      </trkpt>
      <trkpt lat="43.70806" lon="7.07341">
        <ele>287.155</ele>
        <time>2013-11-30T10:18:35Z</time>
      </trkpt>
      <trkpt lat="43.70796" lon="7.07349">
        <ele>289.077</ele>
        <time>2013-11-30T10:18:41Z</time>
      </trkpt>
      <trkpt lat="43.70782" lon="7.0737">
        <ele>290.336</ele>
        <time>2013-11-30T10:18:49Z</time>
      </trkpt>
      <trkpt lat="43.70771" lon="7.07391">
        <ele>291.158</ele>
        <time>2013-11-30T10:18:56Z</time>
      </trkpt>
      <trkpt lat="43.70774" lon="7.07408">
        <ele>291.641</ele>
        <time>2013-11-30T10:19:00Z</time>
      </trkpt>
      <trkpt lat="43.70789" lon="7.07425">
        <ele>291.338</ele>
        <time>2013-11-30T10:19:07Z</time>
      </trkpt>
      <trkpt lat="43.70802" lon="7.07444">
        <ele>290.169</ele>
        <time>2013-11-30T10:19:14Z</time>
      </trkpt>
      <trkpt lat="43.70803" lon="7.07447">
        <ele>290.53</ele>
        <time>2013-11-30T10:19:15Z</time>
      </trkpt>
      <trkpt lat="43.70807" lon="7.07455">
        <ele>291.271</ele>
        <time>2013-11-30T10:19:19Z</time>
      </trkpt>
      <trkpt lat="43.70818" lon="7.07471">
        <ele>291.37</ele>
        <time>2013-11-30T10:19:27Z</time>
      </trkpt>
      <trkpt lat="43.70828" lon="7.07478">
        <ele>291.862</ele>
        <time>2013-11-30T10:19:32Z</time>
      </trkpt>
      <trkpt lat="43.70836" lon="7.07487">
        <ele>292.479</ele>
        <time>2013-11-30T10:19:38Z</time>
      </trkpt>
      <trkpt lat="43.70842" lon="7.07493">
        <ele>293.009</ele>
        <time>2013-11-30T10:19:42Z</time>
      </trkpt>
      <trkpt lat="43.70851" lon="7.07499">
        <ele>293.558</ele>
        <time>2013-11-30T10:19:48Z</time>
      </trkpt>
      <trkpt lat="43.70861" lon="7.07504">
        <ele>293.503</ele>
        <time>2013-11-30T10:19:54Z</time>
      </trkpt>
      <trkpt lat="43.70861" lon="7.07505">
        <ele>293.524</ele>
        <time>2013-11-30T10:19:55Z</time>
      </trkpt>
      <trkpt lat="43.70858" lon="7.07512">
        <ele>293.494</ele>
        <time>2013-11-30T10:19:59Z</time>
      </trkpt>
      <trkpt lat="43.70845" lon="7.07529">
        <ele>294.355</ele>
        <time>2013-11-30T10:20:07Z</time>
      </trkpt>
      <trkpt lat="43.70834" lon="7.07542">
        <ele>294.373</ele>
        <time>2013-11-30T10:20:14Z</time>
      </trkpt>
      <trkpt lat="43.70823" lon="7.07553">
        <ele>296.369</ele>
        <time>2013-11-30T10:20:21Z</time>
      </trkpt>
      <trkpt lat="43.7081" lon="7.07565">
        <ele>298.679</ele>
        <time>2013-11-30T10:20:28Z</time>
      </trkpt>
      <trkpt lat="43.70801" lon="7.07575">
        <ele>299.227</ele>
        <time>2013-11-30T10:20:33Z</time>
      </trkpt>
      <trkpt lat="43.70798" lon="7.07588">
        <ele>298.385</ele>
        <time>2013-11-30T10:20:38Z</time>
      </trkpt>
      <trkpt lat="43.70795" lon="7.07596">
        <ele>296.371</ele>
        <time>2013-11-30T10:20:41Z</time>
      </trkpt>
      <trkpt lat="43.708" lon="7.07613">
        <ele>295.301</ele>
        <time>2013-11-30T10:20:46Z</time>
      </trkpt>
      <trkpt lat="43.70802" lon="7.07623">
        <ele>295.253</ele>
        <time>2013-11-30T10:20:51Z</time>
      </trkpt>
      <trkpt lat="43.70803" lon="7.07625">
        <ele>293.652</ele>
        <time>2013-11-30T10:20:56Z</time>
      </trkpt>
      <trkpt lat="43.70797" lon="7.07631">
        <ele>291.891</ele>
        <time>2013-11-30T10:21:00Z</time>
      </trkpt>
      <trkpt lat="43.70787" lon="7.0764">
        <ele>291.053</ele>
        <time>2013-11-30T10:21:04Z</time>
      </trkpt>
      <trkpt lat="43.70769" lon="7.07659">
        <ele>289.964</ele>
        <time>2013-11-30T10:21:12Z</time>
      </trkpt>
      <trkpt lat="43.70756" lon="7.07673">
        <ele>291.723</ele>
        <time>2013-11-30T10:21:17Z</time>
      </trkpt>
      <trkpt lat="43.70741" lon="7.07687">
        <ele>288.694</ele>
        <time>2013-11-30T10:21:22Z</time>
      </trkpt>
      <trkpt lat="43.70729" lon="7.0771">
        <ele>284.716</ele>
        <time>2013-11-30T10:21:28Z</time>
      </trkpt>
      <trkpt lat="43.70726" lon="7.07712">
        <ele>284.456</ele>
        <time>2013-11-30T10:21:29Z</time>
      </trkpt>
      <trkpt lat="43.7072" lon="7.07731">
        <ele>279.42</ele>
        <time>2013-11-30T10:21:35Z</time>
      </trkpt>
      <trkpt lat="43.70721" lon="7.07733">
        <ele>279.12</ele>
        <time>2013-11-30T10:21:36Z</time>
      </trkpt>
      <trkpt lat="43.70727" lon="7.0773">
        <ele>275.508</ele>
        <time>2013-11-30T10:21:42Z</time>
      </trkpt>
      <trkpt lat="43.7073" lon="7.07713">
        <ele>248.774</ele>
        <time>2013-11-30T10:22:08Z</time>
      </trkpt>
      <trkpt lat="43.7073" lon="7.07719">
        <ele>248.625</ele>
        <time>2013-11-30T10:22:12Z</time>
      </trkpt>
      <trkpt lat="43.7072" lon="7.07736">
        <ele>248.577</ele>
        <time>2013-11-30T10:22:17Z</time>
      </trkpt>
      <trkpt lat="43.70715" lon="7.07747">
        <ele>246.214</ele>
        <time>2013-11-30T10:22:20Z</time>
      </trkpt>
      <trkpt lat="43.70719" lon="7.07752">
        <ele>243.473</ele>
        <time>2013-11-30T10:22:24Z</time>
      </trkpt>
      <trkpt lat="43.70723" lon="7.07749">
        <ele>242.201</ele>
        <time>2013-11-30T10:22:25Z</time>
      </trkpt>
      <trkpt lat="43.70735" lon="7.07746">
        <ele>240.023</ele>
        <time>2013-11-30T10:22:29Z</time>
      </trkpt>
      <trkpt lat="43.70732" lon="7.07752">
        <ele>237.601</ele>
        <time>2013-11-30T10:22:34Z</time>
      </trkpt>
      <trkpt lat="43.7074" lon="7.07754">
        <ele>234.551</ele>
        <time>2013-11-30T10:22:38Z</time>
      </trkpt>
      <trkpt lat="43.70747" lon="7.0776">
        <ele>235.288</ele>
        <time>2013-11-30T10:22:42Z</time>
      </trkpt>
      <trkpt lat="43.70742" lon="7.07765">
        <ele>234.528</ele>
        <time>2013-11-30T10:22:45Z</time>
      </trkpt>
      <trkpt lat="43.70739" lon="7.07767">
        <ele>232.595</ele>
        <time>2013-11-30T10:22:47Z</time>
      </trkpt>
      <trkpt lat="43.70727" lon="7.07778">
        <ele>232.336</ele>
        <time>2013-11-30T10:22:52Z</time>
      </trkpt>
      <trkpt lat="43.70705" lon="7.07793">
        <ele>232.266</ele>
        <time>2013-11-30T10:22:58Z</time>
      </trkpt>
      <trkpt lat="43.70694" lon="7.07803">
        <ele>228.508</ele>
        <time>2013-11-30T10:23:01Z</time>
      </trkpt>
      <trkpt lat="43.70673" lon="7.07819">
        <ele>225.569</ele>
        <time>2013-11-30T10:23:06Z</time>
      </trkpt>
      <trkpt lat="43.70651" lon="7.07833">
        <ele>221.516</ele>
        <time>2013-11-30T10:23:12Z</time>
      </trkpt>
      <trkpt lat="43.70638" lon="7.07841">
        <ele>217.291</ele>
        <time>2013-11-30T10:23:16Z</time>
      </trkpt>
      <trkpt lat="43.70628" lon="7.07852">
        <ele>213.118</ele>
        <time>2013-11-30T10:23:19Z</time>
      </trkpt>
      <trkpt lat="43.70616" lon="7.07867">
        <ele>208.468</ele>
        <time>2013-11-30T10:23:23Z</time>
      </trkpt>
      <trkpt lat="43.70603" lon="7.07881">
        <ele>204.62</ele>
        <time>2013-11-30T10:23:28Z</time>
      </trkpt>
      <trkpt lat="43.70594" lon="7.07895">
        <ele>202.717</ele>
        <time>2013-11-30T10:23:33Z</time>
      </trkpt>
      <trkpt lat="43.70581" lon="7.07914">
        <ele>204.657</ele>
        <time>2013-11-30T10:23:39Z</time>
      </trkpt>
      <trkpt lat="43.70568" lon="7.07924">
        <ele>208.961</ele>
        <time>2013-11-30T10:23:44Z</time>
      </trkpt>
      <trkpt lat="43.70557" lon="7.07932">
        <ele>210.762</ele>
        <time>2013-11-30T10:23:49Z</time>
      </trkpt>
      <trkpt lat="43.70553" lon="7.07935">
        <ele>213.563</ele>
        <time>2013-11-30T10:23:54Z</time>
      </trkpt>
      <trkpt lat="43.70551" lon="7.07937">
        <ele>211.648</ele>
        <time>2013-11-30T10:23:59Z</time>
      </trkpt>
      <trkpt lat="43.70547" lon="7.07942">
        <ele>208.616</ele>
        <time>2013-11-30T10:24:04Z</time>
      </trkpt>
      <trkpt lat="43.70549" lon="7.07945">
        <ele>208.482</ele>
        <time>2013-11-30T10:24:15Z</time>
      </trkpt>
      <trkpt lat="43.70552" lon="7.07947">
        <ele>207.159</ele>
        <time>2013-11-30T10:24:19Z</time>
      </trkpt>
      <trkpt lat="43.70553" lon="7.07949">
        <ele>206.829</ele>
        <time>2013-11-30T10:24:21Z</time>
      </trkpt>
      <trkpt lat="43.70549" lon="7.07954">
        <ele>206.041</ele>
        <time>2013-11-30T10:24:28Z</time>
      </trkpt>
      <trkpt lat="43.70549" lon="7.07956">
        <ele>207.423</ele>
        <time>2013-11-30T10:24:35Z</time>
      </trkpt>
      <trkpt lat="43.70549" lon="7.07959">
        <ele>208.025</ele>
        <time>2013-11-30T10:24:40Z</time>
      </trkpt>
      <trkpt lat="43.70548" lon="7.0796">
        <ele>211.538</ele>
        <time>2013-11-30T10:24:46Z</time>
      </trkpt>
      <trkpt lat="43.70547" lon="7.07959">
        <ele>212.976</ele>
        <time>2013-11-30T10:24:52Z</time>
      </trkpt>
      <trkpt lat="43.70543" lon="7.07957">
        <ele>213.877</ele>
        <time>2013-11-30T10:24:58Z</time>
      </trkpt>
      <trkpt lat="43.70537" lon="7.07958">
        <ele>217.092</ele>
        <time>2013-11-30T10:25:06Z</time>
      </trkpt>
      <trkpt lat="43.70533" lon="7.0796">
        <ele>217.82</ele>
        <time>2013-11-30T10:25:14Z</time>
      </trkpt>
      <trkpt lat="43.70533" lon="7.0796">
        <ele>216.857</ele>
        <time>2013-11-30T10:25:17Z</time>
      </trkpt>
      <trkpt lat="43.70528" lon="7.07966">
        <ele>216.696</ele>
        <time>2013-11-30T10:25:25Z</time>
      </trkpt>
      <trkpt lat="43.70525" lon="7.07964">
        <ele>221.073</ele>
        <time>2013-11-30T10:25:27Z</time>
      </trkpt>
      <trkpt lat="43.70518" lon="7.07965">
        <ele>221.239</ele>
        <time>2013-11-30T10:25:36Z</time>
      </trkpt>
      <trkpt lat="43.70513" lon="7.07965">
        <ele>222.96</ele>
        <time>2013-11-30T10:25:43Z</time>
      </trkpt>
      <trkpt lat="43.70509" lon="7.07966">
        <ele>224.98</ele>
        <time>2013-11-30T10:25:50Z</time>
      </trkpt>
      <trkpt lat="43.70505" lon="7.07968">
        <ele>225.499</ele>
        <time>2013-11-30T10:25:58Z</time>
      </trkpt>
      <trkpt lat="43.70502" lon="7.07968">
        <ele>225.79</ele>
        <time>2013-11-30T10:26:04Z</time>
      </trkpt>
      <trkpt lat="43.70499" lon="7.0797">
        <ele>224.688</ele>
        <time>2013-11-30T10:26:11Z</time>
      </trkpt>
      <trkpt lat="43.70495" lon="7.0797">
        <ele>227.07</ele>
        <time>2013-11-30T10:26:17Z</time>
      </trkpt>
      <trkpt lat="43.70495" lon="7.07971">
        <ele>226.909</ele>
        <time>2013-11-30T10:26:18Z</time>
      </trkpt>
      <trkpt lat="43.70493" lon="7.07975">
        <ele>224.206</ele>
        <time>2013-11-30T10:26:25Z</time>
      </trkpt>
      <trkpt lat="43.70489" lon="7.07973">
        <ele>232.837</ele>
        <time>2013-11-30T10:27:44Z</time>
      </trkpt>
      <trkpt lat="43.70488" lon="7.07974">
        <ele>231.455</ele>
        <time>2013-11-30T10:27:50Z</time>
      </trkpt>
      <trkpt lat="43.7048" lon="7.07967">
        <ele>232.267</ele>
        <time>2013-11-30T10:27:55Z</time>
      </trkpt>
      <trkpt lat="43.70473" lon="7.07964">
        <ele>232.183</ele>
        <time>2013-11-30T10:27:58Z</time>
      </trkpt>
      <trkpt lat="43.70467" lon="7.07964">
        <ele>233.91</ele>
        <time>2013-11-30T10:28:01Z</time>
      </trkpt>
      <trkpt lat="43.70462" lon="7.07967">
        <ele>232.608</ele>
        <time>2013-11-30T10:28:06Z</time>
      </trkpt>
      <trkpt lat="43.70453" lon="7.07969">
        <ele>230.373</ele>
        <time>2013-11-30T10:28:11Z</time>
      </trkpt>
      <trkpt lat="43.70442" lon="7.07968">
        <ele>228.251</ele>
        <time>2013-11-30T10:28:17Z</time>
      </trkpt>
      <trkpt lat="43.70433" lon="7.07965">
        <ele>226.341</ele>
        <time>2013-11-30T10:28:21Z</time>
      </trkpt>
      <trkpt lat="43.70422" lon="7.07961">
        <ele>227.767</ele>
        <time>2013-11-30T10:28:27Z</time>
      </trkpt>
      <trkpt lat="43.70416" lon="7.07961">
        <ele>228.588</ele>
        <time>2013-11-30T10:28:31Z</time>
      </trkpt>
      <trkpt lat="43.7041" lon="7.07961">
        <ele>227.88</ele>
        <time>2013-11-30T10:28:37Z</time>
      </trkpt>
      <trkpt lat="43.70407" lon="7.07959">
        <ele>230.312</ele>
        <time>2013-11-30T10:28:40Z</time>
      </trkpt>
      <trkpt lat="43.70402" lon="7.07959">
        <ele>234.093</ele>
        <time>2013-11-30T10:28:48Z</time>
      </trkpt>
      <trkpt lat="43.70403" lon="7.07959">
        <ele>234.232</ele>
        <time>2013-11-30T10:28:49Z</time>
      </trkpt>
      <trkpt lat="43.70392" lon="7.07955">
        <ele>235.339</ele>
        <time>2013-11-30T10:28:56Z</time>
      </trkpt>
      <trkpt lat="43.70386" lon="7.07955">
        <ele>235.47</ele>
        <time>2013-11-30T10:29:00Z</time>
      </trkpt>
      <trkpt lat="43.70376" lon="7.07949">
        <ele>237.511</ele>
        <time>2013-11-30T10:29:06Z</time>
      </trkpt>
      <trkpt lat="43.70368" lon="7.07943">
        <ele>236.184</ele>
        <time>2013-11-30T10:29:11Z</time>
      </trkpt>
      <trkpt lat="43.70361" lon="7.07937">
        <ele>235.054</ele>
        <time>2013-11-30T10:29:14Z</time>
      </trkpt>
      <trkpt lat="43.70351" lon="7.07927">
        <ele>235.317</ele>
        <time>2013-11-30T10:29:19Z</time>
      </trkpt>
      <trkpt lat="43.70344" lon="7.07922">
        <ele>233.422</ele>
        <time>2013-11-30T10:29:24Z</time>
      </trkpt>
      <trkpt lat="43.70341" lon="7.0792">
        <ele>231.469</ele>
        <time>2013-11-30T10:29:26Z</time>
      </trkpt>
      <trkpt lat="43.70329" lon="7.0792">
        <ele>224.994</ele>
        <time>2013-11-30T10:29:32Z</time>
      </trkpt>
      <trkpt lat="43.70321" lon="7.0792">
        <ele>221.414</ele>
        <time>2013-11-30T10:29:35Z</time>
      </trkpt>
      <trkpt lat="43.70309" lon="7.07914">
        <ele>219.897</ele>
        <time>2013-11-30T10:29:41Z</time>
      </trkpt>
      <trkpt lat="43.70306" lon="7.07912">
        <ele>219.647</ele>
        <time>2013-11-30T10:29:42Z</time>
      </trkpt>
      <trkpt lat="43.703" lon="7.07907">
        <ele>218.826</ele>
        <time>2013-11-30T10:29:45Z</time>
      </trkpt>
      <trkpt lat="43.7029" lon="7.07899">
        <ele>220.529</ele>
        <time>2013-11-30T10:29:49Z</time>
      </trkpt>
      <trkpt lat="43.70279" lon="7.0789">
        <ele>218.192</ele>
        <time>2013-11-30T10:29:55Z</time>
      </trkpt>
      <trkpt lat="43.70272" lon="7.07889">
        <ele>217.945</ele>
        <time>2013-11-30T10:29:59Z</time>
      </trkpt>
      <trkpt lat="43.70271" lon="7.07889">
        <ele>214.749</ele>
        <time>2013-11-30T10:30:08Z</time>
      </trkpt>
      <trkpt lat="43.70255" lon="7.0788">
        <ele>213.949</ele>
        <time>2013-11-30T10:30:14Z</time>
      </trkpt>
      <trkpt lat="43.70249" lon="7.07875">
        <ele>216.634</ele>
        <time>2013-11-30T10:30:17Z</time>
      </trkpt>
      <trkpt lat="43.70247" lon="7.07872">
        <ele>216.214</ele>
        <time>2013-11-30T10:30:26Z</time>
      </trkpt>
      <trkpt lat="43.70244" lon="7.07867">
        <ele>220.525</ele>
        <time>2013-11-30T10:30:37Z</time>
      </trkpt>
      <trkpt lat="43.70241" lon="7.07868">
        <ele>217.472</ele>
        <time>2013-11-30T10:30:44Z</time>
      </trkpt>
      <trkpt lat="43.70237" lon="7.07867">
        <ele>213.817</ele>
        <time>2013-11-30T10:30:52Z</time>
      </trkpt>
      <trkpt lat="43.70233" lon="7.07867">
        <ele>214.571</ele>
        <time>2013-11-30T10:30:58Z</time>
      </trkpt>
      <trkpt lat="43.70224" lon="7.07864">
        <ele>214.821</ele>
        <time>2013-11-30T10:31:04Z</time>
      </trkpt>
      <trkpt lat="43.70218" lon="7.0786">
        <ele>211.789</ele>
        <time>2013-11-30T10:31:09Z</time>
      </trkpt>
      <trkpt lat="43.70208" lon="7.07847">
        <ele>215.804</ele>
        <time>2013-11-30T10:31:14Z</time>
      </trkpt>
      <trkpt lat="43.70199" lon="7.07834">
        <ele>218.586</ele>
        <time>2013-11-30T10:31:18Z</time>
      </trkpt>
      <trkpt lat="43.70194" lon="7.07828">
        <ele>219.245</ele>
        <time>2013-11-30T10:31:22Z</time>
      </trkpt>
      <trkpt lat="43.70186" lon="7.07816">
        <ele>216.219</ele>
        <time>2013-11-30T10:31:28Z</time>
      </trkpt>
      <trkpt lat="43.70179" lon="7.078">
        <ele>216.107</ele>
        <time>2013-11-30T10:31:33Z</time>
      </trkpt>
      <trkpt lat="43.70177" lon="7.07797">
        <ele>214.426</ele>
        <time>2013-11-30T10:31:34Z</time>
      </trkpt>
      <trkpt lat="43.70173" lon="7.07792">
        <ele>211.713</ele>
        <time>2013-11-30T10:31:36Z</time>
      </trkpt>
      <trkpt lat="43.70166" lon="7.07788">
        <ele>211.09</ele>
        <time>2013-11-30T10:31:42Z</time>
      </trkpt>
      <trkpt lat="43.70163" lon="7.07789">
        <ele>206.56</ele>
        <time>2013-11-30T10:31:53Z</time>
      </trkpt>
      <trkpt lat="43.70161" lon="7.07789">
        <ele>204.648</ele>
        <time>2013-11-30T10:31:57Z</time>
      </trkpt>
      <trkpt lat="43.70158" lon="7.07789">
        <ele>202.72</ele>
        <time>2013-11-30T10:32:02Z</time>
      </trkpt>
      <trkpt lat="43.70155" lon="7.07792">
        <ele>200.236</ele>
        <time>2013-11-30T10:32:07Z</time>
      </trkpt>
      <trkpt lat="43.70152" lon="7.07794">
        <ele>196.244</ele>
        <time>2013-11-30T10:32:14Z</time>
      </trkpt>
      <trkpt lat="43.7015" lon="7.07797">
        <ele>191.194</ele>
        <time>2013-11-30T10:32:23Z</time>
      </trkpt>
      <trkpt lat="43.70144" lon="7.07796">
        <ele>189.427</ele>
        <time>2013-11-30T10:32:40Z</time>
      </trkpt>
      <trkpt lat="43.70136" lon="7.07795">
        <ele>185.081</ele>
        <time>2013-11-30T10:32:45Z</time>
      </trkpt>
      <trkpt lat="43.70132" lon="7.07795">
        <ele>183.861</ele>
        <time>2013-11-30T10:32:47Z</time>
      </trkpt>
      <trkpt lat="43.70123" lon="7.07791">
        <ele>179.731</ele>
        <time>2013-11-30T10:32:52Z</time>
      </trkpt>
      <trkpt lat="43.70122" lon="7.0779">
        <ele>178.849</ele>
        <time>2013-11-30T10:32:53Z</time>
      </trkpt>
      <trkpt lat="43.70116" lon="7.07781">
        <ele>172.838</ele>
        <time>2013-11-30T10:33:01Z</time>
      </trkpt>
      <trkpt lat="43.70112" lon="7.07775">
        <ele>170.797</ele>
        <time>2013-11-30T10:33:05Z</time>
      </trkpt>
      <trkpt lat="43.70107" lon="7.07767">
        <ele>164.059</ele>
        <time>2013-11-30T10:33:11Z</time>
      </trkpt>
      <trkpt lat="43.70106" lon="7.07764">
        <ele>161.74</ele>
        <time>2013-11-30T10:33:13Z</time>
      </trkpt>
      <trkpt lat="43.701" lon="7.07755">
        <ele>154.859</ele>
        <time>2013-11-30T10:33:19Z</time>
      </trkpt>
      <trkpt lat="43.70099" lon="7.07754">
        <ele>154.419</ele>
        <time>2013-11-30T10:33:20Z</time>
      </trkpt>
      <trkpt lat="43.70087" lon="7.07748">
        <ele>154.491</ele>
        <time>2013-11-30T10:33:26Z</time>
      </trkpt>
      <trkpt lat="43.70074" lon="7.07733">
        <ele>169.624</ele>
        <time>2013-11-30T10:33:32Z</time>
      </trkpt>
      <trkpt lat="43.70064" lon="7.07725">
        <ele>185.856</ele>
        <time>2013-11-30T10:33:44Z</time>
      </trkpt>
      <trkpt lat="43.70052" lon="7.0771">
        <ele>187.305</ele>
        <time>2013-11-30T10:33:52Z</time>
      </trkpt>
      <trkpt lat="43.70039" lon="7.07694">
        <ele>186.165</ele>
        <time>2013-11-30T10:33:57Z</time>
      </trkpt>
      <trkpt lat="43.7003" lon="7.07683">
        <ele>187.005</ele>
        <time>2013-11-30T10:34:01Z</time>
      </trkpt>
      <trkpt lat="43.70024" lon="7.07669">
        <ele>184.01</ele>
        <time>2013-11-30T10:34:06Z</time>
      </trkpt>
      <trkpt lat="43.70021" lon="7.0766">
        <ele>182.748</ele>
        <time>2013-11-30T10:34:08Z</time>
      </trkpt>
      <trkpt lat="43.70014" lon="7.07634">
        <ele>182.44</ele>
        <time>2013-11-30T10:34:13Z</time>
      </trkpt>
      <trkpt lat="43.70013" lon="7.0763">
        <ele>181.528</ele>
        <time>2013-11-30T10:34:14Z</time>
      </trkpt>
      <trkpt lat="43.70008" lon="7.07611">
        <ele>181.04</ele>
        <time>2013-11-30T10:34:19Z</time>
      </trkpt>
      <trkpt lat="43.70004" lon="7.07594">
        <ele>180.03</ele>
        <time>2013-11-30T10:34:25Z</time>
      </trkpt>
      <trkpt lat="43.70003" lon="7.07593">
        <ele>178.63</ele>
        <time>2013-11-30T10:34:27Z</time>
      </trkpt>
      <trkpt lat="43.69997" lon="7.07588">
        <ele>176.106</ele>
        <time>2013-11-30T10:34:33Z</time>
      </trkpt>
      <trkpt lat="43.6999" lon="7.07584">
        <ele>173.16</ele>
        <time>2013-11-30T10:34:44Z</time>
      </trkpt>
      <trkpt lat="43.69981" lon="7.07584">
        <ele>172.342</ele>
        <time>2013-11-30T10:34:50Z</time>
      </trkpt>
      <trkpt lat="43.69973" lon="7.07586">
        <ele>171.563</ele>
        <time>2013-11-30T10:34:57Z</time>
      </trkpt>
      <trkpt lat="43.69971" lon="7.07586">
        <ele>171.544</ele>
        <time>2013-11-30T10:34:59Z</time>
      </trkpt>
      <trkpt lat="43.69966" lon="7.07586">
        <ele>172.005</ele>
        <time>2013-11-30T10:35:05Z</time>
      </trkpt>
      <trkpt lat="43.69958" lon="7.0759">
        <ele>173.237</ele>
        <time>2013-11-30T10:35:13Z</time>
      </trkpt>
      <trkpt lat="43.69954" lon="7.07591">
        <ele>175.009</ele>
        <time>2013-11-30T10:35:16Z</time>
      </trkpt>
      <trkpt lat="43.6994" lon="7.07591">
        <ele>173.154</ele>
        <time>2013-11-30T10:35:24Z</time>
      </trkpt>
      <trkpt lat="43.69932" lon="7.07595">
        <ele>172.024</ele>
        <time>2013-11-30T10:35:28Z</time>
      </trkpt>
      <trkpt lat="43.69924" lon="7.07603">
        <ele>167.409</ele>
        <time>2013-11-30T10:35:33Z</time>
      </trkpt>
      <trkpt lat="43.69912" lon="7.07614">
        <ele>165.882</ele>
        <time>2013-11-30T10:35:40Z</time>
      </trkpt>
      <trkpt lat="43.69907" lon="7.07626">
        <ele>165.033</ele>
        <time>2013-11-30T10:35:46Z</time>
      </trkpt>
      <trkpt lat="43.699" lon="7.07636">
        <ele>164.234</ele>
        <time>2013-11-30T10:35:52Z</time>
      </trkpt>
      <trkpt lat="43.6989" lon="7.07646">
        <ele>165.548</ele>
        <time>2013-11-30T10:36:01Z</time>
      </trkpt>
      <trkpt lat="43.69882" lon="7.07656">
        <ele>169.272</ele>
        <time>2013-11-30T10:36:09Z</time>
      </trkpt>
      <trkpt lat="43.69873" lon="7.07667">
        <ele>173.984</ele>
        <time>2013-11-30T10:36:16Z</time>
      </trkpt>
      <trkpt lat="43.69866" lon="7.07671">
        <ele>179.434</ele>
        <time>2013-11-30T10:36:22Z</time>
      </trkpt>
      <trkpt lat="43.69857" lon="7.07676">
        <ele>181.703</ele>
        <time>2013-11-30T10:36:26Z</time>
      </trkpt>
      <trkpt lat="43.69852" lon="7.0768">
        <ele>183.532</ele>
        <time>2013-11-30T10:36:30Z</time>
      </trkpt>
      <trkpt lat="43.69844" lon="7.07683">
        <ele>186.404</ele>
        <time>2013-11-30T10:36:34Z</time>
      </trkpt>
      <trkpt lat="43.69832" lon="7.07686">
        <ele>189.499</ele>
        <time>2013-11-30T10:36:41Z</time>
      </trkpt>
      <trkpt lat="43.69824" lon="7.07694">
        <ele>188.927</ele>
        <time>2013-11-30T10:36:48Z</time>
      </trkpt>
      <trkpt lat="43.69822" lon="7.07694">
        <ele>189.187</ele>
        <time>2013-11-30T10:36:50Z</time>
      </trkpt>
      <trkpt lat="43.69819" lon="7.07694">
        <ele>190.258</ele>
        <time>2013-11-30T10:36:53Z</time>
      </trkpt>
      <trkpt lat="43.69815" lon="7.07697">
        <ele>191.069</ele>
        <time>2013-11-30T10:36:57Z</time>
      </trkpt>
      <trkpt lat="43.69804" lon="7.07695">
        <ele>195.321</ele>
        <time>2013-11-30T10:37:04Z</time>
      </trkpt>
      <trkpt lat="43.69794" lon="7.07698">
        <ele>194.787</ele>
        <time>2013-11-30T10:37:11Z</time>
      </trkpt>
      <trkpt lat="43.6979" lon="7.07697">
        <ele>196.578</ele>
        <time>2013-11-30T10:37:13Z</time>
      </trkpt>
      <trkpt lat="43.69777" lon="7.07695">
        <ele>198.594</ele>
        <time>2013-11-30T10:37:22Z</time>
      </trkpt>
      <trkpt lat="43.69766" lon="7.07699">
        <ele>199.567</ele>
        <time>2013-11-30T10:37:29Z</time>
      </trkpt>
      <trkpt lat="43.69765" lon="7.077">
        <ele>198.585</ele>
        <time>2013-11-30T10:37:30Z</time>
      </trkpt>
      <trkpt lat="43.69754" lon="7.07701">
        <ele>200.526</ele>
        <time>2013-11-30T10:37:37Z</time>
      </trkpt>
      <trkpt lat="43.69745" lon="7.07703">
        <ele>201.868</ele>
        <time>2013-11-30T10:37:43Z</time>
      </trkpt>
      <trkpt lat="43.69743" lon="7.07707">
        <ele>201.467</ele>
        <time>2013-11-30T10:37:45Z</time>
      </trkpt>
      <trkpt lat="43.69735" lon="7.07718">
        <ele>202.228</ele>
        <time>2013-11-30T10:37:52Z</time>
      </trkpt>
      <trkpt lat="43.6973" lon="7.07723">
        <ele>201.85</ele>
        <time>2013-11-30T10:37:55Z</time>
      </trkpt>
      <trkpt lat="43.69718" lon="7.07734">
        <ele>200.946</ele>
        <time>2013-11-30T10:38:03Z</time>
      </trkpt>
      <trkpt lat="43.69712" lon="7.07743">
        <ele>200.848</ele>
        <time>2013-11-30T10:38:08Z</time>
      </trkpt>
      <trkpt lat="43.69704" lon="7.07756">
        <ele>199.377</ele>
        <time>2013-11-30T10:38:15Z</time>
      </trkpt>
      <trkpt lat="43.69696" lon="7.07769">
        <ele>198.337</ele>
        <time>2013-11-30T10:38:22Z</time>
      </trkpt>
      <trkpt lat="43.69687" lon="7.07781">
        <ele>200.129</ele>
        <time>2013-11-30T10:38:30Z</time>
      </trkpt>
      <trkpt lat="43.69677" lon="7.0779">
        <ele>202.019</ele>
        <time>2013-11-30T10:38:38Z</time>
      </trkpt>
      <trkpt lat="43.69673" lon="7.07792">
        <ele>202.478</ele>
        <time>2013-11-30T10:38:41Z</time>
      </trkpt>
      <trkpt lat="43.69666" lon="7.07802">
        <ele>199.553</ele>
        <time>2013-11-30T10:38:48Z</time>
      </trkpt>
      <trkpt lat="43.69652" lon="7.07807">
        <ele>199.293</ele>
        <time>2013-11-30T10:38:56Z</time>
      </trkpt>
      <trkpt lat="43.69641" lon="7.07815">
        <ele>201.206</ele>
        <time>2013-11-30T10:39:04Z</time>
      </trkpt>
      <trkpt lat="43.69631" lon="7.07821">
        <ele>201.826</ele>
        <time>2013-11-30T10:39:09Z</time>
      </trkpt>
      <trkpt lat="43.69622" lon="7.07821">
        <ele>202.623</ele>
        <time>2013-11-30T10:39:14Z</time>
      </trkpt>
      <trkpt lat="43.69607" lon="7.07814">
        <ele>212.828</ele>
        <time>2013-11-30T10:39:21Z</time>
      </trkpt>
      <trkpt lat="43.69597" lon="7.07812">
        <ele>216.648</ele>
        <time>2013-11-30T10:39:27Z</time>
      </trkpt>
      <trkpt lat="43.69588" lon="7.07813">
        <ele>217.498</ele>
        <time>2013-11-30T10:39:32Z</time>
      </trkpt>
      <trkpt lat="43.69576" lon="7.07815">
        <ele>217.584</ele>
        <time>2013-11-30T10:39:39Z</time>
      </trkpt>
      <trkpt lat="43.69572" lon="7.07816">
        <ele>217.846</ele>
        <time>2013-11-30T10:39:42Z</time>
      </trkpt>
      <trkpt lat="43.69567" lon="7.07818">
        <ele>217.026</ele>
        <time>2013-11-30T10:39:47Z</time>
      </trkpt>
      <trkpt lat="43.69553" lon="7.07816">
        <ele>220.418</ele>
        <time>2013-11-30T10:39:54Z</time>
      </trkpt>
      <trkpt lat="43.69541" lon="7.07818">
        <ele>221.466</ele>
        <time>2013-11-30T10:40:00Z</time>
      </trkpt>
      <trkpt lat="43.69532" lon="7.07827">
        <ele>221.866</ele>
        <time>2013-11-30T10:40:07Z</time>
      </trkpt>
      <trkpt lat="43.69521" lon="7.07835">
        <ele>225.239</ele>
        <time>2013-11-30T10:40:16Z</time>
      </trkpt>
      <trkpt lat="43.69513" lon="7.07843">
        <ele>224.326</ele>
        <time>2013-11-30T10:40:23Z</time>
      </trkpt>
      <trkpt lat="43.69506" lon="7.07851">
        <ele>226.198</ele>
        <time>2013-11-30T10:40:30Z</time>
      </trkpt>
      <trkpt lat="43.69498" lon="7.0786">
        <ele>227.169</ele>
        <time>2013-11-30T10:40:37Z</time>
      </trkpt>
      <trkpt lat="43.69489" lon="7.07867">
        <ele>230.192</ele>
        <time>2013-11-30T10:40:43Z</time>
      </trkpt>
      <trkpt lat="43.69479" lon="7.07878">
        <ele>233.357</ele>
        <time>2013-11-30T10:40:52Z</time>
      </trkpt>
      <trkpt lat="43.69472" lon="7.07887">
        <ele>233.316</ele>
        <time>2013-11-30T10:40:59Z</time>
      </trkpt>
      <trkpt lat="43.69463" lon="7.07895">
        <ele>235.078</ele>
        <time>2013-11-30T10:41:06Z</time>
      </trkpt>
      <trkpt lat="43.69457" lon="7.07906">
        <ele>233.944</ele>
        <time>2013-11-30T10:41:13Z</time>
      </trkpt>
      <trkpt lat="43.69456" lon="7.07909">
        <ele>233.253</ele>
        <time>2013-11-30T10:41:15Z</time>
      </trkpt>
      <trkpt lat="43.69452" lon="7.07914">
        <ele>230.14</ele>
        <time>2013-11-30T10:41:18Z</time>
      </trkpt>
      <trkpt lat="43.69437" lon="7.07935">
        <ele>227.99</ele>
        <time>2013-11-30T10:41:25Z</time>
      </trkpt>
      <trkpt lat="43.69423" lon="7.07951">
        <ele>227.504</ele>
        <time>2013-11-30T10:41:31Z</time>
      </trkpt>
      <trkpt lat="43.69418" lon="7.07959">
        <ele>227.954</ele>
        <time>2013-11-30T10:41:37Z</time>
      </trkpt>
      <trkpt lat="43.69412" lon="7.07966">
        <ele>227.81</ele>
        <time>2013-11-30T10:42:12Z</time>
      </trkpt>
      <trkpt lat="43.69401" lon="7.07982">
        <ele>226.237</ele>
        <time>2013-11-30T10:42:17Z</time>
      </trkpt>
      <trkpt lat="43.69386" lon="7.07986">
        <ele>225.9</ele>
        <time>2013-11-30T10:42:22Z</time>
      </trkpt>
      <trkpt lat="43.69374" lon="7.07985">
        <ele>229.957</ele>
        <time>2013-11-30T10:42:28Z</time>
      </trkpt>
      <trkpt lat="43.69361" lon="7.07982">
        <ele>230.563</ele>
        <time>2013-11-30T10:42:34Z</time>
      </trkpt>
      <trkpt lat="43.69351" lon="7.07979">
        <ele>234.211</ele>
        <time>2013-11-30T10:42:39Z</time>
      </trkpt>
      <trkpt lat="43.69337" lon="7.07978">
        <ele>232.265</ele>
        <time>2013-11-30T10:42:45Z</time>
      </trkpt>
      <trkpt lat="43.69324" lon="7.07972">
        <ele>233.805</ele>
        <time>2013-11-30T10:42:51Z</time>
      </trkpt>
      <trkpt lat="43.69323" lon="7.07971">
        <ele>234.024</ele>
        <time>2013-11-30T10:42:52Z</time>
      </trkpt>
      <trkpt lat="43.69307" lon="7.07964">
        <ele>240.662</ele>
        <time>2013-11-30T10:42:59Z</time>
      </trkpt>
      <trkpt lat="43.69299" lon="7.07961">
        <ele>239.818</ele>
        <time>2013-11-30T10:43:03Z</time>
      </trkpt>
      <trkpt lat="43.69293" lon="7.07961">
        <ele>239.799</ele>
        <time>2013-11-30T10:43:05Z</time>
      </trkpt>
      <trkpt lat="43.69275" lon="7.0797">
        <ele>234.481</ele>
        <time>2013-11-30T10:43:11Z</time>
      </trkpt>
      <trkpt lat="43.69268" lon="7.07976">
        <ele>232.121</ele>
        <time>2013-11-30T10:43:15Z</time>
      </trkpt>
      <trkpt lat="43.69258" lon="7.07979">
        <ele>227.178</ele>
        <time>2013-11-30T10:43:25Z</time>
      </trkpt>
      <trkpt lat="43.69251" lon="7.07969">
        <ele>223.858</ele>
        <time>2013-11-30T10:43:30Z</time>
      </trkpt>
      <trkpt lat="43.69244" lon="7.07965">
        <ele>223.961</ele>
        <time>2013-11-30T10:43:32Z</time>
      </trkpt>
      <trkpt lat="43.69228" lon="7.07956">
        <ele>228.938</ele>
        <time>2013-11-30T10:43:37Z</time>
      </trkpt>
      <trkpt lat="43.69216" lon="7.07952">
        <ele>232.962</ele>
        <time>2013-11-30T10:43:42Z</time>
      </trkpt>
      <trkpt lat="43.69199" lon="7.07948">
        <ele>234.981</ele>
        <time>2013-11-30T10:43:47Z</time>
      </trkpt>
      <trkpt lat="43.69182" lon="7.0795">
        <ele>235.9</ele>
        <time>2013-11-30T10:43:52Z</time>
      </trkpt>
      <trkpt lat="43.69164" lon="7.07951">
        <ele>236.429</ele>
        <time>2013-11-30T10:43:57Z</time>
      </trkpt>
      <trkpt lat="43.69141" lon="7.07955">
        <ele>233.836</ele>
        <time>2013-11-30T10:44:03Z</time>
      </trkpt>
      <trkpt lat="43.69135" lon="7.07954">
        <ele>234.137</ele>
        <time>2013-11-30T10:44:05Z</time>
      </trkpt>
      <trkpt lat="43.69121" lon="7.07944">
        <ele>232.937</ele>
        <time>2013-11-30T10:44:10Z</time>
      </trkpt>
      <trkpt lat="43.69105" lon="7.07933">
        <ele>231.787</ele>
        <time>2013-11-30T10:44:15Z</time>
      </trkpt>
      <trkpt lat="43.69097" lon="7.07928">
        <ele>232.797</ele>
        <time>2013-11-30T10:44:18Z</time>
      </trkpt>
      <trkpt lat="43.69084" lon="7.07915">
        <ele>226.456</ele>
        <time>2013-11-30T10:44:23Z</time>
      </trkpt>
      <trkpt lat="43.6908" lon="7.07914">
        <ele>223.52</ele>
        <time>2013-11-30T10:44:29Z</time>
      </trkpt>
      <trkpt lat="43.6908" lon="7.07914">
        <ele>222.86</ele>
        <time>2013-11-30T10:44:31Z</time>
      </trkpt>
      <trkpt lat="43.69074" lon="7.0793">
        <ele>223.736</ele>
        <time>2013-11-30T10:44:37Z</time>
      </trkpt>
      <trkpt lat="43.69069" lon="7.07943">
        <ele>219.908</ele>
        <time>2013-11-30T10:44:42Z</time>
      </trkpt>
      <trkpt lat="43.69066" lon="7.07943">
        <ele>219.077</ele>
        <time>2013-11-30T10:44:51Z</time>
      </trkpt>
      <trkpt lat="43.69056" lon="7.0795">
        <ele>216.375</ele>
        <time>2013-11-30T10:44:57Z</time>
      </trkpt>
      <trkpt lat="43.69047" lon="7.07956">
        <ele>216.486</ele>
        <time>2013-11-30T10:45:01Z</time>
      </trkpt>
      <trkpt lat="43.69033" lon="7.0796">
        <ele>209.94</ele>
        <time>2013-11-30T10:45:06Z</time>
      </trkpt>
      <trkpt lat="43.6903" lon="7.07958">
        <ele>209.982</ele>
        <time>2013-11-30T10:45:07Z</time>
      </trkpt>
      <trkpt lat="43.69027" lon="7.0794">
        <ele>206.592</ele>
        <time>2013-11-30T10:45:12Z</time>
      </trkpt>
      <trkpt lat="43.69028" lon="7.07933">
        <ele>204.601</ele>
        <time>2013-11-30T10:45:14Z</time>
      </trkpt>
      <trkpt lat="43.69027" lon="7.07925">
        <ele>204.647</ele>
        <time>2013-11-30T10:45:20Z</time>
      </trkpt>
      <trkpt lat="43.69024" lon="7.07915">
        <ele>203.771</ele>
        <time>2013-11-30T10:45:27Z</time>
      </trkpt>
      <trkpt lat="43.69025" lon="7.07912">
        <ele>200.997</ele>
        <time>2013-11-30T10:45:29Z</time>
      </trkpt>
      <trkpt lat="43.69027" lon="7.07895">
        <ele>201.633</ele>
        <time>2013-11-30T10:45:34Z</time>
      </trkpt>
      <trkpt lat="43.69027" lon="7.07876">
        <ele>199.619</ele>
        <time>2013-11-30T10:45:39Z</time>
      </trkpt>
      <trkpt lat="43.69028" lon="7.07871">
        <ele>198.898</ele>
        <time>2013-11-30T10:45:41Z</time>
      </trkpt>
      <trkpt lat="43.69022" lon="7.07866">
        <ele>195.177</ele>
        <time>2013-11-30T10:45:46Z</time>
      </trkpt>
      <trkpt lat="43.6902" lon="7.07867">
        <ele>192.495</ele>
        <time>2013-11-30T10:45:48Z</time>
      </trkpt>
      <trkpt lat="43.69006" lon="7.07869">
        <ele>188.282</ele>
        <time>2013-11-30T10:45:53Z</time>
      </trkpt>
      <trkpt lat="43.68994" lon="7.07869">
        <ele>188.926</ele>
        <time>2013-11-30T10:45:57Z</time>
      </trkpt>
      <trkpt lat="43.68973" lon="7.07872">
        <ele>185.843</ele>
        <time>2013-11-30T10:46:02Z</time>
      </trkpt>
      <trkpt lat="43.68973" lon="7.07856">
        <ele>181.751</ele>
        <time>2013-11-30T10:46:06Z</time>
      </trkpt>
      <trkpt lat="43.6897" lon="7.07844">
        <ele>183.706</ele>
        <time>2013-11-30T10:46:08Z</time>
      </trkpt>
      <trkpt lat="43.68977" lon="7.0782">
        <ele>184.076</ele>
        <time>2013-11-30T10:46:13Z</time>
      </trkpt>
      <trkpt lat="43.68978" lon="7.07816">
        <ele>183.355</ele>
        <time>2013-11-30T10:46:15Z</time>
      </trkpt>
      <trkpt lat="43.68979" lon="7.07811">
        <ele>180.95</ele>
        <time>2013-11-30T10:46:17Z</time>
      </trkpt>
      <trkpt lat="43.68979" lon="7.07794">
        <ele>180.572</ele>
        <time>2013-11-30T10:46:22Z</time>
      </trkpt>
      <trkpt lat="43.68985" lon="7.07774">
        <ele>174.884</ele>
        <time>2013-11-30T10:46:26Z</time>
      </trkpt>
      <trkpt lat="43.68987" lon="7.07756">
        <ele>168.702</ele>
        <time>2013-11-30T10:46:29Z</time>
      </trkpt>
      <trkpt lat="43.68988" lon="7.07744">
        <ele>164.299</ele>
        <time>2013-11-30T10:46:34Z</time>
      </trkpt>
      <trkpt lat="43.68988" lon="7.07742">
        <ele>164.28</ele>
        <time>2013-11-30T10:46:35Z</time>
      </trkpt>
      <trkpt lat="43.68985" lon="7.07729">
        <ele>162.906</ele>
        <time>2013-11-30T10:46:41Z</time>
      </trkpt>
      <trkpt lat="43.68981" lon="7.07716">
        <ele>162.941</ele>
        <time>2013-11-30T10:46:45Z</time>
      </trkpt>
      <trkpt lat="43.68982" lon="7.07701">
        <ele>162.982</ele>
        <time>2013-11-30T10:46:50Z</time>
      </trkpt>
      <trkpt lat="43.68986" lon="7.07697">
        <ele>159.349</ele>
        <time>2013-11-30T10:46:55Z</time>
      </trkpt>
      <trkpt lat="43.68989" lon="7.07676">
        <ele>155.351</ele>
        <time>2013-11-30T10:47:02Z</time>
      </trkpt>
      <trkpt lat="43.68989" lon="7.07674">
        <ele>153.515</ele>
        <time>2013-11-30T10:47:05Z</time>
      </trkpt>
      <trkpt lat="43.68994" lon="7.07677">
        <ele>152.258</ele>
        <time>2013-11-30T10:47:11Z</time>
      </trkpt>
      <trkpt lat="43.68996" lon="7.07663">
        <ele>148.973</ele>
        <time>2013-11-30T10:47:16Z</time>
      </trkpt>
      <trkpt lat="43.68996" lon="7.0764">
        <ele>143.571</ele>
        <time>2013-11-30T10:47:22Z</time>
      </trkpt>
      <trkpt lat="43.68994" lon="7.0762">
        <ele>141.896</ele>
        <time>2013-11-30T10:47:26Z</time>
      </trkpt>
      <trkpt lat="43.6899" lon="7.07602">
        <ele>138.631</ele>
        <time>2013-11-30T10:47:30Z</time>
      </trkpt>
      <trkpt lat="43.68988" lon="7.0758">
        <ele>135.542</ele>
        <time>2013-11-30T10:47:35Z</time>
      </trkpt>
      <trkpt lat="43.68988" lon="7.07577">
        <ele>133.991</ele>
        <time>2013-11-30T10:47:39Z</time>
      </trkpt>
      <trkpt lat="43.6899" lon="7.07579">
        <ele>129.01</ele>
        <time>2013-11-30T10:47:44Z</time>
      </trkpt>
      <trkpt lat="43.68988" lon="7.07561">
        <ele>127.07</ele>
        <time>2013-11-30T10:47:49Z</time>
      </trkpt>
      <trkpt lat="43.68978" lon="7.07549">
        <ele>124.76</ele>
        <time>2013-11-30T10:47:54Z</time>
      </trkpt>
      <trkpt lat="43.68971" lon="7.07537">
        <ele>116.357</ele>
        <time>2013-11-30T10:48:00Z</time>
      </trkpt>
      <trkpt lat="43.68958" lon="7.0753">
        <ele>109.585</ele>
        <time>2013-11-30T10:48:04Z</time>
      </trkpt>
      <trkpt lat="43.68947" lon="7.07524">
        <ele>106.726</ele>
        <time>2013-11-30T10:48:07Z</time>
      </trkpt>
      <trkpt lat="43.68925" lon="7.07513">
        <ele>99.335</ele>
        <time>2013-11-30T10:48:13Z</time>
      </trkpt>
      <trkpt lat="43.6891" lon="7.07497">
        <ele>109.163</ele>
        <time>2013-11-30T10:48:17Z</time>
      </trkpt>
      <trkpt lat="43.68897" lon="7.07477">
        <ele>114.487</ele>
        <time>2013-11-30T10:48:21Z</time>
      </trkpt>
      <trkpt lat="43.68896" lon="7.07475">
        <ele>113.461</ele>
        <time>2013-11-30T10:48:22Z</time>
      </trkpt>
      <trkpt lat="43.68885" lon="7.07459">
        <ele>106.156</ele>
        <time>2013-11-30T10:48:28Z</time>
      </trkpt>
      <trkpt lat="43.6888" lon="7.07439">
        <ele>95.981</ele>
        <time>2013-11-30T10:48:33Z</time>
      </trkpt>
      <trkpt lat="43.6887" lon="7.07426">
        <ele>90.84</ele>
        <time>2013-11-30T10:48:37Z</time>
      </trkpt>
      <trkpt lat="43.68867" lon="7.07404">
        <ele>94.448</ele>
        <time>2013-11-30T10:48:42Z</time>
      </trkpt>
      <trkpt lat="43.68864" lon="7.07384">
        <ele>97.557</ele>
        <time>2013-11-30T10:48:46Z</time>
      </trkpt>
      <trkpt lat="43.68859" lon="7.07367">
        <ele>93.432</ele>
        <time>2013-11-30T10:48:50Z</time>
      </trkpt>
      <trkpt lat="43.68852" lon="7.07345">
        <ele>89.792</ele>
        <time>2013-11-30T10:48:54Z</time>
      </trkpt>
      <trkpt lat="43.68852" lon="7.0733">
        <ele>84.665</ele>
        <time>2013-11-30T10:48:58Z</time>
      </trkpt>
      <trkpt lat="43.68853" lon="7.07322">
        <ele>82.693</ele>
        <time>2013-11-30T10:49:00Z</time>
      </trkpt>
      <trkpt lat="43.68847" lon="7.07306">
        <ele>74.228</ele>
        <time>2013-11-30T10:49:06Z</time>
      </trkpt>
      <trkpt lat="43.68842" lon="7.07303">
        <ele>72.019</ele>
        <time>2013-11-30T10:49:08Z</time>
      </trkpt>
      <trkpt lat="43.68826" lon="7.07303">
        <ele>65.194</ele>
        <time>2013-11-30T10:49:14Z</time>
      </trkpt>
      <trkpt lat="43.68822" lon="7.07305">
        <ele>62.779</ele>
        <time>2013-11-30T10:49:16Z</time>
      </trkpt>
      <trkpt lat="43.68813" lon="7.0731">
        <ele>58.294</ele>
        <time>2013-11-30T10:49:22Z</time>
      </trkpt>
      <trkpt lat="43.68807" lon="7.07307">
        <ele>55.192</ele>
        <time>2013-11-30T10:49:26Z</time>
      </trkpt>
      <trkpt lat="43.68806" lon="7.07304">
        <ele>54.329</ele>
        <time>2013-11-30T10:49:27Z</time>
      </trkpt>
      <trkpt lat="43.68804" lon="7.07289">
        <ele>49.967</ele>
        <time>2013-11-30T10:49:33Z</time>
      </trkpt>
      <trkpt lat="43.68803" lon="7.07288">
        <ele>49.496</ele>
        <time>2013-11-30T10:49:34Z</time>
      </trkpt>
      <trkpt lat="43.68793" lon="7.07279">
        <ele>44.502</ele>
        <time>2013-11-30T10:49:41Z</time>
      </trkpt>
      <trkpt lat="43.68792" lon="7.07278">
        <ele>42.832</ele>
        <time>2013-11-30T10:49:43Z</time>
      </trkpt>
      <trkpt lat="43.68784" lon="7.07273">
        <ele>39.663</ele>
        <time>2013-11-30T10:49:48Z</time>
      </trkpt>
      <trkpt lat="43.6878" lon="7.07265">
        <ele>44.759</ele>
        <time>2013-11-30T10:49:53Z</time>
      </trkpt>
      <trkpt lat="43.68779" lon="7.07264">
        <ele>46.48</ele>
        <time>2013-11-30T10:49:56Z</time>
      </trkpt>
      <trkpt lat="43.68781" lon="7.07262">
        <ele>47.411</ele>
        <time>2013-11-30T10:50:03Z</time>
      </trkpt>
      <trkpt lat="43.68781" lon="7.07261">
        <ele>48.33</ele>
        <time>2013-11-30T10:50:09Z</time>
      </trkpt>
      <trkpt lat="43.68783" lon="7.07257">
        <ele>46.299</ele>
        <time>2013-11-30T10:50:23Z</time>
      </trkpt>
      <trkpt lat="43.68785" lon="7.07257">
        <ele>47.45</ele>
        <time>2013-11-30T10:50:28Z</time>
      </trkpt>
      <trkpt lat="43.68797" lon="7.0726">
        <ele>49.153</ele>
        <time>2013-11-30T10:50:34Z</time>
      </trkpt>
      <trkpt lat="43.6881" lon="7.07262">
        <ele>50.686</ele>
        <time>2013-11-30T10:50:39Z</time>
      </trkpt>
      <trkpt lat="43.68826" lon="7.07263">
        <ele>53.733</ele>
        <time>2013-11-30T10:50:45Z</time>
      </trkpt>
      <trkpt lat="43.68845" lon="7.07268">
        <ele>59.907</ele>
        <time>2013-11-30T10:50:51Z</time>
      </trkpt>
      <trkpt lat="43.68865" lon="7.0728">
        <ele>66.714</ele>
        <time>2013-11-30T10:50:57Z</time>
      </trkpt>
      <trkpt lat="43.68887" lon="7.073">
        <ele>64.128</ele>
        <time>2013-11-30T10:51:03Z</time>
      </trkpt>
      <trkpt lat="43.68906" lon="7.07309">
        <ele>65.849</ele>
        <time>2013-11-30T10:51:09Z</time>
      </trkpt>
      <trkpt lat="43.68927" lon="7.07306">
        <ele>65.944</ele>
        <time>2013-11-30T10:51:16Z</time>
      </trkpt>
      <trkpt lat="43.68941" lon="7.07295">
        <ele>62.624</ele>
        <time>2013-11-30T10:51:22Z</time>
      </trkpt>
      <trkpt lat="43.68952" lon="7.07273">
        <ele>62.724</ele>
        <time>2013-11-30T10:51:29Z</time>
      </trkpt>
      <trkpt lat="43.68957" lon="7.07258">
        <ele>62.761</ele>
        <time>2013-11-30T10:51:34Z</time>
      </trkpt>
      <trkpt lat="43.68962" lon="7.07237">
        <ele>62.412</ele>
        <time>2013-11-30T10:51:41Z</time>
      </trkpt>
      <trkpt lat="43.68966" lon="7.07217">
        <ele>62.732</ele>
        <time>2013-11-30T10:51:47Z</time>
      </trkpt>
      <trkpt lat="43.68968" lon="7.07202">
        <ele>61.559</ele>
        <time>2013-11-30T10:51:52Z</time>
      </trkpt>
      <trkpt lat="43.68967" lon="7.07178">
        <ele>60.753</ele>
        <time>2013-11-30T10:51:59Z</time>
      </trkpt>
      <trkpt lat="43.68964" lon="7.07147">
        <ele>62.177</ele>
        <time>2013-11-30T10:52:07Z</time>
      </trkpt>
      <trkpt lat="43.68962" lon="7.0712">
        <ele>62.234</ele>
        <time>2013-11-30T10:52:13Z</time>
      </trkpt>
      <trkpt lat="43.6896" lon="7.07084">
        <ele>62.143</ele>
        <time>2013-11-30T10:52:21Z</time>
      </trkpt>
      <trkpt lat="43.68959" lon="7.07046">
        <ele>63.225</ele>
        <time>2013-11-30T10:52:29Z</time>
      </trkpt>
      <trkpt lat="43.68959" lon="7.07016">
        <ele>64.616</ele>
        <time>2013-11-30T10:52:35Z</time>
      </trkpt>
      <trkpt lat="43.68958" lon="7.06978">
        <ele>66.125</ele>
        <time>2013-11-30T10:52:43Z</time>
      </trkpt>
      <trkpt lat="43.68959" lon="7.06948">
        <ele>65.131</ele>
        <time>2013-11-30T10:52:49Z</time>
      </trkpt>
      <trkpt lat="43.68968" lon="7.06911">
        <ele>61.286</ele>
        <time>2013-11-30T10:52:56Z</time>
      </trkpt>
      <trkpt lat="43.68987" lon="7.06859">
        <ele>57.821</ele>
        <time>2013-11-30T10:53:06Z</time>
      </trkpt>
      <trkpt lat="43.69" lon="7.06824">
        <ele>58.464</ele>
        <time>2013-11-30T10:53:13Z</time>
      </trkpt>
      <trkpt lat="43.69006" lon="7.0679">
        <ele>59.244</ele>
        <time>2013-11-30T10:53:19Z</time>
      </trkpt>
      <trkpt lat="43.68994" lon="7.06752">
        <ele>63.192</ele>
        <time>2013-11-30T10:53:25Z</time>
      </trkpt>
      <trkpt lat="43.68983" lon="7.06731">
        <ele>65.115</ele>
        <time>2013-11-30T10:53:29Z</time>
      </trkpt>
      <trkpt lat="43.68978" lon="7.06697">
        <ele>66.336</ele>
        <time>2013-11-30T10:53:35Z</time>
      </trkpt>
      <trkpt lat="43.68987" lon="7.06677">
        <ele>65.314</ele>
        <time>2013-11-30T10:53:39Z</time>
      </trkpt>
      <trkpt lat="43.68999" lon="7.06672">
        <ele>64.652</ele>
        <time>2013-11-30T10:53:42Z</time>
      </trkpt>
      <trkpt lat="43.69024" lon="7.06678">
        <ele>65.743</ele>
        <time>2013-11-30T10:53:48Z</time>
      </trkpt>
      <trkpt lat="43.69029" lon="7.06678">
        <ele>66.133</ele>
        <time>2013-11-30T10:53:49Z</time>
      </trkpt>
      <trkpt lat="43.69063" lon="7.06671">
        <ele>75.845</ele>
        <time>2013-11-30T10:53:57Z</time>
      </trkpt>
      <trkpt lat="43.69096" lon="7.0666">
        <ele>83.705</ele>
        <time>2013-11-30T10:54:05Z</time>
      </trkpt>
      <trkpt lat="43.69126" lon="7.06654">
        <ele>84.939</ele>
        <time>2013-11-30T10:54:12Z</time>
      </trkpt>
      <trkpt lat="43.69166" lon="7.06649">
        <ele>82.637</ele>
        <time>2013-11-30T10:54:20Z</time>
      </trkpt>
      <trkpt lat="43.69211" lon="7.0665">
        <ele>71.442</ele>
        <time>2013-11-30T10:54:29Z</time>
      </trkpt>
      <trkpt lat="43.69259" lon="7.06646">
        <ele>69.17</ele>
        <time>2013-11-30T10:54:39Z</time>
      </trkpt>
      <trkpt lat="43.69267" lon="7.06641">
        <ele>71.925</ele>
        <time>2013-11-30T10:54:41Z</time>
      </trkpt>
      <trkpt lat="43.69286" lon="7.06641">
        <ele>80.982</ele>
        <time>2013-11-30T10:54:46Z</time>
      </trkpt>
      <trkpt lat="43.69289" lon="7.06641">
        <ele>84.527</ele>
        <time>2013-11-30T10:54:47Z</time>
      </trkpt>
      <trkpt lat="43.69316" lon="7.06638">
        <ele>91.269</ele>
        <time>2013-11-30T10:54:53Z</time>
      </trkpt>
      <trkpt lat="43.69345" lon="7.06618">
        <ele>102.006</ele>
        <time>2013-11-30T10:55:00Z</time>
      </trkpt>
      <trkpt lat="43.69371" lon="7.06607">
        <ele>100.503</ele>
        <time>2013-11-30T10:55:06Z</time>
      </trkpt>
      <trkpt lat="43.69387" lon="7.06587">
        <ele>94.563</ele>
        <time>2013-11-30T10:55:11Z</time>
      </trkpt>
      <trkpt lat="43.69394" lon="7.06582">
        <ele>84.701</ele>
        <time>2013-11-30T10:55:13Z</time>
      </trkpt>
      <trkpt lat="43.69412" lon="7.06544">
        <ele>68.937</ele>
        <time>2013-11-30T10:55:21Z</time>
      </trkpt>
      <trkpt lat="43.69414" lon="7.06538">
        <ele>67.938</ele>
        <time>2013-11-30T10:55:22Z</time>
      </trkpt>
      <trkpt lat="43.69419" lon="7.06508">
        <ele>66.517</ele>
        <time>2013-11-30T10:55:27Z</time>
      </trkpt>
      <trkpt lat="43.69418" lon="7.06455">
        <ele>70.398</ele>
        <time>2013-11-30T10:55:35Z</time>
      </trkpt>
      <trkpt lat="43.69418" lon="7.06449">
        <ele>71.05</ele>
        <time>2013-11-30T10:55:36Z</time>
      </trkpt>
      <trkpt lat="43.69416" lon="7.06387">
        <ele>72.029</ele>
        <time>2013-11-30T10:55:46Z</time>
      </trkpt>
      <trkpt lat="43.69412" lon="7.06345">
        <ele>73.17</ele>
        <time>2013-11-30T10:55:53Z</time>
      </trkpt>
      <trkpt lat="43.6941" lon="7.06306">
        <ele>74.612</ele>
        <time>2013-11-30T10:56:00Z</time>
      </trkpt>
      <trkpt lat="43.69412" lon="7.06272">
        <ele>75.412</ele>
        <time>2013-11-30T10:56:06Z</time>
      </trkpt>
      <trkpt lat="43.69421" lon="7.06224">
        <ele>75.451</ele>
        <time>2013-11-30T10:56:15Z</time>
      </trkpt>
      <trkpt lat="43.69424" lon="7.06208">
        <ele>75.07</ele>
        <time>2013-11-30T10:56:18Z</time>
      </trkpt>
      <trkpt lat="43.69439" lon="7.06188">
        <ele>76.342</ele>
        <time>2013-11-30T10:56:23Z</time>
      </trkpt>
      <trkpt lat="43.69457" lon="7.06187">
        <ele>79.306</ele>
        <time>2013-11-30T10:56:28Z</time>
      </trkpt>
      <trkpt lat="43.69467" lon="7.06201">
        <ele>83.309</ele>
        <time>2013-11-30T10:56:32Z</time>
      </trkpt>
      <trkpt lat="43.69469" lon="7.06226">
        <ele>87.188</ele>
        <time>2013-11-30T10:56:37Z</time>
      </trkpt>
      <trkpt lat="43.69469" lon="7.06231">
        <ele>88.23</ele>
        <time>2013-11-30T10:56:38Z</time>
      </trkpt>
      <trkpt lat="43.69471" lon="7.06241">
        <ele>89.992</ele>
        <time>2013-11-30T10:56:40Z</time>
      </trkpt>
      <trkpt lat="43.69483" lon="7.06263">
        <ele>95.601</ele>
        <time>2013-11-30T10:56:44Z</time>
      </trkpt>
      <trkpt lat="43.69502" lon="7.06308">
        <ele>103.747</ele>
        <time>2013-11-30T10:56:52Z</time>
      </trkpt>
      <trkpt lat="43.69508" lon="7.06319">
        <ele>107.218</ele>
        <time>2013-11-30T10:56:56Z</time>
      </trkpt>
      <trkpt lat="43.69516" lon="7.0632">
        <ele>111.033</ele>
        <time>2013-11-30T10:57:01Z</time>
      </trkpt>
      <trkpt lat="43.69531" lon="7.06322">
        <ele>116.982</ele>
        <time>2013-11-30T10:57:05Z</time>
      </trkpt>
      <trkpt lat="43.6954" lon="7.06325">
        <ele>117.196</ele>
        <time>2013-11-30T10:57:07Z</time>
      </trkpt>
      <trkpt lat="43.69576" lon="7.0633">
        <ele>112.449</ele>
        <time>2013-11-30T10:57:14Z</time>
      </trkpt>
      <trkpt lat="43.69587" lon="7.06331">
        <ele>109.693</ele>
        <time>2013-11-30T10:57:16Z</time>
      </trkpt>
      <trkpt lat="43.69598" lon="7.06332">
        <ele>108.622</ele>
        <time>2013-11-30T10:57:18Z</time>
      </trkpt>
      <trkpt lat="43.69609" lon="7.06332">
        <ele>107.872</ele>
        <time>2013-11-30T10:57:20Z</time>
      </trkpt>
      <trkpt lat="43.6966" lon="7.06334">
        <ele>100.304</ele>
        <time>2013-11-30T10:57:29Z</time>
      </trkpt>
      <trkpt lat="43.69672" lon="7.06336">
        <ele>95.869</ele>
        <time>2013-11-30T10:57:31Z</time>
      </trkpt>
      <trkpt lat="43.697" lon="7.0633">
        <ele>87.473</ele>
        <time>2013-11-30T10:57:36Z</time>
      </trkpt>
      <trkpt lat="43.69735" lon="7.06295">
        <ele>78.757</ele>
        <time>2013-11-30T10:57:44Z</time>
      </trkpt>
      <trkpt lat="43.69739" lon="7.06291">
        <ele>77.917</ele>
        <time>2013-11-30T10:57:45Z</time>
      </trkpt>
      <trkpt lat="43.69747" lon="7.06282">
        <ele>75.185</ele>
        <time>2013-11-30T10:57:47Z</time>
      </trkpt>
      <trkpt lat="43.69763" lon="7.06253">
        <ele>70.038</ele>
        <time>2013-11-30T10:57:52Z</time>
      </trkpt>
      <trkpt lat="43.69774" lon="7.06228">
        <ele>68.643</ele>
        <time>2013-11-30T10:57:56Z</time>
      </trkpt>
      <trkpt lat="43.69785" lon="7.06181">
        <ele>67.594</ele>
        <time>2013-11-30T10:58:03Z</time>
      </trkpt>
      <trkpt lat="43.69785" lon="7.06159">
        <ele>71.339</ele>
        <time>2013-11-30T10:58:06Z</time>
      </trkpt>
      <trkpt lat="43.69775" lon="7.06101">
        <ele>75.961</ele>
        <time>2013-11-30T10:58:14Z</time>
      </trkpt>
      <trkpt lat="43.69759" lon="7.06063">
        <ele>78.065</ele>
        <time>2013-11-30T10:58:20Z</time>
      </trkpt>
      <trkpt lat="43.69756" lon="7.06057">
        <ele>78.385</ele>
        <time>2013-11-30T10:58:21Z</time>
      </trkpt>
      <trkpt lat="43.69749" lon="7.06047">
        <ele>78.925</ele>
        <time>2013-11-30T10:58:23Z</time>
      </trkpt>
      <trkpt lat="43.69714" lon="7.06013">
        <ele>83.418</ele>
        <time>2013-11-30T10:58:31Z</time>
      </trkpt>
      <trkpt lat="43.69691" lon="7.05998">
        <ele>84.703</ele>
        <time>2013-11-30T10:58:36Z</time>
      </trkpt>
      <trkpt lat="43.69677" lon="7.0597">
        <ele>83.99</ele>
        <time>2013-11-30T10:58:41Z</time>
      </trkpt>
      <trkpt lat="43.69684" lon="7.05942">
        <ele>81.977</ele>
        <time>2013-11-30T10:58:45Z</time>
      </trkpt>
      <trkpt lat="43.6969" lon="7.05924">
        <ele>81.129</ele>
        <time>2013-11-30T10:58:48Z</time>
      </trkpt>
      <trkpt lat="43.69708" lon="7.05875">
        <ele>78.256</ele>
        <time>2013-11-30T10:58:56Z</time>
      </trkpt>
      <trkpt lat="43.69728" lon="7.05835">
        <ele>77.327</ele>
        <time>2013-11-30T10:59:03Z</time>
      </trkpt>
      <trkpt lat="43.69748" lon="7.05796">
        <ele>76.535</ele>
        <time>2013-11-30T10:59:10Z</time>
      </trkpt>
      <trkpt lat="43.69768" lon="7.05755">
        <ele>75.864</ele>
        <time>2013-11-30T10:59:17Z</time>
      </trkpt>
      <trkpt lat="43.69776" lon="7.05737">
        <ele>75.182</ele>
        <time>2013-11-30T10:59:20Z</time>
      </trkpt>
      <trkpt lat="43.69781" lon="7.05697">
        <ele>75.476</ele>
        <time>2013-11-30T10:59:26Z</time>
      </trkpt>
      <trkpt lat="43.69777" lon="7.05644">
        <ele>79.612</ele>
        <time>2013-11-30T10:59:34Z</time>
      </trkpt>
      <trkpt lat="43.69768" lon="7.05612">
        <ele>81.033</ele>
        <time>2013-11-30T10:59:39Z</time>
      </trkpt>
      <trkpt lat="43.69746" lon="7.05567">
        <ele>83.382</ele>
        <time>2013-11-30T10:59:47Z</time>
      </trkpt>
      <trkpt lat="43.69725" lon="7.0552">
        <ele>86.285</ele>
        <time>2013-11-30T10:59:55Z</time>
      </trkpt>
      <trkpt lat="43.69718" lon="7.05503">
        <ele>86.872</ele>
        <time>2013-11-30T10:59:58Z</time>
      </trkpt>
      <trkpt lat="43.69703" lon="7.05458">
        <ele>87.258</ele>
        <time>2013-11-30T11:00:06Z</time>
      </trkpt>
      <trkpt lat="43.69682" lon="7.05415">
        <ele>86.52</ele>
        <time>2013-11-30T11:00:14Z</time>
      </trkpt>
      <trkpt lat="43.69667" lon="7.05383">
        <ele>85.694</ele>
        <time>2013-11-30T11:00:20Z</time>
      </trkpt>
      <trkpt lat="43.69662" lon="7.05373">
        <ele>85.614</ele>
        <time>2013-11-30T11:00:22Z</time>
      </trkpt>
      <trkpt lat="43.69655" lon="7.05358">
        <ele>85.713</ele>
        <time>2013-11-30T11:00:25Z</time>
      </trkpt>
      <trkpt lat="43.69653" lon="7.0533">
        <ele>84.559</ele>
        <time>2013-11-30T11:00:30Z</time>
      </trkpt>
      <trkpt lat="43.69664" lon="7.05322">
        <ele>84.671</ele>
        <time>2013-11-30T11:00:33Z</time>
      </trkpt>
      <trkpt lat="43.69672" lon="7.05324">
        <ele>85.472</ele>
        <time>2013-11-30T11:00:35Z</time>
      </trkpt>
      <trkpt lat="43.69703" lon="7.05332">
        <ele>89.988</ele>
        <time>2013-11-30T11:00:42Z</time>
      </trkpt>
      <trkpt lat="43.69731" lon="7.05326">
        <ele>97.703</ele>
        <time>2013-11-30T11:00:49Z</time>
      </trkpt>
      <trkpt lat="43.69765" lon="7.05308">
        <ele>101.584</ele>
        <time>2013-11-30T11:00:57Z</time>
      </trkpt>
      <trkpt lat="43.69774" lon="7.05304">
        <ele>101.024</ele>
        <time>2013-11-30T11:00:59Z</time>
      </trkpt>
      <trkpt lat="43.69782" lon="7.053">
        <ele>100.873</ele>
        <time>2013-11-30T11:01:01Z</time>
      </trkpt>
      <trkpt lat="43.69798" lon="7.05286">
        <ele>97.888</ele>
        <time>2013-11-30T11:01:05Z</time>
      </trkpt>
      <trkpt lat="43.69805" lon="7.05277">
        <ele>95.333</ele>
        <time>2013-11-30T11:01:07Z</time>
      </trkpt>
      <trkpt lat="43.69815" lon="7.05257">
        <ele>92.372</ele>
        <time>2013-11-30T11:01:11Z</time>
      </trkpt>
      <trkpt lat="43.69826" lon="7.05225">
        <ele>88.795</ele>
        <time>2013-11-30T11:01:17Z</time>
      </trkpt>
      <trkpt lat="43.69826" lon="7.05204">
        <ele>91.114</ele>
        <time>2013-11-30T11:01:20Z</time>
      </trkpt>
      <trkpt lat="43.69819" lon="7.05169">
        <ele>89.015</ele>
        <time>2013-11-30T11:01:26Z</time>
      </trkpt>
      <trkpt lat="43.69806" lon="7.05143">
        <ele>87.927</ele>
        <time>2013-11-30T11:01:31Z</time>
      </trkpt>
      <trkpt lat="43.69774" lon="7.05116">
        <ele>91.061</ele>
        <time>2013-11-30T11:01:39Z</time>
      </trkpt>
      <trkpt lat="43.69736" lon="7.05091">
        <ele>94.212</ele>
        <time>2013-11-30T11:01:48Z</time>
      </trkpt>
      <trkpt lat="43.69728" lon="7.05066">
        <ele>94.69</ele>
        <time>2013-11-30T11:01:53Z</time>
      </trkpt>
      <trkpt lat="43.69734" lon="7.05046">
        <ele>94.72</ele>
        <time>2013-11-30T11:01:57Z</time>
      </trkpt>
      <trkpt lat="43.6974" lon="7.05037">
        <ele>93.909</ele>
        <time>2013-11-30T11:01:59Z</time>
      </trkpt>
      <trkpt lat="43.69767" lon="7.04998">
        <ele>91.134</ele>
        <time>2013-11-30T11:02:08Z</time>
      </trkpt>
      <trkpt lat="43.69787" lon="7.04968">
        <ele>87.898</ele>
        <time>2013-11-30T11:02:15Z</time>
      </trkpt>
      <trkpt lat="43.69802" lon="7.04928">
        <ele>86.141</ele>
        <time>2013-11-30T11:02:23Z</time>
      </trkpt>
      <trkpt lat="43.69807" lon="7.04889">
        <ele>86.945</ele>
        <time>2013-11-30T11:02:30Z</time>
      </trkpt>
      <trkpt lat="43.69809" lon="7.04858">
        <ele>88.498</ele>
        <time>2013-11-30T11:02:36Z</time>
      </trkpt>
      <trkpt lat="43.69813" lon="7.04819">
        <ele>89.128</ele>
        <time>2013-11-30T11:02:43Z</time>
      </trkpt>
      <trkpt lat="43.69817" lon="7.04783">
        <ele>88.366</ele>
        <time>2013-11-30T11:02:49Z</time>
      </trkpt>
      <trkpt lat="43.69829" lon="7.0474">
        <ele>87.403</ele>
        <time>2013-11-30T11:02:57Z</time>
      </trkpt>
      <trkpt lat="43.6984" lon="7.04709">
        <ele>88.098</ele>
        <time>2013-11-30T11:03:03Z</time>
      </trkpt>
      <trkpt lat="43.6986" lon="7.04666">
        <ele>88.879</ele>
        <time>2013-11-30T11:03:12Z</time>
      </trkpt>
      <trkpt lat="43.69875" lon="7.04628">
        <ele>89.619</ele>
        <time>2013-11-30T11:03:20Z</time>
      </trkpt>
      <trkpt lat="43.69884" lon="7.0459">
        <ele>90.338</ele>
        <time>2013-11-30T11:03:27Z</time>
      </trkpt>
      <trkpt lat="43.69892" lon="7.04559">
        <ele>90.539</ele>
        <time>2013-11-30T11:03:33Z</time>
      </trkpt>
      <trkpt lat="43.69909" lon="7.04534">
        <ele>89.096</ele>
        <time>2013-11-30T11:03:39Z</time>
      </trkpt>
      <trkpt lat="43.69932" lon="7.04498">
        <ele>86.818</ele>
        <time>2013-11-30T11:03:47Z</time>
      </trkpt>
      <trkpt lat="43.69938" lon="7.04484">
        <ele>87.845</ele>
        <time>2013-11-30T11:03:50Z</time>
      </trkpt>
      <trkpt lat="43.69957" lon="7.04456">
        <ele>87.959</ele>
        <time>2013-11-30T11:03:57Z</time>
      </trkpt>
      <trkpt lat="43.69966" lon="7.04437">
        <ele>88.52</ele>
        <time>2013-11-30T11:04:01Z</time>
      </trkpt>
      <trkpt lat="43.69976" lon="7.04393">
        <ele>90.285</ele>
        <time>2013-11-30T11:04:09Z</time>
      </trkpt>
      <trkpt lat="43.69984" lon="7.04347">
        <ele>90.406</ele>
        <time>2013-11-30T11:04:17Z</time>
      </trkpt>
      <trkpt lat="43.69992" lon="7.04291">
        <ele>94.627</ele>
        <time>2013-11-30T11:04:27Z</time>
      </trkpt>
      <trkpt lat="43.69996" lon="7.04248">
        <ele>96.317</ele>
        <time>2013-11-30T11:04:35Z</time>
      </trkpt>
      <trkpt lat="43.69991" lon="7.04229">
        <ele>97.087</ele>
        <time>2013-11-30T11:04:38Z</time>
      </trkpt>
      <trkpt lat="43.69973" lon="7.04171">
        <ele>100.071</ele>
        <time>2013-11-30T11:04:48Z</time>
      </trkpt>
      <trkpt lat="43.69964" lon="7.04126">
        <ele>102.87</ele>
        <time>2013-11-30T11:04:56Z</time>
      </trkpt>
      <trkpt lat="43.69964" lon="7.0412">
        <ele>103.172</ele>
        <time>2013-11-30T11:04:57Z</time>
      </trkpt>
      <trkpt lat="43.69971" lon="7.04098">
        <ele>102.233</ele>
        <time>2013-11-30T11:05:01Z</time>
      </trkpt>
      <trkpt lat="43.69991" lon="7.04061">
        <ele>98.736</ele>
        <time>2013-11-30T11:05:09Z</time>
      </trkpt>
      <trkpt lat="43.70015" lon="7.0402">
        <ele>96.78</ele>
        <time>2013-11-30T11:05:18Z</time>
      </trkpt>
      <trkpt lat="43.70033" lon="7.03988">
        <ele>96.531</ele>
        <time>2013-11-30T11:05:25Z</time>
      </trkpt>
      <trkpt lat="43.70052" lon="7.03946">
        <ele>97.233</ele>
        <time>2013-11-30T11:05:33Z</time>
      </trkpt>
      <trkpt lat="43.70054" lon="7.03941">
        <ele>97.311</ele>
        <time>2013-11-30T11:05:34Z</time>
      </trkpt>
      <trkpt lat="43.7007" lon="7.03893">
        <ele>99.073</ele>
        <time>2013-11-30T11:05:43Z</time>
      </trkpt>
      <trkpt lat="43.70077" lon="7.03853">
        <ele>101.373</ele>
        <time>2013-11-30T11:05:50Z</time>
      </trkpt>
      <trkpt lat="43.70081" lon="7.03807">
        <ele>101.566</ele>
        <time>2013-11-30T11:05:58Z</time>
      </trkpt>
      <trkpt lat="43.70085" lon="7.03763">
        <ele>103.284</ele>
        <time>2013-11-30T11:06:05Z</time>
      </trkpt>
      <trkpt lat="43.7009" lon="7.03712">
        <ele>105.353</ele>
        <time>2013-11-30T11:06:13Z</time>
      </trkpt>
      <trkpt lat="43.70091" lon="7.03707">
        <ele>105.064</ele>
        <time>2013-11-30T11:06:14Z</time>
      </trkpt>
      <trkpt lat="43.70088" lon="7.03688">
        <ele>105.374</ele>
        <time>2013-11-30T11:06:17Z</time>
      </trkpt>
      <trkpt lat="43.70072" lon="7.03638">
        <ele>110.445</ele>
        <time>2013-11-30T11:06:25Z</time>
      </trkpt>
      <trkpt lat="43.7007" lon="7.03604">
        <ele>111.115</ele>
        <time>2013-11-30T11:06:31Z</time>
      </trkpt>
      <trkpt lat="43.70077" lon="7.03588">
        <ele>109.875</ele>
        <time>2013-11-30T11:06:34Z</time>
      </trkpt>
      <trkpt lat="43.70096" lon="7.03555">
        <ele>109.296</ele>
        <time>2013-11-30T11:06:41Z</time>
      </trkpt>
      <trkpt lat="43.70105" lon="7.03534">
        <ele>109.453</ele>
        <time>2013-11-30T11:06:45Z</time>
      </trkpt>
      <trkpt lat="43.70117" lon="7.03486">
        <ele>110.089</ele>
        <time>2013-11-30T11:06:53Z</time>
      </trkpt>
      <trkpt lat="43.70119" lon="7.03439">
        <ele>108.281</ele>
        <time>2013-11-30T11:07:01Z</time>
      </trkpt>
      <trkpt lat="43.70118" lon="7.03409">
        <ele>108.49</ele>
        <time>2013-11-30T11:07:06Z</time>
      </trkpt>
      <trkpt lat="43.70115" lon="7.03377">
        <ele>112.436</ele>
        <time>2013-11-30T11:07:11Z</time>
      </trkpt>
      <trkpt lat="43.70104" lon="7.03328">
        <ele>115.646</ele>
        <time>2013-11-30T11:07:19Z</time>
      </trkpt>
      <trkpt lat="43.70095" lon="7.03283">
        <ele>115.613</ele>
        <time>2013-11-30T11:07:27Z</time>
      </trkpt>
      <trkpt lat="43.70089" lon="7.03244">
        <ele>114.601</ele>
        <time>2013-11-30T11:07:34Z</time>
      </trkpt>
      <trkpt lat="43.70083" lon="7.03211">
        <ele>114.905</ele>
        <time>2013-11-30T11:07:40Z</time>
      </trkpt>
      <trkpt lat="43.70078" lon="7.03174">
        <ele>115.993</ele>
        <time>2013-11-30T11:07:47Z</time>
      </trkpt>
      <trkpt lat="43.70071" lon="7.0313">
        <ele>115.962</ele>
        <time>2013-11-30T11:07:55Z</time>
      </trkpt>
      <trkpt lat="43.70063" lon="7.03088">
        <ele>117.577</ele>
        <time>2013-11-30T11:08:02Z</time>
      </trkpt>
      <trkpt lat="43.70047" lon="7.03042">
        <ele>118.551</ele>
        <time>2013-11-30T11:08:10Z</time>
      </trkpt>
      <trkpt lat="43.70037" lon="7.02995">
        <ele>117.573</ele>
        <time>2013-11-30T11:08:18Z</time>
      </trkpt>
      <trkpt lat="43.70032" lon="7.02954">
        <ele>117.022</ele>
        <time>2013-11-30T11:08:25Z</time>
      </trkpt>
      <trkpt lat="43.70032" lon="7.02948">
        <ele>116.789</ele>
        <time>2013-11-30T11:08:26Z</time>
      </trkpt>
      <trkpt lat="43.7004" lon="7.02902">
        <ele>116.029</ele>
        <time>2013-11-30T11:08:34Z</time>
      </trkpt>
      <trkpt lat="43.70047" lon="7.02864">
        <ele>117.02</ele>
        <time>2013-11-30T11:08:41Z</time>
      </trkpt>
      <trkpt lat="43.70045" lon="7.02846">
        <ele>117.241</ele>
        <time>2013-11-30T11:08:44Z</time>
      </trkpt>
      <trkpt lat="43.70031" lon="7.02814">
        <ele>118.941</ele>
        <time>2013-11-30T11:08:50Z</time>
      </trkpt>
      <trkpt lat="43.7002" lon="7.02796">
        <ele>119.619</ele>
        <time>2013-11-30T11:08:54Z</time>
      </trkpt>
      <trkpt lat="43.70003" lon="7.02769">
        <ele>118.553</ele>
        <time>2013-11-30T11:09:00Z</time>
      </trkpt>
      <trkpt lat="43.69987" lon="7.02746">
        <ele>119.415</ele>
        <time>2013-11-30T11:09:06Z</time>
      </trkpt>
      <trkpt lat="43.6998" lon="7.02739">
        <ele>119.628</ele>
        <time>2013-11-30T11:09:08Z</time>
      </trkpt>
      <trkpt lat="43.69959" lon="7.0272">
        <ele>122.632</ele>
        <time>2013-11-30T11:09:15Z</time>
      </trkpt>
      <trkpt lat="43.69937" lon="7.02696">
        <ele>123.823</ele>
        <time>2013-11-30T11:09:22Z</time>
      </trkpt>
      <trkpt lat="43.69921" lon="7.02665">
        <ele>122.934</ele>
        <time>2013-11-30T11:09:29Z</time>
      </trkpt>
      <trkpt lat="43.69907" lon="7.02641">
        <ele>123.146</ele>
        <time>2013-11-30T11:09:35Z</time>
      </trkpt>
      <trkpt lat="43.6989" lon="7.02608">
        <ele>123.966</ele>
        <time>2013-11-30T11:09:43Z</time>
      </trkpt>
      <trkpt lat="43.69876" lon="7.02574">
        <ele>123.584</ele>
        <time>2013-11-30T11:09:51Z</time>
      </trkpt>
      <trkpt lat="43.69862" lon="7.02527">
        <ele>124.143</ele>
        <time>2013-11-30T11:10:01Z</time>
      </trkpt>
      <trkpt lat="43.69846" lon="7.02478">
        <ele>124.814</ele>
        <time>2013-11-30T11:10:11Z</time>
      </trkpt>
      <trkpt lat="43.69837" lon="7.02447">
        <ele>124.602</ele>
        <time>2013-11-30T11:10:17Z</time>
      </trkpt>
      <trkpt lat="43.69826" lon="7.02407">
        <ele>125.052</ele>
        <time>2013-11-30T11:10:24Z</time>
      </trkpt>
      <trkpt lat="43.69817" lon="7.0236">
        <ele>124.591</ele>
        <time>2013-11-30T11:10:32Z</time>
      </trkpt>
      <trkpt lat="43.69817" lon="7.02323">
        <ele>123.679</ele>
        <time>2013-11-30T11:10:38Z</time>
      </trkpt>
      <trkpt lat="43.69823" lon="7.02287">
        <ele>123.389</ele>
        <time>2013-11-30T11:10:44Z</time>
      </trkpt>
      <trkpt lat="43.6983" lon="7.02258">
        <ele>126.084</ele>
        <time>2013-11-30T11:10:49Z</time>
      </trkpt>
      <trkpt lat="43.69832" lon="7.0224">
        <ele>128.255</ele>
        <time>2013-11-30T11:10:52Z</time>
      </trkpt>
      <trkpt lat="43.69832" lon="7.0219">
        <ele>127.389</ele>
        <time>2013-11-30T11:11:00Z</time>
      </trkpt>
      <trkpt lat="43.69832" lon="7.02164">
        <ele>125.304</ele>
        <time>2013-11-30T11:11:05Z</time>
      </trkpt>
      <trkpt lat="43.69827" lon="7.02132">
        <ele>124.617</ele>
        <time>2013-11-30T11:11:11Z</time>
      </trkpt>
      <trkpt lat="43.6982" lon="7.021">
        <ele>126.6</ele>
        <time>2013-11-30T11:11:18Z</time>
      </trkpt>
      <trkpt lat="43.6981" lon="7.0206">
        <ele>131.167</ele>
        <time>2013-11-30T11:11:28Z</time>
      </trkpt>
      <trkpt lat="43.69808" lon="7.0204">
        <ele>130.302</ele>
        <time>2013-11-30T11:11:34Z</time>
      </trkpt>
      <trkpt lat="43.69807" lon="7.02015">
        <ele>128.178</ele>
        <time>2013-11-30T11:11:41Z</time>
      </trkpt>
      <trkpt lat="43.69805" lon="7.0199">
        <ele>128.601</ele>
        <time>2013-11-30T11:11:48Z</time>
      </trkpt>
      <trkpt lat="43.69802" lon="7.01964">
        <ele>128.2</ele>
        <time>2013-11-30T11:11:55Z</time>
      </trkpt>
      <trkpt lat="43.69799" lon="7.01938">
        <ele>130.613</ele>
        <time>2013-11-30T11:12:02Z</time>
      </trkpt>
      <trkpt lat="43.69794" lon="7.01908">
        <ele>131.352</ele>
        <time>2013-11-30T11:12:10Z</time>
      </trkpt>
      <trkpt lat="43.6979" lon="7.01876">
        <ele>132.381</ele>
        <time>2013-11-30T11:12:18Z</time>
      </trkpt>
      <trkpt lat="43.69782" lon="7.01829">
        <ele>138.061</ele>
        <time>2013-11-30T11:12:28Z</time>
      </trkpt>
      <trkpt lat="43.69784" lon="7.01798">
        <ele>139.481</ele>
        <time>2013-11-30T11:12:36Z</time>
      </trkpt>
      <trkpt lat="43.6979" lon="7.01761">
        <ele>142.073</ele>
        <time>2013-11-30T11:12:45Z</time>
      </trkpt>
      <trkpt lat="43.69801" lon="7.01734">
        <ele>141.681</ele>
        <time>2013-11-30T11:12:53Z</time>
      </trkpt>
      <trkpt lat="43.69815" lon="7.01708">
        <ele>138.637</ele>
        <time>2013-11-30T11:13:01Z</time>
      </trkpt>
      <trkpt lat="43.69825" lon="7.01684">
        <ele>139.37</ele>
        <time>2013-11-30T11:13:08Z</time>
      </trkpt>
      <trkpt lat="43.6983" lon="7.01651">
        <ele>142.233</ele>
        <time>2013-11-30T11:13:16Z</time>
      </trkpt>
      <trkpt lat="43.69833" lon="7.01621">
        <ele>142.06</ele>
        <time>2013-11-30T11:13:23Z</time>
      </trkpt>
      <trkpt lat="43.69834" lon="7.01593">
        <ele>143.901</ele>
        <time>2013-11-30T11:13:29Z</time>
      </trkpt>
      <trkpt lat="43.69835" lon="7.01562">
        <ele>145.193</ele>
        <time>2013-11-30T11:13:36Z</time>
      </trkpt>
      <trkpt lat="43.69836" lon="7.01526">
        <ele>147.053</ele>
        <time>2013-11-30T11:13:44Z</time>
      </trkpt>
      <trkpt lat="43.69841" lon="7.01485">
        <ele>145.661</ele>
        <time>2013-11-30T11:13:53Z</time>
      </trkpt>
      <trkpt lat="43.69846" lon="7.01449">
        <ele>143.628</ele>
        <time>2013-11-30T11:14:01Z</time>
      </trkpt>
      <trkpt lat="43.69847" lon="7.01419">
        <ele>145.759</ele>
        <time>2013-11-30T11:14:07Z</time>
      </trkpt>
      <trkpt lat="43.69846" lon="7.0139">
        <ele>145.329</ele>
        <time>2013-11-30T11:14:13Z</time>
      </trkpt>
      <trkpt lat="43.69847" lon="7.01362">
        <ele>144.178</ele>
        <time>2013-11-30T11:14:19Z</time>
      </trkpt>
      <trkpt lat="43.69852" lon="7.01327">
        <ele>142.238</ele>
        <time>2013-11-30T11:14:27Z</time>
      </trkpt>
      <trkpt lat="43.69856" lon="7.01295">
        <ele>143.929</ele>
        <time>2013-11-30T11:14:33Z</time>
      </trkpt>
      <trkpt lat="43.69861" lon="7.01265">
        <ele>145.508</ele>
        <time>2013-11-30T11:14:39Z</time>
      </trkpt>
      <trkpt lat="43.69868" lon="7.01236">
        <ele>145.98</ele>
        <time>2013-11-30T11:14:45Z</time>
      </trkpt>
      <trkpt lat="43.69875" lon="7.012">
        <ele>145.609</ele>
        <time>2013-11-30T11:14:52Z</time>
      </trkpt>
      <trkpt lat="43.69886" lon="7.01158">
        <ele>146.303</ele>
        <time>2013-11-30T11:15:01Z</time>
      </trkpt>
      <trkpt lat="43.6989" lon="7.01137">
        <ele>146.961</ele>
        <time>2013-11-30T11:15:06Z</time>
      </trkpt>
      <trkpt lat="43.69899" lon="7.0111">
        <ele>148.276</ele>
        <time>2013-11-30T11:15:13Z</time>
      </trkpt>
      <trkpt lat="43.69904" lon="7.01087">
        <ele>148.561</ele>
        <time>2013-11-30T11:15:19Z</time>
      </trkpt>
      <trkpt lat="43.69904" lon="7.01058">
        <ele>148.721</ele>
        <time>2013-11-30T11:15:26Z</time>
      </trkpt>
      <trkpt lat="43.699" lon="7.01028">
        <ele>148.27</ele>
        <time>2013-11-30T11:15:33Z</time>
      </trkpt>
      <trkpt lat="43.69894" lon="7.00998">
        <ele>148.39</ele>
        <time>2013-11-30T11:15:40Z</time>
      </trkpt>
      <trkpt lat="43.69891" lon="7.0096">
        <ele>150.821</ele>
        <time>2013-11-30T11:15:49Z</time>
      </trkpt>
      <trkpt lat="43.69893" lon="7.00925">
        <ele>155.251</ele>
        <time>2013-11-30T11:15:57Z</time>
      </trkpt>
      <trkpt lat="43.69904" lon="7.00891">
        <ele>157.42</ele>
        <time>2013-11-30T11:16:06Z</time>
      </trkpt>
      <trkpt lat="43.69917" lon="7.00861">
        <ele>157.329</ele>
        <time>2013-11-30T11:16:14Z</time>
      </trkpt>
      <trkpt lat="43.69928" lon="7.00835">
        <ele>157.319</ele>
        <time>2013-11-30T11:16:21Z</time>
      </trkpt>
      <trkpt lat="43.69945" lon="7.0081">
        <ele>156.726</ele>
        <time>2013-11-30T11:16:30Z</time>
      </trkpt>
      <trkpt lat="43.69964" lon="7.00793">
        <ele>156.047</ele>
        <time>2013-11-30T11:16:37Z</time>
      </trkpt>
      <trkpt lat="43.69997" lon="7.00762">
        <ele>154.726</ele>
        <time>2013-11-30T11:16:48Z</time>
      </trkpt>
      <trkpt lat="43.70009" lon="7.00737">
        <ele>153.645</ele>
        <time>2013-11-30T11:16:54Z</time>
      </trkpt>
      <trkpt lat="43.70025" lon="7.00693">
        <ele>153.488</ele>
        <time>2013-11-30T11:17:03Z</time>
      </trkpt>
      <trkpt lat="43.70047" lon="7.00645">
        <ele>153.639</ele>
        <time>2013-11-30T11:17:13Z</time>
      </trkpt>
      <trkpt lat="43.70065" lon="7.00615">
        <ele>153.658</ele>
        <time>2013-11-30T11:17:20Z</time>
      </trkpt>
      <trkpt lat="43.70091" lon="7.00571">
        <ele>153.949</ele>
        <time>2013-11-30T11:17:30Z</time>
      </trkpt>
      <trkpt lat="43.70115" lon="7.00531">
        <ele>154.609</ele>
        <time>2013-11-30T11:17:39Z</time>
      </trkpt>
      <trkpt lat="43.70139" lon="7.00494">
        <ele>154.388</ele>
        <time>2013-11-30T11:17:48Z</time>
      </trkpt>
      <trkpt lat="43.70166" lon="7.00451">
        <ele>153.918</ele>
        <time>2013-11-30T11:17:58Z</time>
      </trkpt>
      <trkpt lat="43.70184" lon="7.00416">
        <ele>154.057</ele>
        <time>2013-11-30T11:18:06Z</time>
      </trkpt>
      <trkpt lat="43.70205" lon="7.00373">
        <ele>155.018</ele>
        <time>2013-11-30T11:18:15Z</time>
      </trkpt>
      <trkpt lat="43.70215" lon="7.00351">
        <ele>156.91</ele>
        <time>2013-11-30T11:18:20Z</time>
      </trkpt>
      <trkpt lat="43.70226" lon="7.00347">
        <ele>159.613</ele>
        <time>2013-11-30T11:18:26Z</time>
      </trkpt>
      <trkpt lat="43.70229" lon="7.00348">
        <ele>160.494</ele>
        <time>2013-11-30T11:18:31Z</time>
      </trkpt>
      <trkpt lat="43.70231" lon="7.00347">
        <ele>164.337</ele>
        <time>2013-11-30T11:18:37Z</time>
      </trkpt>
      <trkpt lat="43.70231" lon="7.00344">
        <ele>160.707</ele>
        <time>2013-11-30T11:22:22Z</time>
      </trkpt>
      <trkpt lat="43.70235" lon="7.00348">
        <ele>161.819</ele>
        <time>2013-11-30T11:22:28Z</time>
      </trkpt>
      <trkpt lat="43.70235" lon="7.00349">
        <ele>162.679</ele>
        <time>2013-11-30T11:22:33Z</time>
      </trkpt>
      <trkpt lat="43.70234" lon="7.00363">
        <ele>164.164</ele>
        <time>2013-11-30T11:22:41Z</time>
      </trkpt>
      <trkpt lat="43.70235" lon="7.00368">
        <ele>164.362</ele>
        <time>2013-11-30T11:22:43Z</time>
      </trkpt>
      <trkpt lat="43.70237" lon="7.00391">
        <ele>170.009</ele>
        <time>2013-11-30T11:22:53Z</time>
      </trkpt>
      <trkpt lat="43.70236" lon="7.00407">
        <ele>172.677</ele>
        <time>2013-11-30T11:23:00Z</time>
      </trkpt>
      <trkpt lat="43.70238" lon="7.00423">
        <ele>174.714</ele>
        <time>2013-11-30T11:23:08Z</time>
      </trkpt>
      <trkpt lat="43.70244" lon="7.00436">
        <ele>174.683</ele>
        <time>2013-11-30T11:23:15Z</time>
      </trkpt>
      <trkpt lat="43.70245" lon="7.00441">
        <ele>175.274</ele>
        <time>2013-11-30T11:23:17Z</time>
      </trkpt>
      <trkpt lat="43.70251" lon="7.00449">
        <ele>175.524</ele>
        <time>2013-11-30T11:23:23Z</time>
      </trkpt>
      <trkpt lat="43.70256" lon="7.00458">
        <ele>176.373</ele>
        <time>2013-11-30T11:23:29Z</time>
      </trkpt>
      <trkpt lat="43.70257" lon="7.0046">
        <ele>176.523</ele>
        <time>2013-11-30T11:23:30Z</time>
      </trkpt>
      <trkpt lat="43.70264" lon="7.00469">
        <ele>181.157</ele>
        <time>2013-11-30T11:23:39Z</time>
      </trkpt>
      <trkpt lat="43.70266" lon="7.0047">
        <ele>180.566</ele>
        <time>2013-11-30T11:23:40Z</time>
      </trkpt>
      <trkpt lat="43.70268" lon="7.00479">
        <ele>185.299</ele>
        <time>2013-11-30T11:23:47Z</time>
      </trkpt>
      <trkpt lat="43.70264" lon="7.00486">
        <ele>184.195</ele>
        <time>2013-11-30T11:23:52Z</time>
      </trkpt>
      <trkpt lat="43.70259" lon="7.0049">
        <ele>184.725</ele>
        <time>2013-11-30T11:23:58Z</time>
      </trkpt>
      <trkpt lat="43.70257" lon="7.00492">
        <ele>186.597</ele>
        <time>2013-11-30T11:24:00Z</time>
      </trkpt>
      <trkpt lat="43.70252" lon="7.00505">
        <ele>191.48</ele>
        <time>2013-11-30T11:24:08Z</time>
      </trkpt>
      <trkpt lat="43.70248" lon="7.00511">
        <ele>192.849</ele>
        <time>2013-11-30T11:24:14Z</time>
      </trkpt>
      <trkpt lat="43.70241" lon="7.00516">
        <ele>197.103</ele>
        <time>2013-11-30T11:24:21Z</time>
      </trkpt>
      <trkpt lat="43.70239" lon="7.00523">
        <ele>197.759</ele>
        <time>2013-11-30T11:24:25Z</time>
      </trkpt>
      <trkpt lat="43.70232" lon="7.00535">
        <ele>198.607</ele>
        <time>2013-11-30T11:24:33Z</time>
      </trkpt>
      <trkpt lat="43.70229" lon="7.00538">
        <ele>200.941</ele>
        <time>2013-11-30T11:24:36Z</time>
      </trkpt>
      <trkpt lat="43.70225" lon="7.00549">
        <ele>200.656</ele>
        <time>2013-11-30T11:24:43Z</time>
      </trkpt>
      <trkpt lat="43.70222" lon="7.00558">
        <ele>200.714</ele>
        <time>2013-11-30T11:24:48Z</time>
      </trkpt>
      <trkpt lat="43.70217" lon="7.00567">
        <ele>200.442</ele>
        <time>2013-11-30T11:24:55Z</time>
      </trkpt>
      <trkpt lat="43.70214" lon="7.00588">
        <ele>201.174</ele>
        <time>2013-11-30T11:25:06Z</time>
      </trkpt>
      <trkpt lat="43.70213" lon="7.006">
        <ele>202.055</ele>
        <time>2013-11-30T11:25:13Z</time>
      </trkpt>
      <trkpt lat="43.70212" lon="7.00612">
        <ele>202.645</ele>
        <time>2013-11-30T11:25:20Z</time>
      </trkpt>
      <trkpt lat="43.70211" lon="7.00629">
        <ele>204.756</ele>
        <time>2013-11-30T11:25:30Z</time>
      </trkpt>
      <trkpt lat="43.70209" lon="7.00642">
        <ele>207.668</ele>
        <time>2013-11-30T11:25:38Z</time>
      </trkpt>
      <trkpt lat="43.70209" lon="7.00648">
        <ele>209.829</ele>
        <time>2013-11-30T11:25:42Z</time>
      </trkpt>
      <trkpt lat="43.70209" lon="7.00661">
        <ele>213.701</ele>
        <time>2013-11-30T11:25:49Z</time>
      </trkpt>
      <trkpt lat="43.7021" lon="7.00675">
        <ele>217.434</ele>
        <time>2013-11-30T11:25:56Z</time>
      </trkpt>
      <trkpt lat="43.7021" lon="7.00677">
        <ele>217.633</ele>
        <time>2013-11-30T11:25:57Z</time>
      </trkpt>
      <trkpt lat="43.7021" lon="7.00691">
        <ele>218.046</ele>
        <time>2013-11-30T11:26:05Z</time>
      </trkpt>
      <trkpt lat="43.70212" lon="7.00708">
        <ele>217.614</ele>
        <time>2013-11-30T11:26:14Z</time>
      </trkpt>
      <trkpt lat="43.70214" lon="7.00724">
        <ele>218.083</ele>
        <time>2013-11-30T11:26:23Z</time>
      </trkpt>
      <trkpt lat="43.70215" lon="7.00737">
        <ele>217.403</ele>
        <time>2013-11-30T11:26:30Z</time>
      </trkpt>
      <trkpt lat="43.70215" lon="7.00749">
        <ele>218.605</ele>
        <time>2013-11-30T11:26:37Z</time>
      </trkpt>
      <trkpt lat="43.70215" lon="7.00765">
        <ele>219.404</ele>
        <time>2013-11-30T11:26:46Z</time>
      </trkpt>
      <trkpt lat="43.70215" lon="7.00777">
        <ele>220.014</ele>
        <time>2013-11-30T11:26:53Z</time>
      </trkpt>
      <trkpt lat="43.70215" lon="7.00792">
        <ele>221.754</ele>
        <time>2013-11-30T11:27:01Z</time>
      </trkpt>
      <trkpt lat="43.70217" lon="7.00802">
        <ele>222.744</ele>
        <time>2013-11-30T11:27:07Z</time>
      </trkpt>
      <trkpt lat="43.70221" lon="7.00818">
        <ele>223.784</ele>
        <time>2013-11-30T11:27:17Z</time>
      </trkpt>
      <trkpt lat="43.70221" lon="7.0082">
        <ele>223.923</ele>
        <time>2013-11-30T11:27:18Z</time>
      </trkpt>
      <trkpt lat="43.70226" lon="7.00829">
        <ele>225.724</ele>
        <time>2013-11-30T11:27:25Z</time>
      </trkpt>
      <trkpt lat="43.70227" lon="7.00834">
        <ele>226.264</ele>
        <time>2013-11-30T11:27:28Z</time>
      </trkpt>
      <trkpt lat="43.70228" lon="7.00837">
        <ele>226.783</ele>
        <time>2013-11-30T11:27:30Z</time>
      </trkpt>
      <trkpt lat="43.70234" lon="7.00843">
        <ele>229.053</ele>
        <time>2013-11-30T11:27:37Z</time>
      </trkpt>
      <trkpt lat="43.70237" lon="7.00853">
        <ele>229.914</ele>
        <time>2013-11-30T11:27:43Z</time>
      </trkpt>
      <trkpt lat="43.70242" lon="7.00867">
        <ele>232.254</ele>
        <time>2013-11-30T11:27:52Z</time>
      </trkpt>
      <trkpt lat="43.70243" lon="7.00868">
        <ele>232.434</ele>
        <time>2013-11-30T11:27:53Z</time>
      </trkpt>
      <trkpt lat="43.70245" lon="7.00885">
        <ele>233.313</ele>
        <time>2013-11-30T11:28:03Z</time>
      </trkpt>
      <trkpt lat="43.70249" lon="7.00902">
        <ele>234.902</ele>
        <time>2013-11-30T11:28:12Z</time>
      </trkpt>
      <trkpt lat="43.70251" lon="7.00915">
        <ele>235.522</ele>
        <time>2013-11-30T11:28:19Z</time>
      </trkpt>
      <trkpt lat="43.70255" lon="7.00929">
        <ele>233.929</ele>
        <time>2013-11-30T11:28:26Z</time>
      </trkpt>
      <trkpt lat="43.70261" lon="7.0094">
        <ele>234.689</ele>
        <time>2013-11-30T11:28:32Z</time>
      </trkpt>
      <trkpt lat="43.70271" lon="7.00954">
        <ele>231.755</ele>
        <time>2013-11-30T11:28:38Z</time>
      </trkpt>
      <trkpt lat="43.70283" lon="7.0097">
        <ele>231.338</ele>
        <time>2013-11-30T11:28:45Z</time>
      </trkpt>
      <trkpt lat="43.70295" lon="7.00983">
        <ele>234.917</ele>
        <time>2013-11-30T11:28:51Z</time>
      </trkpt>
      <trkpt lat="43.70311" lon="7.00994">
        <ele>236.114</ele>
        <time>2013-11-30T11:28:57Z</time>
      </trkpt>
      <trkpt lat="43.70317" lon="7.0101">
        <ele>234.669</ele>
        <time>2013-11-30T11:29:01Z</time>
      </trkpt>
      <trkpt lat="43.70314" lon="7.01032">
        <ele>231.563</ele>
        <time>2013-11-30T11:29:06Z</time>
      </trkpt>
      <trkpt lat="43.70307" lon="7.01057">
        <ele>231.027</ele>
        <time>2013-11-30T11:29:12Z</time>
      </trkpt>
      <trkpt lat="43.70293" lon="7.01073">
        <ele>232.882</ele>
        <time>2013-11-30T11:29:17Z</time>
      </trkpt>
      <trkpt lat="43.70277" lon="7.01088">
        <ele>235.717</ele>
        <time>2013-11-30T11:29:23Z</time>
      </trkpt>
      <trkpt lat="43.7027" lon="7.01103">
        <ele>237.876</ele>
        <time>2013-11-30T11:29:29Z</time>
      </trkpt>
      <trkpt lat="43.70263" lon="7.01127">
        <ele>239.634</ele>
        <time>2013-11-30T11:29:38Z</time>
      </trkpt>
      <trkpt lat="43.70255" lon="7.01145">
        <ele>241.218</ele>
        <time>2013-11-30T11:29:46Z</time>
      </trkpt>
      <trkpt lat="43.70247" lon="7.01158">
        <ele>244.66</ele>
        <time>2013-11-30T11:29:53Z</time>
      </trkpt>
      <trkpt lat="43.70242" lon="7.01178">
        <ele>246.821</ele>
        <time>2013-11-30T11:30:02Z</time>
      </trkpt>
      <trkpt lat="43.70235" lon="7.01197">
        <ele>248.517</ele>
        <time>2013-11-30T11:30:10Z</time>
      </trkpt>
      <trkpt lat="43.70229" lon="7.01219">
        <ele>250.135</ele>
        <time>2013-11-30T11:30:19Z</time>
      </trkpt>
      <trkpt lat="43.70225" lon="7.01238">
        <ele>250.947</ele>
        <time>2013-11-30T11:30:26Z</time>
      </trkpt>
      <trkpt lat="43.70223" lon="7.01257">
        <ele>253.838</ele>
        <time>2013-11-30T11:30:33Z</time>
      </trkpt>
      <trkpt lat="43.70221" lon="7.01281">
        <ele>256.427</ele>
        <time>2013-11-30T11:30:41Z</time>
      </trkpt>
      <trkpt lat="43.7022" lon="7.01309">
        <ele>257.974</ele>
        <time>2013-11-30T11:30:49Z</time>
      </trkpt>
      <trkpt lat="43.70222" lon="7.01335">
        <ele>253.456</ele>
        <time>2013-11-30T11:30:56Z</time>
      </trkpt>
      <trkpt lat="43.70225" lon="7.01346">
        <ele>252.093</ele>
        <time>2013-11-30T11:30:58Z</time>
      </trkpt>
      <trkpt lat="43.70232" lon="7.0139">
        <ele>247.88</ele>
        <time>2013-11-30T11:31:05Z</time>
      </trkpt>
      <trkpt lat="43.70235" lon="7.01418">
        <ele>246.936</ele>
        <time>2013-11-30T11:31:10Z</time>
      </trkpt>
      <trkpt lat="43.70234" lon="7.01434">
        <ele>247.382</ele>
        <time>2013-11-30T11:31:15Z</time>
      </trkpt>
      <trkpt lat="43.70234" lon="7.01453">
        <ele>248.402</ele>
        <time>2013-11-30T11:31:22Z</time>
      </trkpt>
      <trkpt lat="43.70236" lon="7.01469">
        <ele>252.376</ele>
        <time>2013-11-30T11:31:29Z</time>
      </trkpt>
      <trkpt lat="43.7024" lon="7.01484">
        <ele>254.212</ele>
        <time>2013-11-30T11:31:36Z</time>
      </trkpt>
      <trkpt lat="43.70238" lon="7.01496">
        <ele>257.379</ele>
        <time>2013-11-30T11:31:43Z</time>
      </trkpt>
      <trkpt lat="43.70235" lon="7.01502">
        <ele>261.164</ele>
        <time>2013-11-30T11:31:47Z</time>
      </trkpt>
      <trkpt lat="43.70234" lon="7.01512">
        <ele>263.54</ele>
        <time>2013-11-30T11:31:53Z</time>
      </trkpt>
      <trkpt lat="43.70231" lon="7.01517">
        <ele>264.649</ele>
        <time>2013-11-30T11:31:56Z</time>
      </trkpt>
      <trkpt lat="43.7023" lon="7.01522">
        <ele>265.267</ele>
        <time>2013-11-30T11:31:59Z</time>
      </trkpt>
      <trkpt lat="43.70225" lon="7.01535">
        <ele>265.968</ele>
        <time>2013-11-30T11:32:06Z</time>
      </trkpt>
      <trkpt lat="43.70224" lon="7.01543">
        <ele>268.271</ele>
        <time>2013-11-30T11:32:11Z</time>
      </trkpt>
      <trkpt lat="43.70221" lon="7.01552">
        <ele>270.079</ele>
        <time>2013-11-30T11:32:17Z</time>
      </trkpt>
      <trkpt lat="43.70215" lon="7.01569">
        <ele>269.004</ele>
        <time>2013-11-30T11:32:25Z</time>
      </trkpt>
      <trkpt lat="43.70213" lon="7.01586">
        <ele>268.522</ele>
        <time>2013-11-30T11:32:33Z</time>
      </trkpt>
      <trkpt lat="43.70209" lon="7.01602">
        <ele>269.334</ele>
        <time>2013-11-30T11:32:41Z</time>
      </trkpt>
      <trkpt lat="43.70202" lon="7.01615">
        <ele>270.986</ele>
        <time>2013-11-30T11:32:50Z</time>
      </trkpt>
      <trkpt lat="43.70196" lon="7.01627">
        <ele>273.088</ele>
        <time>2013-11-30T11:32:58Z</time>
      </trkpt>
      <trkpt lat="43.70189" lon="7.01637">
        <ele>276.85</ele>
        <time>2013-11-30T11:33:06Z</time>
      </trkpt>
      <trkpt lat="43.70184" lon="7.01649">
        <ele>276.977</ele>
        <time>2013-11-30T11:33:13Z</time>
      </trkpt>
      <trkpt lat="43.70183" lon="7.01653">
        <ele>277.175</ele>
        <time>2013-11-30T11:33:16Z</time>
      </trkpt>
      <trkpt lat="43.7018" lon="7.0167">
        <ele>277.124</ele>
        <time>2013-11-30T11:33:25Z</time>
      </trkpt>
      <trkpt lat="43.70181" lon="7.01685">
        <ele>277.274</ele>
        <time>2013-11-30T11:33:32Z</time>
      </trkpt>
      <trkpt lat="43.70184" lon="7.01699">
        <ele>277.413</ele>
        <time>2013-11-30T11:33:37Z</time>
      </trkpt>
      <trkpt lat="43.70191" lon="7.01712">
        <ele>278.005</ele>
        <time>2013-11-30T11:33:43Z</time>
      </trkpt>
      <trkpt lat="43.70202" lon="7.01714">
        <ele>279.985</ele>
        <time>2013-11-30T11:33:51Z</time>
      </trkpt>
      <trkpt lat="43.70207" lon="7.01709">
        <ele>282.778</ele>
        <time>2013-11-30T11:33:55Z</time>
      </trkpt>
      <trkpt lat="43.7021" lon="7.01696">
        <ele>288.442</ele>
        <time>2013-11-30T11:34:03Z</time>
      </trkpt>
      <trkpt lat="43.70216" lon="7.01688">
        <ele>289.276</ele>
        <time>2013-11-30T11:34:10Z</time>
      </trkpt>
      <trkpt lat="43.70218" lon="7.01687">
        <ele>288.244</ele>
        <time>2013-11-30T11:34:12Z</time>
      </trkpt>
      <trkpt lat="43.70228" lon="7.0168">
        <ele>286.836</ele>
        <time>2013-11-30T11:34:21Z</time>
      </trkpt>
      <trkpt lat="43.70231" lon="7.01675">
        <ele>287.524</ele>
        <time>2013-11-30T11:34:25Z</time>
      </trkpt>
      <trkpt lat="43.70241" lon="7.01668">
        <ele>291.377</ele>
        <time>2013-11-30T11:34:33Z</time>
      </trkpt>
      <trkpt lat="43.7025" lon="7.01666">
        <ele>296.859</ele>
        <time>2013-11-30T11:34:40Z</time>
      </trkpt>
      <trkpt lat="43.70253" lon="7.01667">
        <ele>298.128</ele>
        <time>2013-11-30T11:34:42Z</time>
      </trkpt>
      <trkpt lat="43.70255" lon="7.01675">
        <ele>296.984</ele>
        <time>2013-11-30T11:34:48Z</time>
      </trkpt>
      <trkpt lat="43.70261" lon="7.01681">
        <ele>296.091</ele>
        <time>2013-11-30T11:34:54Z</time>
      </trkpt>
      <trkpt lat="43.70262" lon="7.01688">
        <ele>295.412</ele>
        <time>2013-11-30T11:34:59Z</time>
      </trkpt>
      <trkpt lat="43.70267" lon="7.01696">
        <ele>296.155</ele>
        <time>2013-11-30T11:35:06Z</time>
      </trkpt>
      <trkpt lat="43.70272" lon="7.01703">
        <ele>296.846</ele>
        <time>2013-11-30T11:35:11Z</time>
      </trkpt>
      <trkpt lat="43.70279" lon="7.01701">
        <ele>297.106</ele>
        <time>2013-11-30T11:35:17Z</time>
      </trkpt>
      <trkpt lat="43.7028" lon="7.01698">
        <ele>297.897</ele>
        <time>2013-11-30T11:35:19Z</time>
      </trkpt>
      <trkpt lat="43.70286" lon="7.01684">
        <ele>302.579</ele>
        <time>2013-11-30T11:35:29Z</time>
      </trkpt>
      <trkpt lat="43.70292" lon="7.0168">
        <ele>302.426</ele>
        <time>2013-11-30T11:35:35Z</time>
      </trkpt>
      <trkpt lat="43.70295" lon="7.01679">
        <ele>302.476</ele>
        <time>2013-11-30T11:35:37Z</time>
      </trkpt>
      <trkpt lat="43.70299" lon="7.0168">
        <ele>302.907</ele>
        <time>2013-11-30T11:35:41Z</time>
      </trkpt>
      <trkpt lat="43.70302" lon="7.01679">
        <ele>303.487</ele>
        <time>2013-11-30T11:35:43Z</time>
      </trkpt>
      <trkpt lat="43.7031" lon="7.01681">
        <ele>305.187</ele>
        <time>2013-11-30T11:35:49Z</time>
      </trkpt>
      <trkpt lat="43.70314" lon="7.01688">
        <ele>305.603</ele>
        <time>2013-11-30T11:35:54Z</time>
      </trkpt>
      <trkpt lat="43.7032" lon="7.01704">
        <ele>305.49</ele>
        <time>2013-11-30T11:36:01Z</time>
      </trkpt>
      <trkpt lat="43.70327" lon="7.01728">
        <ele>305.489</ele>
        <time>2013-11-30T11:36:09Z</time>
      </trkpt>
      <trkpt lat="43.70332" lon="7.0175">
        <ele>303.997</ele>
        <time>2013-11-30T11:36:18Z</time>
      </trkpt>
      <trkpt lat="43.70334" lon="7.01752">
        <ele>304.009</ele>
        <time>2013-11-30T11:36:23Z</time>
      </trkpt>
      <trkpt lat="43.70334" lon="7.01753">
        <ele>306.603</ele>
        <time>2013-11-30T11:36:34Z</time>
      </trkpt>
    </trkseg>
  </trk>
</gpx>